[[{"header":{"parameterUnit":"m.s-1","parameterCategory":1,"la1":30.6,"la2":29.2853,"lo1":-89.7004,"lo2":-87.6739,"dy":0.0162,"dx":0.0183,"nx":112,"ny":82,"refTime":"2023-06-03T06:00:00:Z","depth":0,"parameterNumber":2,"parameterNumberName":"U-component_of_WINDS"},"data":[0.0,0.0,0.0,0.0,0.0,0.0,0.0,0.0,0.0,0.0,0.0,0.0,0.0,0.0,0.0,0.0,0.0,0.0,0.0,0.0,0.0,0.0,0.0,0.0,0.0,0.0,0.0,0.0,0.0,0.0,0.0,0.0,0.0,0.0,0.0,0.0,0.0,0.0,0.0,0.0,0.0,0.0,0.0,0.0,0.0,0.0,0.0,0.0,0.0,0.0,0.0,0.0,0.0,0.0,0.0,0.0,0.0,0.0,0.0,0.0,0.0,0.0,0.0,0.0,0.0,0.0,0.0,0.0,0.0,0.0,0.0,0.0,0.0,0.0,0.0,0.0,0.0,0.0,0.0,0.0,0.0,0.0,0.0,0.0,0.0,0.0,0.0,0.0,0.0,0.0,-2.7123,-2.6511,-2.6582,-2.6624,-2.6499,-2.6499,-2.6738,-2.7291,0.0,0.0,0.0,0.0,0.0,0.0,0.0,0.0,0.0,0.0,0.0,0.0,0.0,0.0,0.0,0.0,0.0,0.0,0.0,0.0,0.0,0.0,0.0,0.0,0.0,0.0,0.0,0.0,0.0,0.0,0.0,0.0,0.0,0.0,0.0,0.0,0.0,0.0,0.0,0.0,0.0,0.0,0.0,0.0,0.0,0.0,0.0,0.0,0.0,0.0,0.0,0.0,0.0,0.0,0.0,0.0,0.0,0.0,0.0,0.0,0.0,0.0,0.0,0.0,0.0,0.0,0.0,0.0,0.0,0.0,0.0,0.0,0.0,0.0,0.0,0.0,0.0,0.0,0.0,0.0,0.0,0.0,0.0,0.0,0.0,0.0,0.0,0.0,0.0,0.0,0.0,0.0,0.0,0.0,0.0,0.0,0.0,0.0,0.0,0.0,0.0,0.0,0.0,0.0,-2.6418,-2.6638,-2.6573,-2.6521,-2.6499,-2.6499,-2.6738,-2.7291,0.0,0.0,0.0,0.0,0.0,0.0,0.0,0.0,0.0,0.0,0.0,0.0,0.0,0.0,0.0,0.0,0.0,0.0,0.0,0.0,0.0,0.0,0.0,0.0,0.0,0.0,0.0,0.0,0.0,0.0,0.0,0.0,0.0,0.0,0.0,0.0,0.0,0.0,0.0,0.0,0.0,0.0,0.0,0.0,0.0,0.0,0.0,0.0,0.0,0.0,0.0,0.0,0.0,0.0,0.0,0.0,0.0,0.0,0.0,0.0,0.0,0.0,0.0,0.0,0.0,0.0,0.0,0.0,0.0,0.0,0.0,0.0,0.0,0.0,0.0,0.0,0.0,0.0,0.0,0.0,0.0,0.0,0.0,0.0,0.0,0.0,0.0,0.0,0.0,0.0,0.0,0.0,0.0,0.0,0.0,0.0,0.0,0.0,0.0,0.0,0.0,0.0,0.0,-2.6547,-2.6502,-2.6688,-2.6589,-2.6499,-2.6499,-2.6499,-2.6794,-2.7538,-2.7565,0.0,0.0,0.0,0.0,0.0,0.0,0.0,0.0,0.0,0.0,0.0,0.0,0.0,0.0,0.0,0.0,0.0,0.0,0.0,0.0,0.0,0.0,0.0,0.0,0.0,0.0,0.0,0.0,0.0,0.0,0.0,0.0,0.0,0.0,0.0,0.0,0.0,0.0,0.0,0.0,0.0,0.0,0.0,0.0,0.0,0.0,0.0,0.0,0.0,0.0,0.0,0.0,0.0,0.0,0.0,0.0,0.0,0.0,0.0,0.0,0.0,0.0,0.0,0.0,0.0,0.0,0.0,0.0,0.0,0.0,0.0,0.0,0.0,0.0,0.0,0.0,0.0,0.0,0.0,0.0,0.0,0.0,0.0,0.0,0.0,0.0,0.0,0.0,0.0,0.0,0.0,0.0,0.0,0.0,0.0,0.0,0.0,0.0,0.0,0.0,0.0,0.0,-2.676,-2.6658,-2.6658,-2.6555,-2.6499,-2.6499,-2.6612,-2.7009,-2.7742,-2.7916,0.0,0.0,0.0,0.0,0.0,0.0,0.0,0.0,0.0,0.0,0.0,0.0,0.0,0.0,0.0,0.0,0.0,0.0,0.0,0.0,0.0,0.0,0.0,0.0,0.0,0.0,0.0,0.0,0.0,0.0,0.0,0.0,0.0,0.0,0.0,0.0,0.0,0.0,0.0,0.0,0.0,0.0,0.0,0.0,0.0,0.0,0.0,0.0,0.0,0.0,0.0,0.0,0.0,0.0,0.0,0.0,0.0,0.0,0.0,0.0,0.0,0.0,0.0,0.0,0.0,0.0,0.0,0.0,0.0,0.0,0.0,0.0,0.0,0.0,0.0,0.0,0.0,0.0,0.0,0.0,0.0,0.0,0.0,0.0,0.0,0.0,0.0,0.0,0.0,0.0,0.0,0.0,0.0,0.0,0.0,0.0,0.0,0.0,0.0,0.0,0.0,0.0,-2.6521,-2.6499,-2.6499,-2.6499,-2.6499,-2.6499,-2.6964,-2.741,-2.7767,-2.8288,0.0,0.0,0.0,0.0,0.0,0.0,0.0,0.0,0.0,0.0,0.0,0.0,0.0,0.0,0.0,0.0,0.0,0.0,0.0,0.0,0.0,0.0,0.0,0.0,0.0,0.0,0.0,0.0,0.0,0.0,0.0,0.0,0.0,0.0,0.0,0.0,0.0,0.0,0.0,0.0,0.0,0.0,0.0,0.0,0.0,0.0,0.0,0.0,0.0,0.0,0.0,0.0,0.0,0.0,0.0,0.0,0.0,0.0,0.0,0.0,0.0,0.0,0.0,0.0,0.0,0.0,0.0,0.0,0.0,0.0,0.0,0.0,0.0,0.0,0.0,0.0,0.0,0.0,0.0,0.0,0.0,0.0,0.0,0.0,0.0,0.0,0.0,0.0,0.0,0.0,0.0,0.0,0.0,0.0,0.0,0.0,0.0,0.0,0.0,0.0,0.0,0.0,-2.7002,-2.714,0.0,-2.7494,-2.7494,-2.7494,-2.767,-2.7888,-2.8113,0.0,0.0,0.0,0.0,0.0,0.0,0.0,0.0,0.0,0.0,0.0,0.0,0.0,0.0,0.0,0.0,0.0,0.0,0.0,0.0,0.0,0.0,0.0,0.0,0.0,0.0,0.0,0.0,0.0,0.0,0.0,0.0,0.0,0.0,0.0,0.0,0.0,0.0,0.0,0.0,0.0,0.0,0.0,0.0,0.0,0.0,0.0,0.0,0.0,0.0,0.0,0.0,0.0,0.0,0.0,0.0,0.0,0.0,0.0,0.0,0.0,0.0,0.0,0.0,0.0,0.0,0.0,0.0,0.0,0.0,0.0,0.0,0.0,0.0,0.0,0.0,0.0,0.0,0.0,0.0,0.0,0.0,0.0,0.0,0.0,0.0,0.0,0.0,0.0,0.0,0.0,0.0,0.0,0.0,0.0,0.0,0.0,0.0,0.0,0.0,0.0,0.0,-2.753,-2.7544,-2.7682,0.0,-2.8109,-2.8109,-2.8109,-2.8186,-2.8263,-2.8307,0.0,0.0,0.0,0.0,0.0,0.0,0.0,0.0,0.0,0.0,0.0,0.0,0.0,0.0,0.0,0.0,0.0,0.0,0.0,0.0,0.0,0.0,0.0,0.0,0.0,0.0,0.0,0.0,0.0,0.0,0.0,0.0,0.0,0.0,0.0,0.0,0.0,0.0,0.0,0.0,0.0,0.0,0.0,0.0,0.0,0.0,0.0,0.0,0.0,0.0,0.0,0.0,0.0,0.0,0.0,0.0,0.0,0.0,0.0,0.0,0.0,0.0,0.0,0.0,0.0,0.0,0.0,0.0,0.0,0.0,0.0,0.0,0.0,0.0,0.0,0.0,0.0,0.0,0.0,0.0,0.0,0.0,0.0,0.0,0.0,0.0,0.0,0.0,0.0,0.0,0.0,0.0,0.0,0.0,0.0,0.0,0.0,0.0,0.0,0.0,0.0,0.0,-2.8109,-2.8109,-2.8109,-2.8122,-2.8122,-2.8122,-2.8122,-2.8425,-2.851,0.0,0.0,0.0,0.0,0.0,0.0,0.0,0.0,0.0,0.0,0.0,0.0,0.0,0.0,0.0,0.0,0.0,0.0,0.0,0.0,0.0,0.0,0.0,0.0,0.0,0.0,0.0,0.0,0.0,0.0,0.0,0.0,0.0,0.0,0.0,0.0,0.0,0.0,0.0,0.0,0.0,0.0,0.0,0.0,0.0,0.0,0.0,0.0,0.0,0.0,0.0,0.0,0.0,0.0,0.0,0.0,0.0,0.0,0.0,0.0,0.0,0.0,0.0,0.0,0.0,0.0,0.0,0.0,0.0,0.0,0.0,0.0,0.0,0.0,0.0,0.0,0.0,0.0,0.0,0.0,0.0,0.0,0.0,0.0,0.0,0.0,0.0,0.0,0.0,0.0,0.0,0.0,0.0,0.0,0.0,0.0,0.0,0.0,0.0,0.0,0.0,0.0,0.0,-2.8637,-2.865,-2.885,-2.9252,-2.9302,-2.9201,-2.9023,-2.9122,-2.9028,-2.8678,0.0,0.0,0.0,0.0,0.0,0.0,0.0,0.0,0.0,0.0,0.0,0.0,0.0,0.0,0.0,0.0,0.0,0.0,0.0,0.0,0.0,0.0,0.0,0.0,0.0,0.0,0.0,0.0,0.0,0.0,0.0,0.0,0.0,0.0,0.0,0.0,0.0,0.0,0.0,0.0,0.0,0.0,0.0,0.0,0.0,0.0,0.0,0.0,0.0,0.0,0.0,0.0,0.0,0.0,0.0,0.0,0.0,0.0,0.0,0.0,0.0,0.0,0.0,0.0,0.0,0.0,0.0,0.0,0.0,0.0,0.0,0.0,0.0,0.0,0.0,0.0,0.0,0.0,0.0,0.0,0.0,0.0,0.0,0.0,0.0,0.0,0.0,0.0,0.0,0.0,0.0,0.0,0.0,0.0,0.0,0.0,0.0,0.0,0.0,0.0,0.0,0.0,-2.9239,-2.9277,-2.9402,-2.9754,-2.9702,-2.956,-2.9419,-2.9263,-2.9067,-2.8843,0.0,0.0,0.0,0.0,0.0,0.0,0.0,0.0,0.0,0.0,0.0,0.0,0.0,0.0,0.0,0.0,0.0,0.0,0.0,0.0,0.0,0.0,0.0,0.0,0.0,0.0,0.0,0.0,0.0,0.0,0.0,0.0,0.0,0.0,0.0,0.0,0.0,0.0,0.0,0.0,0.0,0.0,0.0,0.0,0.0,0.0,0.0,0.0,0.0,0.0,0.0,0.0,0.0,0.0,0.0,0.0,0.0,0.0,0.0,0.0,0.0,0.0,0.0,0.0,0.0,0.0,0.0,0.0,0.0,0.0,0.0,0.0,0.0,0.0,0.0,0.0,0.0,0.0,0.0,0.0,0.0,0.0,0.0,0.0,0.0,0.0,0.0,0.0,0.0,0.0,0.0,0.0,0.0,0.0,0.0,0.0,0.0,0.0,0.0,0.0,0.0,0.0,-2.9792,-2.9792,-2.9792,-2.9792,-2.956,-2.938,-2.938,-2.9028,-2.8803,-2.8764,0.0,0.0,0.0,0.0,0.0,0.0,0.0,0.0,0.0,0.0,0.0,0.0,0.0,0.0,0.0,0.0,0.0,0.0,0.0,0.0,0.0,0.0,0.0,0.0,0.0,0.0,0.0,0.0,0.0,0.0,0.0,0.0,0.0,0.0,0.0,0.0,0.0,0.0,0.0,0.0,0.0,0.0,0.0,0.0,0.0,0.0,0.0,0.0,0.0,0.0,0.0,0.0,0.0,0.0,0.0,0.0,0.0,0.0,0.0,0.0,-2.9885,0.0,0.0,0.0,0.0,0.0,0.0,0.0,0.0,0.0,0.0,0.0,0.0,0.0,0.0,0.0,0.0,0.0,0.0,0.0,0.0,0.0,0.0,0.0,0.0,0.0,0.0,0.0,0.0,0.0,0.0,0.0,0.0,0.0,0.0,0.0,0.0,0.0,0.0,0.0,0.0,0.0,-2.9792,-2.9792,-2.9792,-2.9792,-2.956,-2.9341,-2.9157,-2.8922,-2.8724,-2.8578,-2.851,0.0,0.0,0.0,0.0,0.0,0.0,0.0,0.0,0.0,0.0,0.0,0.0,0.0,0.0,0.0,0.0,0.0,0.0,0.0,0.0,0.0,0.0,0.0,0.0,0.0,0.0,0.0,0.0,0.0,0.0,0.0,0.0,0.0,0.0,0.0,0.0,0.0,0.0,0.0,0.0,0.0,0.0,0.0,0.0,0.0,0.0,0.0,0.0,0.0,0.0,0.0,0.0,0.0,0.0,0.0,0.0,0.0,0.0,0.0,0.0,-2.9093,0.0,0.0,0.0,0.0,0.0,0.0,0.0,0.0,0.0,0.0,0.0,0.0,0.0,0.0,0.0,0.0,0.0,0.0,0.0,0.0,0.0,0.0,0.0,0.0,0.0,0.0,0.0,0.0,0.0,0.0,0.0,0.0,0.0,0.0,0.0,0.0,0.0,0.0,0.0,0.0,-2.9792,-2.9792,-2.9792,-2.9792,-2.956,-2.9341,-2.9236,-2.8961,-2.8764,-2.8657,-2.855,0.0,0.0,0.0,0.0,0.0,0.0,0.0,0.0,0.0,0.0,0.0,0.0,0.0,0.0,0.0,0.0,0.0,0.0,0.0,0.0,0.0,0.0,0.0,0.0,0.0,0.0,0.0,0.0,0.0,0.0,0.0,0.0,0.0,0.0,0.0,0.0,0.0,0.0,0.0,0.0,0.0,0.0,0.0,0.0,0.0,0.0,0.0,0.0,0.0,0.0,0.0,0.0,0.0,-3.0403,-3.0438,-3.0488,-3.048,-3.1095,-3.2095,-3.0281,-2.921,-2.8858,0.0,0.0,0.0,0.0,0.0,0.0,0.0,0.0,0.0,0.0,0.0,0.0,0.0,0.0,0.0,0.0,0.0,0.0,0.0,0.0,0.0,0.0,0.0,0.0,0.0,-3.0986,-3.0856,0.0,0.0,0.0,0.0,0.0,0.0,0.0,0.0,0.0,0.0,0.0,0.0,-2.9792,-2.9792,-2.9792,-2.9792,-2.956,-2.9419,-2.9419,-2.9028,-2.8791,-2.8791,-2.8618,-2.851,0.0,0.0,0.0,0.0,0.0,0.0,0.0,0.0,0.0,0.0,0.0,0.0,0.0,0.0,0.0,0.0,0.0,0.0,0.0,0.0,0.0,0.0,0.0,0.0,0.0,0.0,0.0,0.0,0.0,0.0,0.0,0.0,-2.3749,-2.3345,0.0,0.0,0.0,0.0,0.0,0.0,0.0,0.0,0.0,0.0,0.0,0.0,0.0,-2.9956,-3.0029,-3.0538,-3.0663,-3.0398,-3.0412,-3.0399,-3.0405,-3.0433,-3.1062,-3.2227,-3.2849,0.0,-3.1129,-3.0985,0.0,0.0,0.0,0.0,0.0,0.0,0.0,0.0,0.0,0.0,0.0,0.0,0.0,0.0,0.0,0.0,0.0,0.0,0.0,0.0,0.0,0.0,-3.0986,-3.0986,-3.0986,-3.0936,0.0,-3.0822,-3.0949,-3.0685,0.0,0.0,0.0,0.0,0.0,0.0,0.0,0.0,-2.9792,-2.9792,-2.9792,-2.9792,-2.956,-2.9419,-2.9419,-2.9028,-2.8791,-2.8791,-2.8618,-2.851,-2.851,-2.851,0.0,0.0,0.0,0.0,0.0,0.0,0.0,0.0,0.0,0.0,0.0,0.0,0.0,0.0,0.0,0.0,0.0,0.0,0.0,0.0,0.0,0.0,0.0,0.0,0.0,0.0,0.0,0.0,0.0,-2.4589,-2.4436,-2.4232,-2.4696,-2.4929,0.0,0.0,0.0,0.0,0.0,0.0,0.0,0.0,0.0,-2.9591,-3.0107,-3.0403,-3.0405,-3.0651,-3.0815,-3.0907,-3.0783,-3.0959,-3.1395,-3.1395,-3.2122,-3.3345,-3.3031,-3.2661,-3.2201,-3.1934,-3.2274,-3.3035,0.0,0.0,0.0,0.0,0.0,-3.3772,-3.2958,-3.2639,0.0,0.0,0.0,0.0,0.0,0.0,0.0,0.0,0.0,0.0,0.0,0.0,0.0,-3.0986,-3.0986,-3.0986,-3.0874,-3.0849,-3.0736,0.0,-3.0305,-3.019,-2.9972,0.0,0.0,0.0,0.0,-2.9792,-2.9792,-2.9792,-2.9792,-2.9792,-2.9689,-2.9611,-2.9611,-2.9314,-2.9145,-2.9145,-2.8973,-2.8828,-2.8828,-2.8828,-2.8828,0.0,0.0,0.0,0.0,0.0,0.0,0.0,0.0,0.0,0.0,0.0,0.0,0.0,0.0,0.0,0.0,0.0,0.0,0.0,0.0,0.0,0.0,0.0,0.0,0.0,0.0,0.0,0.0,-2.5035,-2.529,-2.5453,-2.586,-2.6185,0.0,0.0,0.0,0.0,0.0,0.0,-2.9021,-2.9482,-2.9998,-3.0622,-3.0635,-3.0703,-3.0866,-3.0866,-3.1083,-3.1517,-3.1388,-3.1622,-3.2231,-3.2946,-3.384,-3.4783,-3.387,-3.3487,-3.34,-3.2841,-3.2928,-3.3489,-3.4071,-3.4677,-3.5133,-3.4528,-3.4177,-3.3856,-3.2741,-3.2254,-3.211,-3.211,0.0,-3.2182,-3.2755,0.0,0.0,0.0,0.0,-3.17,-3.1161,0.0,-3.0986,-3.0949,-3.0949,-3.0949,-3.0798,-3.0685,-3.0533,0.0,-3.0152,-3.0049,-2.9895,0.0,0.0,0.0,0.0,-2.9792,-2.9792,-2.9792,-2.9792,-2.9792,-2.9792,-2.9792,-2.9792,-2.956,-2.9419,-2.9419,-2.9197,-2.9091,-2.9091,-2.9091,-2.9091,-2.9091,0.0,0.0,0.0,0.0,0.0,0.0,0.0,0.0,0.0,0.0,0.0,0.0,0.0,0.0,0.0,0.0,0.0,0.0,0.0,0.0,0.0,0.0,0.0,0.0,0.0,0.0,0.0,0.0,0.0,-2.663,-2.6725,0.0,0.0,0.0,0.0,-2.9298,-2.9407,-2.9659,-3.0283,-3.0351,-3.0635,-3.1232,-3.1246,-3.1517,-3.211,-3.2123,-3.2137,-3.2128,-3.2132,-3.2168,-3.2273,-3.4952,-3.621,-3.6335,-3.6744,-3.636,-3.5317,-3.3477,-3.2883,-3.3276,-3.4027,-3.4312,-3.4346,-3.4312,-3.3871,-3.3248,-3.3178,-3.2684,-3.211,-3.211,-3.211,-3.211,-3.2146,-3.2146,0.0,0.0,-3.1603,-3.1061,-3.1024,-3.0986,-3.0949,-3.0773,-3.0836,-3.0836,-3.0267,-3.0305,-3.0457,0.0,-3.0343,-3.0113,-3.0075,0.0,-2.9792,-2.9792,-2.9792,-2.9792,-2.9792,-2.9792,-2.9792,-2.9792,-2.9792,-2.9792,-2.9792,-2.956,-2.9419,-2.9419,-2.9197,-2.9091,-2.9091,-2.9091,-2.9091,-2.9091,-2.9091,0.0,0.0,0.0,0.0,0.0,0.0,0.0,0.0,0.0,0.0,0.0,0.0,0.0,0.0,0.0,0.0,0.0,0.0,0.0,0.0,0.0,0.0,0.0,0.0,0.0,0.0,0.0,0.0,-2.7366,-2.8058,0.0,-2.8831,-2.9211,-2.9618,-3.0052,-3.0432,-3.0744,-3.0975,-3.1341,-3.1816,-3.2449,-3.2477,-3.2725,-3.3271,-3.3271,-3.3271,-3.3284,-3.3095,-3.3073,-3.3398,-3.6196,-3.8062,-3.8945,-3.7041,-3.6295,-3.6326,-3.4981,-3.4724,-3.5174,-3.5456,-3.5639,-3.564,-3.5142,-3.449,-3.3837,-3.3353,-3.272,-3.2015,-3.1529,-3.1394,-3.1394,-3.1394,-3.1394,-3.1474,-3.1808,-3.1713,-3.1614,-3.198,-3.2006,-3.1902,-3.1824,-3.1733,-3.1563,-3.1366,-3.1299,-3.126,-3.1352,-3.0582,-2.9895,-2.9895,-2.9869,-2.9792,-2.9792,-2.9792,-2.9792,-2.9792,-2.9792,-2.9792,-2.9792,-2.9792,-2.9792,-2.9792,-2.9702,-2.965,-2.965,-2.9585,-2.9546,-2.9546,-2.9546,-2.9546,-2.9546,-2.9546,-2.9456,0.0,0.0,0.0,0.0,0.0,0.0,0.0,0.0,0.0,0.0,0.0,0.0,0.0,0.0,0.0,0.0,0.0,0.0,0.0,0.0,0.0,0.0,0.0,0.0,0.0,0.0,-2.8383,-2.86,-2.9319,-2.9876,-3.01,-3.0459,-3.0866,-3.1273,-3.1667,-3.1979,-3.2182,-3.2562,-3.2955,-3.3349,-3.3363,-3.3552,-3.3908,-3.3908,-3.3908,-3.3908,-3.4089,-3.4089,-3.4002,-3.762,-3.9951,-4.1052,-3.8436,-3.7499,-3.7765,-3.6925,-3.6692,-3.6867,-3.6716,-3.6586,-3.6369,-3.5813,-3.5363,-3.4897,-3.4411,-3.3738,-3.2992,-3.2241,-3.1802,-3.1561,-3.1561,-3.1561,-3.164,-3.198,-3.2084,-3.2215,-3.2594,-3.254,-3.2393,-3.2313,-3.214,-3.1966,-3.1833,-3.1737,-3.1696,-3.1615,-3.0901,-3.0331,-3.0331,-3.0331,-3.0331,-3.0331,-3.0331,-3.0331,-3.0331,-3.0331,-3.0331,-3.0331,-3.0331,-3.0331,-3.0331,-3.0331,-3.0256,-3.008,-3.0068,-2.9993,-2.9804,-2.9792,-2.9792,-2.9792,-2.9792,-2.9702,-2.9509,0.0,0.0,0.0,0.0,0.0,0.0,0.0,0.0,0.0,0.0,0.0,0.0,0.0,0.0,0.0,0.0,0.0,0.0,0.0,0.0,0.0,0.0,0.0,-2.9544,-2.9489,-2.9754,-3.0364,-3.0446,-3.069,-3.13,-3.1355,-3.1829,-3.3047,-3.3129,-3.3335,-3.388,-3.3935,-3.3948,-3.3962,-3.3975,-3.4002,-3.3977,-3.4016,-3.4016,-3.403,-3.5221,-3.5181,-3.4273,-3.925,-4.1894,-4.2531,-4.1047,-4.0167,-3.9719,-3.9092,-3.8634,-3.8242,-3.7673,-3.702,-3.6357,-3.6357,-3.6343,-3.6328,-3.6293,-3.5791,-3.4985,-3.4156,-3.3352,-3.2685,-3.2685,-3.2685,-3.2685,-3.2712,-3.2725,-3.2725,-3.2738,-3.2592,-3.2405,-3.2217,-3.2111,-3.1937,-3.1531,-3.1625,-3.1665,-3.149,-3.1436,-3.1436,-3.1399,-3.1386,-3.1386,-3.1386,-3.1386,0.0,-3.1386,-3.1386,-3.1386,-3.1386,-3.1386,-3.1386,-3.1386,-3.1386,-3.1173,-3.067,-3.062,-3.0382,-2.9842,-2.9804,-2.9792,-2.9792,-2.9792,-2.9792,-2.9792,0.0,0.0,0.0,0.0,0.0,0.0,0.0,0.0,0.0,0.0,0.0,0.0,0.0,0.0,0.0,0.0,0.0,0.0,0.0,0.0,0.0,-3.0841,-3.0843,-3.0207,-3.0521,-3.0866,-3.1029,-3.1436,-3.1924,-3.2558,-3.2612,-3.2888,-3.3647,-3.3664,-3.3731,-3.3894,-3.4314,-3.4748,-3.5181,-3.5642,-3.594,-3.6087,-3.6346,-3.6346,-3.61,-3.7331,-3.8055,-3.8323,-4.0475,-4.2009,-4.294,-4.1498,-4.1025,-4.1295,-4.0341,-4.0168,-4.0396,-3.9307,-3.8415,-3.7827,-3.7827,-3.7515,-3.701,-3.647,-3.5791,-3.4985,-3.4156,-3.3352,-3.2685,-3.2685,-3.2685,-3.2777,-3.3221,-3.3352,-3.343,-3.3822,-3.3775,-3.3568,-3.3306,-3.3139,-3.2942,-3.2701,-3.2659,-3.2701,-3.2659,-3.2616,-3.2353,-3.1537,-3.1386,-3.1386,-3.1386,-3.1386,0.0,-3.1386,-3.1386,-3.1386,-3.1386,-3.1386,-3.1386,-3.1386,-3.1386,-3.1336,-3.1185,-3.0821,-3.0545,-3.0394,-3.0005,-2.9792,-2.9792,-2.9792,-2.9792,0.0,0.0,0.0,0.0,0.0,0.0,0.0,0.0,0.0,0.0,0.0,0.0,0.0,0.0,0.0,0.0,0.0,0.0,0.0,0.0,0.0,0.0,-3.1287,-3.1341,-3.1504,-3.1612,-3.1762,-3.2042,-3.2368,-3.2779,-3.3376,-3.343,-3.3783,-3.4585,-3.4639,-3.4803,-3.5143,-3.5494,-3.5913,-3.6415,-3.6767,-3.7023,-3.7153,-3.7389,-3.7711,-3.8172,-3.8921,-3.9719,-4.0651,-4.1709,-4.2719,0.0,-4.2433,-4.2085,-4.2244,-4.133,-4.1111,0.0,0.0,0.0,0.0,0.0,-3.9394,-3.8994,-3.8582,-3.7891,-3.7006,-3.592,-3.5044,-3.4245,-3.3604,-3.3404,-3.3483,-3.3835,-3.3927,-3.4005,-3.4319,-3.4243,-3.4034,-3.3755,-3.3556,-3.3356,-3.3154,-3.3124,-3.3124,-3.3124,0.0,0.0,-3.2215,-3.2102,-3.2102,-3.2102,-3.2102,-3.2102,-3.2102,-3.2102,-3.2102,-3.2102,-3.2102,-3.2102,-3.2102,-3.2102,0.0,0.0,0.0,-3.1085,-3.0633,-3.0306,0.0,0.0,0.0,-2.9792,0.0,0.0,0.0,0.0,-2.9585,-2.9585,0.0,0.0,0.0,0.0,0.0,0.0,0.0,0.0,0.0,0.0,0.0,0.0,0.0,0.0,0.0,0.0,-3.145,-3.187,-3.2952,-3.2707,-3.2612,-3.3142,-3.3196,-3.3417,-3.4043,-3.4111,-3.4599,-3.5832,-3.5859,-3.617,-3.6865,0.0,0.0,0.0,0.0,-3.7689,-3.7689,-3.783,-3.8657,-4.0142,-4.0232,-4.0816,-4.185,-4.2935,-4.3717,-4.419,-4.3639,-4.3168,-4.2771,-4.2183,-4.1798,-4.1594,-4.1482,-4.1422,-4.1422,-4.1422,-4.1422,0.0,0.0,0.0,0.0,-3.857,-3.76,-3.6674,-3.5309,-3.4831,-3.4748,-3.4748,-3.4664,-3.458,-3.458,-3.4468,-3.4257,-3.399,-3.379,-3.3546,-3.3343,-3.33,-3.3269,-3.3269,-3.3269,-3.3244,-3.3181,-3.3162,-3.3124,-3.3124,-3.3124,0.0,-3.3124,-3.3124,-3.3124,-3.3124,0.0,0.0,-3.3124,-3.3124,-3.2855,-3.234,-3.2252,-3.1763,-3.0746,-3.0708,-3.047,-2.998,-2.9967,-2.9967,-2.9967,-2.9967,-2.9967,-2.9967,-2.9854,-2.9792,0.0,0.0,0.0,0.0,0.0,0.0,0.0,0.0,0.0,0.0,0.0,0.0,0.0,0.0,0.0,-3.2041,-3.2436,-3.283,-3.3074,-3.3376,-3.3609,-3.3718,-3.3745,-3.4165,-3.5262,-3.5331,-3.5832,-3.7052,-3.6872,-3.6745,-3.6891,-3.7196,0.0,-3.7507,-3.8455,-3.8952,-3.8952,-3.9906,-4.0788,-4.1624,0.0,0.0,-4.3015,-4.3928,-4.4343,-4.4251,-4.4144,-4.3868,-4.3494,-4.3359,-4.3166,-4.2811,-4.1788,-4.1422,-4.1422,-4.1422,-4.1422,-4.1422,-4.1422,-4.0829,-4.007,-3.9783,-3.9105,-3.8417,-3.8114,-3.7497,0.0,-3.6884,-3.6359,-3.577,-3.577,-3.5726,-3.5652,-3.5435,-3.5185,-3.4933,-3.4781,-3.4546,-3.4399,-3.4399,-3.4399,-3.4261,-3.3822,-3.337,-3.3124,-3.3124,-3.3124,-3.3124,-3.3124,-3.3124,-3.3124,-3.3124,-3.3124,-3.3124,-3.3124,-3.3124,-3.3074,-3.2918,-3.2466,-3.1926,-3.1273,-3.1248,-3.1185,-3.1085,-3.1085,-3.1085,-3.1085,-3.1085,-3.1085,-3.106,-3.0193,-2.9792,0.0,0.0,0.0,0.0,0.0,0.0,0.0,0.0,0.0,0.0,0.0,-3.2235,-3.2194,0.0,-3.2671,-3.2636,-3.3118,-3.3607,-3.3905,-3.4461,-3.4788,-3.4788,-3.4788,-3.5263,-3.6469,-3.6413,-3.671,-3.7698,-3.7432,-3.7456,-3.8074,-3.8287,-3.8378,-3.8378,-3.8986,-3.9305,-3.9305,-3.9889,-4.1242,-4.3303,-4.3722,-4.3935,-4.3966,-4.4419,-4.4435,-4.4127,-4.4127,-4.3895,-4.3518,-4.3518,-4.3423,-4.323,-4.2611,-4.2357,-4.2357,-4.2357,-4.2357,-4.2357,-4.2357,-4.2069,-4.1494,-4.0305,-3.9637,-3.9074,-3.7865,-3.7192,-3.6807,-3.6807,-3.6475,-3.6109,-3.6109,-3.6109,-3.6066,-3.5859,-3.5683,-3.5519,-3.5188,-3.5008,-3.4861,-3.4726,-3.468,-3.4625,-3.4361,-3.4085,-3.3709,-3.3156,-3.3124,-3.3124,-3.3124,-3.3124,-3.3124,-3.3124,-3.3124,-3.3124,-3.3124,-3.3124,-3.3124,-3.3124,-3.2805,-3.239,-3.1825,-3.18,-3.1675,-3.1399,-3.1386,-3.1386,-3.1386,-3.1386,-3.1386,-3.1373,-3.0846,-3.0612,0.0,0.0,0.0,0.0,0.0,0.0,0.0,-3.0902,-3.1381,-3.1314,-3.1798,-3.2256,-3.2332,-3.2775,-3.3129,-3.3251,-3.3742,-3.4287,-3.4883,-3.5506,-3.5981,-3.6212,-3.6144,-3.6455,-3.7526,-3.7315,-3.7475,-3.8293,-3.8024,-3.8283,-3.9264,-3.9305,-3.9305,-3.9305,-3.9639,-3.9812,-3.9812,-4.0165,-4.176,-4.459,-4.4578,-4.461,-4.461,-4.461,-4.4396,-4.3988,-4.3895,-4.366,-4.329,-4.329,-4.329,-4.329,-4.329,-4.329,-4.329,-4.329,-4.329,-4.329,-4.329,-4.329,-4.2986,-4.1025,-4.04,-4.0052,-3.8079,-3.74,-3.7197,-3.7023,-3.6862,-3.6643,-3.6493,-3.6449,-3.6418,-3.6241,-3.6152,-3.6018,-3.5596,-3.546,-3.5325,-3.5085,-3.5039,-3.5002,-3.4901,-3.4876,-3.455,-3.3545,-3.3395,-3.3357,-3.3257,-3.3275,-3.3237,-3.3124,-3.3124,-3.3124,-3.3124,-3.3124,-3.3124,-3.3124,-3.3124,-3.2867,-3.2403,-3.2378,-3.2164,-3.1725,-3.1712,-3.1712,-3.1712,-3.1712,-3.1712,-3.1712,-3.1712,-3.1593,-3.1794,-3.165,-3.1234,-3.0586,-3.0247,-3.0117,0.0,-3.0876,-3.1299,-3.1295,-3.1779,-3.2359,-3.2884,-3.3047,-3.3278,-3.3718,-3.4301,-3.4897,-3.5533,-3.613,-3.6904,-3.7989,-3.7607,-3.747,-3.8009,-3.7993,-3.832,-3.9084,-3.9125,-3.9152,-3.9292,-3.9305,-3.9305,-3.9305,-4.0879,-4.1682,-4.1682,-4.3204,-4.4198,-4.4603,-4.4587,-4.4595,-4.461,-4.461,-4.4396,-4.3988,-4.3581,-4.3329,-4.329,-4.329,-4.329,-4.329,-4.329,-4.329,-4.329,-4.329,-4.329,-4.329,-4.329,-4.329,-4.3275,-4.3001,-4.2892,-4.2837,-4.2573,-4.1963,-4.1179,-4.035,-3.9488,-3.8666,-3.7905,-3.7704,-3.7704,-3.7658,-3.7462,-3.7219,-3.6929,-3.6684,-3.6451,-3.6276,-3.6229,-3.6019,-3.5495,-3.5408,-3.5207,-3.4625,-3.4537,-3.4361,-3.3872,-3.3809,-3.3621,-3.3174,-3.3124,-3.3124,-3.3124,-3.3124,-3.3124,-3.3124,-3.3124,-3.3056,-3.298,-3.298,-3.2955,-3.2893,-3.2893,-3.2893,-3.2893,-3.2893,-3.2893,-3.2893,-3.2893,-3.2382,-3.1441,-3.1197,-3.0802,-3.0469,-3.0315,-3.0344,-3.0819,-3.111,-3.1395,-3.1734,-3.2314,-3.2803,-3.3047,-3.3634,-3.4177,-3.4382,-3.5209,-3.5954,-3.6198,-3.7053,-3.784,-3.8355,-3.8505,-3.8597,-3.8769,-3.8783,-3.8949,-3.9278,-3.9305,-3.9305,-3.9305,-3.9305,-3.9628,-4.031,-4.1084,-4.1781,-4.2458,-4.3208,-4.3922,-4.4607,-4.4588,-4.461,-4.461,-4.461,-4.4396,-4.3988,-4.3503,-4.329,-4.329,-4.329,-4.329,-4.329,-4.329,-4.329,-4.329,-4.329,-4.329,-4.329,-4.329,-4.329,-4.321,-4.2714,-4.2537,-4.2319,-4.1225,-4.0675,-4.0159,-3.9295,-3.8742,-3.8349,-3.7979,-3.79,-3.79,-3.79,-3.7703,-3.7413,-3.7168,-3.6909,-3.6628,-3.6452,-3.6405,-3.6329,-3.6056,-3.6019,-3.5943,-3.5705,-3.5127,-3.4638,-3.4412,-3.4374,-3.4173,-3.3608,-3.3558,-3.342,-3.3149,-3.3124,-3.3124,-3.3124,-3.3124,-3.3124,-3.3124,-3.3124,-3.3124,-3.3124,-3.3124,-3.3124,-3.3124,-3.3124,-3.3124,-3.3124,-3.3124,-3.2817,-3.1288,-3.1013,-3.0793,-3.0658,-3.0649,-3.0812,-3.1395,-3.1544,-3.1707,-3.2327,-3.2803,-3.3196,-3.3522,-3.4258,-3.4843,-3.5005,-3.5927,-3.6659,-3.6836,-3.7758,-3.8477,-3.864,-3.9034,-3.9305,-3.9305,-3.9305,-3.9305,-3.9305,-3.9305,-3.9305,-3.9305,-3.9642,-4.0138,-4.0957,-4.1467,-4.2096,-4.2927,-4.3175,-4.3738,-4.4606,-4.4588,-4.461,-4.461,-4.4549,-4.4358,-4.4065,-4.3621,-4.3423,-4.3384,-4.3329,-4.329,-4.329,-4.329,-4.329,-4.329,-4.329,-4.329,-4.329,-4.329,-4.329,-4.321,-4.2578,-4.2374,-4.2099,-4.076,-4.0318,-4.0159,-3.9264,-3.9011,-3.8966,-3.8711,-3.8666,-3.8575,-3.8317,-3.8122,-3.7835,-3.7294,-3.7015,-3.6769,-3.6546,-3.6452,-3.6405,-3.6405,-3.6405,-3.6405,-3.6405,-3.568,-3.5115,-3.4919,-3.4768,-3.4562,-3.4173,-3.4123,-3.3897,-3.3357,-3.3307,-3.3244,-3.3124,-3.3124,-3.3124,-3.3124,-3.3124,-3.3124,-3.3124,-3.3124,-3.3124,-3.3124,-3.3124,-3.3124,-3.3124,-3.3124,-3.3124,-3.1389,-3.1376,-3.1527,-3.1307,-3.126,-3.1422,-3.2055,-3.2191,-3.2354,-3.2952,-3.3088,-3.3455,-3.4517,-3.4761,-3.4978,-3.5601,-3.6198,-3.6809,-3.7377,-3.7987,-3.864,-3.921,-3.9292,-3.9305,0.0,-3.9305,-3.9305,-3.9305,-3.9305,-3.9305,-3.9305,-4.0397,-4.09,-4.0603,-4.233,-4.3245,-4.3299,-4.4135,-4.4572,-4.4603,-4.4587,-4.461,-4.4572,-4.4396,-4.4281,-4.4281,-4.3871,-4.369,-4.369,-4.3423,-4.329,-4.329,-4.329,-4.329,-4.329,-4.329,-4.329,-4.329,-4.329,-4.329,-4.329,-4.325,-4.325,-4.325,-4.321,-4.317,-4.2996,-4.2114,-4.1867,-4.1686,-4.0774,-4.0518,-4.0303,-3.9387,-3.9166,-3.8823,-3.7723,-3.7261,-3.7015,-3.6722,-3.6534,-3.6405,-3.6405,-3.6405,-3.6405,-3.6405,-3.638,-3.6119,-3.5545,-3.5006,-3.4668,-3.47,-3.47,-3.4474,-3.3922,-3.3872,-3.3646,-3.3106,-3.3124,-3.3124,-3.3124,-3.3124,-3.3124,-3.3124,-3.3124,-3.3124,-3.3124,-3.3124,-3.3124,-3.3124,-3.3124,-3.3124,-3.2051,-3.185,-3.1771,-3.1864,-3.1884,-3.1938,-3.2164,-3.2517,-3.2857,-3.3061,-3.3688,-3.4353,-3.4721,-3.5114,-3.5439,-3.5683,-3.6523,-3.7255,-3.7458,-3.8383,-3.9074,-3.9278,-3.9305,-3.9305,0.0,0.0,0.0,-3.9305,-3.9305,-3.9305,-3.9305,-4.0257,-4.1001,-4.1505,-4.267,-4.356,-4.4174,-4.4458,-4.461,-4.461,-4.461,-4.461,-4.4572,-4.4396,-4.4281,-4.4281,-4.3871,-4.369,-4.369,-4.3423,-4.329,-4.329,-4.329,-4.329,-4.329,-4.329,-4.329,-4.329,-4.329,-4.329,-4.329,-4.329,-4.329,-4.321,-4.2618,-4.2456,-4.2237,-4.1338,-4.1071,-4.0986,-4.0689,-4.0159,-3.9593,-3.9285,-3.8612,-3.7972,-3.7585,-3.7307,-3.7015,-3.6769,-3.6675,-3.6534,-3.6405,-3.6405,-3.6405,-3.6405,-3.6405,-3.6342,-3.6107,-3.5918,-3.5667,-3.5257,-3.5219,-3.4994,-3.45,-3.4449,-3.4361,-3.4173,-3.3822,-3.3621,-3.3621,-3.3269,-3.3124,-3.3124,-3.3124,-3.3124,-3.3124,-3.3124,-3.3124,-3.3124,-3.3124,-3.3124,-3.2369,-3.2173,-3.1979,-3.216,-3.2218,-3.2218,-3.2218,-3.268,-3.3156,-3.3335,-3.4149,-3.4974,-3.5441,-3.5652,-3.579,-3.6097,-3.6893,-3.7485,-3.7485,-3.8559,-3.9305,-3.9305,-3.9305,-3.9305,-3.9305,0.0,0.0,-3.9305,-3.9305,-3.9305,-3.9305,-4.046,-4.138,-4.199,-4.3165,-4.4043,-4.4572,-4.461,-4.461,-4.461,-4.461,-4.461,-4.4587,-4.4473,-4.4396,-4.4396,-4.3988,-4.3808,-4.3754,-4.3423,-4.329,-4.329,-4.329,-4.329,-4.329,-4.329,-4.329,-4.329,-4.329,-4.329,-4.329,-4.329,-4.329,-4.321,-4.2618,-4.2456,-4.2319,-4.1713,-4.1574,-4.1574,-4.1574,-4.0901,-4.0116,-3.9768,-3.8868,-3.8018,-3.769,-3.7413,-3.7155,-3.6909,-3.6769,-3.6628,-3.6452,-3.6405,-3.6405,-3.6405,-3.6405,-3.6405,-3.6405,-3.6405,-3.6267,-3.5868,-3.583,-3.5617,-3.5019,-3.4969,-3.4893,-3.4693,-3.4399,-3.4198,-3.4198,-3.3847,-3.3658,-3.3658,-3.347,-3.337,-3.337,-3.3169,-3.3224,-3.337,-3.337,-3.3483,-3.2402,-3.2318,-3.2218,-3.2218,-3.2218,-3.2218,-3.2218,-3.2694,-3.3292,-3.3758,-3.4421,-3.5294,-3.6549,-3.6229,-3.5977,-3.6702,-3.7181,-3.7458,-3.7485,-3.8532,-3.9278,-3.9305,-3.9305,-3.9305,-3.9305,-3.9305,0.0,-3.9305,0.0,-3.9305,-3.9336,-4.1029,-4.2032,-4.2073,-4.3717,-4.461,-4.461,-4.461,-4.461,-4.461,-4.461,-4.461,-4.461,-4.461,-4.4572,-4.4572,-4.4166,-4.3988,-4.3949,-4.3488,-4.329,-4.329,-4.329,-4.329,-4.329,-4.329,-4.329,-4.329,-4.329,-4.329,-4.329,-4.329,-4.329,-4.329,-4.329,-4.329,-4.329,-4.329,-4.329,-4.329,-4.329,-4.2659,-4.1769,-4.0817,-3.9899,-3.8957,-3.8103,-3.7703,-3.7413,-3.7155,-3.6862,-3.6628,-3.6452,-3.6405,-3.6405,-3.6405,-3.6405,-3.6405,-3.6405,-3.6405,-3.6405,-3.6405,-3.6405,-3.6157,-3.5583,-3.5545,-3.532,-3.4839,-3.4776,-3.4718,-3.4718,-3.4693,-3.468,-3.468,-3.4211,-3.3935,-3.3935,-3.342,-3.3432,-3.3935,-3.3935,-3.4223,-3.2274,-3.2227,-3.2218,-3.2218,-3.2218,-3.2218,-3.2218,-3.2983,-3.3634,-3.3349,-3.4937,-3.6147,-3.5441,-3.6018,-3.648,-3.6057,-3.6457,-3.6999,-3.7431,-3.8122,-3.8817,-3.9251,-3.9305,-3.9305,-3.9305,-3.9305,0.0,0.0,-3.9305,-3.9587,-4.023,-4.1394,-4.2319,-4.2966,-4.402,-4.461,-4.461,-4.461,-4.461,-4.461,-4.461,-4.461,-4.461,-4.461,-4.4511,-4.4358,-4.4089,-4.391,-4.3754,-4.3423,-4.329,-4.329,-4.329,-4.329,-4.329,-4.329,-4.329,-4.329,-4.329,-4.329,-4.329,-4.329,-4.329,-4.329,-4.329,-4.329,-4.329,-4.329,-4.329,-4.329,-4.329,-4.2659,-4.1769,-4.0817,-3.9899,-3.8957,-3.8103,-3.7703,-3.7413,-3.7155,-3.6781,-3.6452,-3.6405,-3.6405,-3.6405,-3.6405,-3.6405,-3.6405,-3.6405,-3.6405,-3.6405,-3.6405,-3.6405,-3.6355,-3.6157,-3.6157,-3.6094,-3.6003,-3.5554,-3.5295,-3.5295,-3.4893,-3.468,-3.468,-3.4587,-3.4512,-3.4512,-3.4374,-3.4374,-3.4512,-3.4512,-3.4587,-3.2218,-3.2218,-3.2218,-3.2218,-3.2218,-3.2286,-3.2544,-3.3311,-3.3987,-3.3918,-3.533,-3.6509,-3.6372,-3.639,-3.6536,-3.671,-3.6672,-3.6822,-3.7404,-3.8,-3.864,-3.9237,-3.9305,-3.9305,-3.9305,-3.9305,-3.9305,0.0,-3.9662,-4.0071,-4.0546,-4.1823,-4.279,-4.3284,-4.4135,-4.461,-4.461,-4.461,-4.461,-4.461,-4.461,-4.461,-4.461,-4.461,-4.4549,-4.4435,0.0,-4.3949,-4.3793,-4.3463,-4.329,-4.329,-4.329,-4.329,-4.329,-4.329,-4.329,-4.329,-4.329,-4.329,-4.329,-4.329,-4.329,-4.329,-4.329,-4.329,-4.329,-4.329,-4.329,-4.329,-4.329,-4.2659,-4.1769,-4.0817,-3.9899,-3.8957,-3.8103,-3.7703,-3.7413,-3.7015,-3.664,-3.6405,-3.6405,-3.6405,-3.6405,-3.6405,-3.6405,-3.6405,-3.6405,-3.6405,-3.6405,-3.6405,-3.6405,-3.6405,-3.6405,-3.6405,-3.6405,-3.6405,-3.6069,-3.5893,-3.5893,-3.5604,-3.5441,-3.5441,-3.5203,-3.5044,-3.5044,-3.4793,-3.4806,-3.5044,-3.5044,-3.5215,-3.2218,-3.2218,-3.2218,-3.2218,-3.2218,-3.2341,-3.2968,-3.3642,-3.4267,-3.4795,-3.5626,-3.6587,-3.7693,-3.6873,-3.6429,-3.7636,-3.7079,-3.6727,-3.739,-3.7933,-3.8545,-3.9224,-3.9305,-3.9305,-3.9305,-3.9305,-3.9305,-3.9305,-4.0114,-4.0646,-4.0774,-4.2275,-4.3245,-4.3482,-4.4212,-4.461,-4.461,-4.461,-4.461,-4.461,-4.461,-4.461,-4.461,-4.461,-4.4572,-4.4496,0.0,0.0,-4.3871,-4.3463,-4.329,-4.329,-4.329,-4.329,-4.329,-4.329,-4.329,-4.329,-4.329,-4.329,-4.329,-4.329,-4.329,-4.329,-4.329,-4.329,-4.329,-4.329,-4.329,-4.329,-4.329,-4.2739,-4.1935,-4.0986,-4.0073,-3.9135,-3.8272,-3.7736,-3.7307,-3.6815,-3.6534,-3.6405,-3.6405,-3.6405,-3.6405,-3.6405,-3.6405,-3.6405,-3.6405,-3.6405,-3.6405,-3.6405,-3.6405,-3.6405,-3.6405,-3.6405,-3.6405,-3.6405,-3.6405,-3.6405,-3.6405,-3.6405,-3.6405,-3.6405,-3.5893,-3.5608,-3.5608,-3.5132,-3.5132,-3.5608,-3.5608,-3.5906,-3.2218,-3.2218,-3.2218,-3.2218,-3.2218,-3.2363,-3.3028,-3.3668,-3.4157,-3.439,-3.5834,-3.6798,-3.5906,-3.6374,-3.6759,-3.6363,-3.6034,-3.6252,-3.7336,-3.758,-3.8055,-3.9169,-3.9305,-3.9305,-3.9305,-3.9305,0.0,0.0,0.0,-4.0944,-4.1728,-4.2058,-4.2886,-4.4328,-4.4534,-4.461,-4.461,-4.461,-4.461,-4.461,-4.461,-4.461,-4.461,-4.461,-4.4435,-4.4104,0.0,0.0,-4.3423,-4.3329,-4.329,-4.329,-4.329,-4.329,-4.329,-4.329,-4.329,-4.329,-4.329,-4.329,-4.329,-4.329,-4.329,-4.329,-4.329,-4.329,-4.329,-4.329,-4.329,-4.329,-4.329,-4.321,-4.2875,-4.199,-4.1029,-4.0116,-3.9166,-3.8037,-3.7062,-3.6756,-3.6534,-3.6405,-3.6405,-3.6405,-3.6405,-3.6405,-3.6405,-3.6405,-3.6405,-3.6405,-3.6405,-3.6405,-3.6405,-3.6405,-3.6405,-3.6405,-3.6405,-3.6405,-3.6405,-3.6405,-3.6405,-3.6405,-3.6405,-3.6405,-3.6317,-3.6267,-3.6267,-3.6166,-3.6166,-3.6267,-3.6267,-3.6317,-3.2218,-3.2218,-3.2218,-3.2218,-3.2218,-3.2454,-3.3457,-3.3959,-3.4419,-3.5165,-3.6166,-3.6768,-3.6472,-3.656,-3.6637,-3.6542,-3.6095,-3.6096,-3.6918,-3.7282,-3.7964,-3.9172,-3.9299,-3.9305,-3.9305,-3.9305,-3.9305,-3.9305,0.0,-4.0817,-4.1254,-4.2167,-4.3284,-4.4572,-4.461,-4.461,-4.461,-4.461,-4.461,-4.461,-4.461,-4.461,-4.461,-4.461,-4.4496,-4.4281,-4.4104,0.0,-4.366,-4.3409,-4.329,-4.329,-4.329,-4.329,-4.329,-4.329,-4.329,-4.329,-4.329,-4.329,-4.329,-4.329,-4.329,-4.329,-4.329,-4.329,-4.329,-4.329,-4.329,-4.329,-4.329,-4.329,-4.309,-4.2211,-4.0901,-3.9724,-3.9179,-3.8037,-3.7015,-3.6769,-3.6534,-3.6405,-3.6405,-3.6405,-3.6405,-3.6405,-3.6405,-3.6405,-3.6405,-3.6405,-3.6405,-3.6405,-3.6405,-3.6405,-3.6405,-3.6405,-3.6405,-3.6405,-3.6405,-3.6405,-3.6405,-3.6405,-3.6405,-3.6405,-3.6405,-3.6405,-3.6405,-3.6405,-3.6405,-3.6405,-3.6405,-3.6405,-3.2218,-3.2218,-3.2218,-3.2218,-3.2218,-3.2531,-3.3831,-3.4215,-3.4693,-3.6058,-3.645,-3.6661,-3.7184,-3.6741,-3.6442,-3.6801,-3.631,-3.6059,-3.6552,-3.7134,-3.7952,-3.9141,-3.9292,-3.9305,-3.9305,-3.9305,0.0,-3.9305,0.0,0.0,-4.1141,-4.268,-4.3888,-4.4572,-4.461,-4.461,-4.461,-4.461,-4.461,-4.461,-4.461,-4.461,-4.461,-4.461,-4.4587,-4.4511,-4.4205,0.0,0.0,-4.3542,-4.3344,-4.329,-4.329,-4.329,-4.329,-4.329,-4.329,-4.329,-4.329,-4.329,-4.329,-4.329,-4.329,-4.329,-4.329,-4.329,-4.329,-4.329,-4.329,-4.329,-4.329,-4.329,-4.309,-4.2211,-4.0675,-3.9329,-3.8984,-3.7913,-3.6956,-3.6722,-3.6534,-3.6405,-3.6405,-3.6405,-3.6405,-3.6405,-3.6405,-3.6405,-3.6405,-3.6405,-3.6405,-3.6405,-3.6405,-3.6405,-3.6405,-3.6405,-3.6405,-3.6405,-3.6405,-3.6405,-3.6405,-3.6405,-3.6405,-3.6405,-3.6405,-3.6405,-3.6405,-3.6405,-3.6405,-3.6405,-3.6405,-3.6405,-3.2218,-3.2218,-3.2218,-3.2218,-3.2218,-3.2566,-3.3942,-3.4274,-3.4695,-3.6193,-3.6491,-3.6507,-3.6569,-3.6423,-3.6274,-3.6214,-3.6017,-3.6059,-3.6552,-3.7134,-3.7952,-3.9141,-3.9292,-3.9305,-3.9305,-3.9305,-3.9305,-3.9305,0.0,0.0,-4.2951,-4.3966,-4.4534,-4.461,-4.461,-4.461,-4.461,-4.461,-4.461,-4.461,-4.461,-4.461,-4.461,-4.461,-4.4496,-4.432,0.0,0.0,0.0,-4.369,-4.3518,-4.329,-4.329,-4.329,-4.329,-4.329,-4.329,-4.329,-4.329,-4.329,-4.329,-4.329,-4.329,-4.329,-4.329,-4.329,-4.329,-4.329,-4.329,-4.329,-4.329,-4.329,-4.309,-4.2211,-4.1042,-3.9871,-3.906,-3.7763,-3.6722,-3.6709,-3.6534,-3.6405,-3.6405,-3.6405,-3.6405,-3.6405,-3.6405,-3.6405,-3.6405,-3.6405,-3.6405,-3.6405,-3.6405,-3.6405,-3.6405,-3.6405,-3.6405,-3.6405,-3.6405,-3.6405,-3.6405,-3.6405,-3.6405,-3.6405,-3.6405,-3.6405,-3.6405,-3.6405,-3.6405,-3.6405,-3.6405,-3.6405,-3.211,-3.2218,-3.2218,-3.2218,-3.2218,-3.2588,-3.3973,-3.4312,-3.4714,-3.6179,-3.6492,-3.6492,-3.6492,-3.6472,-3.6345,-3.6139,-3.6446,-3.6749,-3.6779,-3.7605,-3.8228,-3.8227,-3.8844,-3.9305,-3.9305,0.0,-3.9499,0.0,0.0,0.0,-4.319,-4.3654,-4.4058,-4.4572,-4.461,-4.461,-4.461,-4.461,-4.461,-4.461,-4.461,-4.461,-4.461,-4.461,-4.4549,-4.4473,0.0,0.0,0.0,-4.3808,-4.3636,-4.3518,-4.3384,-4.329,-4.329,-4.329,-4.329,-4.329,-4.329,-4.329,-4.329,-4.329,-4.329,-4.329,-4.329,-4.329,-4.329,-4.329,-4.329,-4.329,-4.329,-4.329,-4.321,-4.2875,-4.1843,-4.0814,-4.0085,-3.881,-3.7612,-3.7049,-3.7095,-3.7036,-3.6499,-3.6405,-3.6405,-3.6405,-3.6405,-3.6405,-3.6405,-3.6405,-3.6405,-3.6405,-3.6405,-3.6405,-3.6405,-3.6405,-3.6405,-3.6405,-3.6405,-3.6405,-3.6405,-3.6405,-3.6405,-3.6405,-3.6405,-3.6405,-3.6405,-3.6405,-3.6405,-3.6405,-3.6405,-3.6405,-3.2055,-3.2218,-3.2218,-3.2218,-3.2336,-3.281,-3.4007,-3.448,-3.4993,-3.6242,-3.6492,-3.6492,-3.6492,-3.6492,-3.6495,-3.6447,-3.6722,-3.6915,-3.6908,-3.7723,-3.8145,-3.7579,-3.8556,-3.9305,-3.9305,-3.9305,-3.9543,0.0,0.0,0.0,0.0,-4.3165,-4.3693,-4.4572,-4.461,-4.461,-4.461,-4.461,-4.461,-4.461,-4.461,-4.461,-4.461,-4.461,-4.461,-4.4572,0.0,0.0,0.0,-4.391,-4.3729,-4.3557,-4.3384,-4.329,-4.329,-4.329,-4.329,-4.329,-4.329,-4.329,-4.329,-4.329,-4.329,-4.329,-4.329,-4.329,-4.329,-4.329,-4.329,-4.329,-4.329,-4.329,-4.329,-4.329,-4.2398,-4.1412,-4.0972,-3.9842,-3.8585,-3.7579,-3.7887,-3.7919,-3.6628,-3.664,-3.6722,-3.6452,-3.6405,-3.6405,-3.6405,-3.6405,-3.6405,-3.6405,-3.6405,-3.6405,-3.6405,-3.6405,-3.6405,-3.6405,-3.6405,-3.6405,-3.6405,-3.6405,-3.6405,-3.6405,-3.6405,-3.6405,-3.6405,-3.6405,-3.6405,-3.6405,-3.6405,-3.6405,-3.2055,-3.2218,-3.2218,-3.2218,-3.2704,-3.3388,-3.4143,-3.4846,-3.5608,-3.6352,-3.6492,-3.6492,-3.6492,-3.6492,-3.6654,-3.7218,-3.6632,-3.6294,-3.6845,-3.7236,-3.7485,-3.7485,-3.8586,-3.9305,-3.9305,-3.9305,0.0,0.0,0.0,0.0,0.0,-4.2845,-4.3693,-4.4572,-4.461,-4.461,-4.461,-4.461,-4.461,-4.461,-4.461,-4.461,-4.461,-4.461,-4.461,0.0,0.0,0.0,0.0,-4.3988,-4.3699,-4.329,-4.329,-4.329,-4.329,-4.329,-4.329,-4.329,-4.329,-4.329,-4.329,-4.329,-4.329,-4.329,-4.329,-4.329,-4.329,-4.329,-4.329,-4.329,-4.329,-4.329,-4.329,-4.329,-4.2426,-4.1601,-4.1587,-4.0703,-3.9536,-3.8334,-3.8845,-3.8845,-3.6756,-3.7176,-3.7453,-3.6546,-3.6405,-3.6405,-3.6405,-3.6405,-3.6405,-3.6405,-3.6405,-3.6405,-3.6405,-3.6405,-3.6405,-3.6405,-3.6405,-3.6405,-3.6405,-3.6405,-3.6405,-3.6405,-3.6405,-3.6405,-3.6405,-3.6405,-3.6405,-3.6405,-3.6405,-3.6405,-3.2055,-3.2218,-3.2314,-3.2761,-3.3052,-3.3526,-3.478,-3.5222,-3.5608,-3.6352,-3.6492,-3.6492,-3.6492,-3.6492,-3.6701,-3.7203,-3.707,-3.7093,-3.7627,-3.807,-3.8519,-3.9046,-3.9229,-3.9305,0.0,0.0,0.0,0.0,0.0,0.0,0.0,-4.2278,-4.3086,-4.4534,-4.461,-4.461,-4.461,-4.461,-4.461,-4.461,-4.461,-4.461,-4.461,-4.461,0.0,0.0,0.0,0.0,0.0,-4.4089,-4.3895,-4.3738,-4.3423,-4.329,-4.329,-4.329,-4.329,-4.329,-4.329,-4.329,-4.329,-4.329,-4.329,-4.329,-4.329,-4.329,-4.329,-4.329,-4.329,-4.329,-4.329,-4.329,-4.329,-4.329,-4.2394,-4.161,-4.1809,-4.1478,-4.076,-3.9536,-3.9434,-3.9023,-3.7612,-3.7083,-3.6722,-3.6452,-3.6405,-3.6405,-3.6405,-3.6405,-3.6405,-3.6405,-3.6405,-3.6405,-3.6405,-3.6405,-3.6405,-3.6405,-3.6405,-3.6405,-3.6405,-3.6405,-3.6405,-3.6405,-3.6405,-3.6405,-3.6405,-3.6405,-3.6405,-3.6405,-3.6405,-3.6405,-3.2407,-3.2574,-3.2725,-3.3422,-3.3837,-3.4279,-3.519,-3.5608,-3.5943,-3.6429,-3.6492,-3.6492,-3.6492,-3.6492,-3.6765,-3.7604,-3.7496,-3.748,-3.8023,-3.8439,-3.8961,-3.962,-3.9447,0.0,0.0,0.0,0.0,0.0,0.0,0.0,0.0,-4.2319,-4.3126,-4.4572,-4.461,-4.461,-4.461,-4.461,-4.461,-4.461,-4.461,-4.461,-4.461,-4.461,0.0,0.0,0.0,0.0,0.0,-4.4205,-4.4026,-4.3871,-4.3557,-4.3384,-4.329,-4.329,-4.329,-4.329,-4.329,-4.329,-4.329,-4.329,-4.329,-4.329,-4.329,-4.329,-4.329,-4.329,-4.329,-4.329,-4.329,-4.329,-4.329,-4.329,-4.2746,-4.2228,-4.2426,-4.2333,-4.1825,-4.0646,-4.0504,-4.0015,-3.8115,-3.7625,-3.7209,-3.6499,-3.6405,-3.6405,-3.6405,-3.6405,-3.6405,-3.6405,-3.6405,-3.6405,-3.6405,-3.6405,-3.6405,-3.6405,-3.6405,-3.6405,-3.6405,-3.6405,-3.6405,-3.6405,-3.6405,-3.6405,-3.6405,-3.6405,-3.6405,-3.6405,-3.6405,-3.6405,0.0,-3.3157,-3.3332,-3.4109,-3.4828,-3.5367,-3.5464,-3.6022,0.0,-3.6492,-3.6492,-3.6492,-3.6492,-3.6492,-3.6938,-3.8292,-3.7797,-3.741,-3.8038,-3.8399,-3.8797,-3.9244,-3.9305,0.0,-3.9305,0.0,0.0,0.0,0.0,0.0,0.0,-4.2845,-4.3693,-4.4572,-4.461,-4.461,-4.461,-4.461,-4.461,-4.461,-4.461,-4.461,-4.461,-4.461,0.0,0.0,0.0,0.0,0.0,-4.4281,-4.4065,-4.3729,-4.3675,-4.3518,-4.329,-4.329,-4.329,-4.329,-4.329,-4.329,-4.329,-4.329,-4.329,-4.329,-4.329,-4.329,-4.329,-4.329,-4.329,-4.329,-4.329,-4.329,-4.329,-4.329,-4.329,-4.329,-4.329,-4.3155,-4.2684,-4.1589,-4.1895,-4.1381,-3.8419,-3.8581,-3.849,-3.6675,-3.6405,-3.6405,-3.6405,-3.6405,-3.6405,-3.6405,-3.6405,-3.6405,-3.6405,-3.6405,-3.6405,-3.6405,-3.6405,-3.6405,-3.6405,-3.6405,-3.6405,-3.6405,-3.6405,-3.6405,-3.6405,-3.6405,-3.6405,-3.6405,-3.6405,-3.6405,-3.303,0.0,-3.2739,-3.3973,-3.4447,-3.4846,0.0,-3.6398,-3.6492,-3.6492,-3.6492,-3.6492,-3.6492,-3.6492,-3.6938,-3.8292,-3.7306,-3.6786,-3.7926,-3.791,-3.8162,-3.9156,-3.9305,-3.9305,0.0,0.0,0.0,0.0,0.0,0.0,0.0,-4.2845,-4.3693,-4.4572,-4.461,-4.461,-4.461,-4.461,-4.461,-4.461,-4.461,-4.461,-4.461,-4.461,0.0,0.0,0.0,0.0,-4.4511,-4.4205,-4.4026,-4.391,-4.3542,-4.3384,-4.329,-4.329,-4.329,-4.329,-4.329,-4.329,-4.329,-4.329,-4.329,-4.329,-4.329,-4.329,-4.329,-4.329,-4.329,-4.329,-4.329,-4.329,-4.329,-4.329,-4.329,-4.329,-4.329,-4.3155,-4.286,-4.2456,-4.1798,-4.0816,-3.9166,-3.847,-3.7723,-3.6597,-3.6405,-3.6405,-3.6405,-3.6405,-3.6405,-3.6405,-3.6405,-3.6405,-3.6405,-3.6405,-3.6405,-3.6405,-3.6405,-3.6405,-3.6405,-3.6405,-3.6405,-3.6405,-3.6405,-3.6405,-3.6405,-3.6405,-3.6405,-3.6405,-3.6405,-3.6405,-3.2632,-3.2704,-3.2995,-3.4447,-3.4547,-3.4681,-3.6148,-3.6258,-3.6085,-3.6429,-3.6492,-3.6492,-3.6492,-3.6439,-3.6732,-3.7764,-3.7476,-3.7528,-3.8768,-3.8085,-3.7933,-3.9169,-3.9305,0.0,0.0,0.0,0.0,0.0,0.0,0.0,0.0,-4.2845,-4.3693,-4.4572,-4.461,-4.461,-4.461,-4.461,-4.461,-4.461,-4.461,-4.461,-4.461,-4.461,0.0,0.0,0.0,0.0,-4.4587,-4.4281,-4.4089,-4.3988,-4.3636,-4.3423,-4.329,-4.329,-4.329,-4.329,-4.329,-4.329,-4.329,-4.329,-4.329,-4.329,-4.329,-4.329,-4.329,-4.329,-4.329,-4.329,-4.329,-4.329,-4.329,-4.329,-4.329,-4.329,-4.329,-4.3155,-4.2996,-4.2835,-4.2184,-4.1156,-3.9579,-3.8863,-3.7964,-3.6619,-3.6405,-3.6405,-3.6405,-3.6405,-3.6405,-3.6405,-3.6405,-3.6405,-3.6405,-3.6405,-3.6405,-3.6405,-3.6405,-3.6405,-3.6405,-3.6405,-3.6405,-3.6405,-3.6405,-3.6405,-3.6405,-3.6405,-3.6405,-3.6405,-3.6405,-3.6405,-3.2218,-3.2596,-3.3367,-3.4728,-3.4681,-3.4614,-3.5879,-3.5832,-3.5705,-3.6226,-3.6429,-3.6491,-3.649,-3.6388,-3.6511,-3.7168,-3.7733,-3.8473,-3.9574,-3.8504,-3.8088,-3.9332,-3.9526,0.0,0.0,0.0,0.0,0.0,0.0,0.0,0.0,-4.2845,-4.3693,-4.4572,-4.461,-4.461,-4.461,-4.461,-4.461,-4.461,-4.461,-4.461,-4.461,-4.461,-4.461,0.0,0.0,0.0,-4.4572,-4.4396,-4.4166,-4.3988,-4.3769,-4.3557,-4.329,-4.329,-4.329,-4.329,-4.329,-4.329,-4.329,-4.329,-4.329,-4.329,-4.329,-4.329,-4.329,-4.329,-4.329,-4.329,-4.329,-4.329,-4.329,-4.329,-4.329,-4.329,-4.329,-4.3155,-4.2981,-4.2955,-4.2648,-4.1798,-4.0002,-3.9536,-3.8751,-3.6909,-3.6628,-3.6546,-3.6405,-3.6405,-3.6405,-3.6405,-3.6405,-3.6405,-3.6405,-3.6405,-3.6405,-3.6405,-3.6405,-3.6405,-3.6405,-3.6405,-3.6405,-3.6405,-3.6405,-3.6405,-3.6405,-3.6405,-3.6405,-3.6405,-3.6405,-3.6405,-3.2218,-3.2277,-3.2538,-3.3332,-3.3925,-3.4346,-3.4581,-3.5529,-3.6179,-3.5672,-3.6085,-3.6457,-3.6363,-3.6297,-3.649,-3.704,-3.7103,-3.7519,0.0,0.0,-3.8609,-4.0191,0.0,0.0,0.0,0.0,0.0,0.0,0.0,0.0,0.0,0.0,-4.3693,-4.4572,-4.461,-4.461,-4.461,-4.461,-4.461,-4.461,-4.461,-4.461,-4.461,-4.461,-4.461,0.0,0.0,-4.461,-4.4572,-4.4396,-4.4166,-4.3988,-4.3769,-4.3557,-4.329,-4.329,-4.329,-4.329,-4.329,-4.329,-4.329,-4.329,-4.329,-4.329,-4.329,-4.329,-4.329,-4.329,-4.329,-4.329,-4.329,-4.329,-4.329,-4.329,-4.329,-4.329,-4.329,-4.3155,-4.2955,-4.2769,-4.2541,-4.1978,-4.0646,-4.0418,-3.9768,-3.7887,-3.7592,-3.7315,-3.6499,-3.6405,-3.6405,-3.6405,-3.6405,-3.6405,-3.6405,-3.6405,-3.6405,-3.6405,-3.6405,-3.6405,-3.6405,-3.6405,-3.6405,-3.6405,-3.6405,-3.6405,-3.6405,-3.6405,-3.6405,-3.6405,-3.6405,-3.6405,-3.2218,-3.2218,-3.2277,-3.2561,-3.2903,-3.3381,-3.4143,-3.4514,-3.4714,-3.478,-3.54,-3.5868,-3.5735,-3.6353,-3.7005,-3.7572,-3.7575,-3.7685,-3.8145,-3.8718,-3.9322,0.0,0.0,0.0,0.0,0.0,0.0,0.0,0.0,0.0,0.0,0.0,-4.3693,-4.4572,-4.461,-4.461,-4.461,-4.461,-4.461,-4.461,-4.461,-4.461,-4.461,-4.461,-4.461,-4.461,0.0,-4.461,-4.4572,-4.4396,-4.4243,-4.4127,-4.3832,-4.3596,-4.3518,-4.3344,-4.329,-4.329,-4.329,-4.329,-4.329,-4.329,-4.329,-4.329,-4.329,-4.329,-4.329,-4.329,-4.329,-4.329,-4.329,-4.329,-4.329,-4.329,-4.329,-4.329,-4.329,-4.325,-4.3076,-4.2915,-4.2688,-4.2199,-4.1015,-4.0703,-4.0116,-3.8765,-3.8554,-3.8419,-3.7965,-3.7487,-3.7176,-3.7176,-3.6675,-3.6405,-3.6405,-3.6405,-3.6405,-3.6405,-3.6405,-3.6405,-3.6405,-3.6405,-3.6405,-3.6405,-3.6405,-3.6405,-3.6405,-3.6405,-3.6405,-3.6405,-3.6405,-3.6405,-3.2218,-3.2218,-3.2218,-3.2218,-3.2314,-3.2682,-3.361,-3.363,-3.3561,-3.3973,-3.4731,-3.5307,-3.5198,-3.6268,-3.7344,-3.7768,-3.7988,-3.803,-3.7831,-3.8893,-3.9701,0.0,0.0,0.0,0.0,0.0,0.0,0.0,0.0,0.0,0.0,0.0,-4.3693,-4.4572,-4.461,-4.461,-4.461,-4.461,-4.461,-4.461,-4.461,-4.461,-4.461,-4.461,-4.461,-4.461,-4.461,-4.461,-4.4587,-4.4435,-4.4358,-4.4281,-4.3949,-4.3754,-4.369,-4.3384,-4.329,-4.329,-4.329,-4.329,-4.329,-4.329,-4.329,-4.329,-4.329,-4.329,-4.329,-4.329,-4.329,-4.329,-4.329,-4.329,-4.329,-4.329,-4.329,-4.329,-4.329,-4.329,-4.325,-4.3036,-4.2875,-4.247,-4.1506,-4.1156,-4.0689,-3.9681,-3.9505,-3.9461,-3.9241,-3.8373,-3.7808,-3.7808,-3.6956,-3.6405,-3.6405,-3.6405,-3.6405,-3.6405,-3.6405,-3.6405,-3.6405,-3.6405,-3.6405,-3.6405,-3.6405,-3.6405,-3.6405,-3.6405,-3.6405,-3.6405,-3.6405,-3.6405,-3.2218,-3.2218,-3.2218,-3.2218,-3.2668,-3.2995,-3.248,-3.3311,-3.4027,-3.3422,-3.4329,-3.5177,-3.506,-3.6071,-3.694,-3.6986,-3.7625,-3.803,-3.7831,0.0,0.0,0.0,0.0,0.0,0.0,0.0,0.0,0.0,0.0,0.0,0.0,0.0,0.0,-4.4572,-4.461,-4.461,-4.461,-4.461,-4.461,-4.461,-4.461,-4.461,-4.461,-4.461,-4.461,-4.461,-4.461,-4.461,-4.461,-4.4572,-4.4473,-4.4281,-4.4281,-4.4026,-4.369,-4.3384,-4.329,-4.329,-4.329,-4.329,-4.329,-4.329,-4.329,-4.329,-4.329,-4.329,-4.329,-4.329,-4.329,-4.329,-4.329,-4.329,-4.329,-4.329,-4.329,-4.329,-4.329,-4.329,-4.325,-4.3036,-4.2996,-4.2835,-4.2377,-4.2295,-4.1854,-4.0689,-4.0504,-4.0159,-3.9285,-3.8373,-3.7808,-3.7808,-3.6956,-3.6405,-3.6405,-3.6405,-3.6405,-3.6405,-3.6405,-3.6405,-3.6405,-3.6405,-3.6405,-3.6405,-3.6405,-3.6405,-3.6405,-3.6405,-3.6405,-3.6405,-3.6405,-3.6405,-3.2218,-3.2218,-3.2218,-3.2218,-3.2372,-3.2503,-3.2241,-3.2938,-3.3536,-3.3209,-3.3878,-3.4868,-3.6076,-3.7037,-3.7663,-3.7663,-3.8339,-3.8464,0.0,0.0,0.0,0.0,0.0,0.0,0.0,0.0,0.0,0.0,0.0,0.0,0.0,0.0,0.0,-4.4572,-4.461,-4.461,-4.461,-4.461,-4.461,-4.461,-4.461,-4.461,-4.461,-4.461,-4.461,-4.461,-4.461,-4.461,-4.461,-4.461,-4.4549,-4.4473,-4.4358,-4.4065,-4.369,-4.3596,-4.3423,-4.329,-4.329,-4.329,-4.329,-4.329,-4.329,-4.329,-4.329,-4.329,-4.329,-4.329,-4.329,-4.329,-4.329,-4.329,-4.329,-4.329,-4.329,-4.329,-4.329,-4.329,-4.325,-4.3036,-4.2981,-4.2875,-4.2474,-4.2392,-4.2213,-4.1619,-4.1535,-4.1395,-4.1057,-3.9621,-3.8675,-3.8675,-3.7302,-3.6405,-3.6405,-3.6405,-3.6405,-3.6405,-3.6405,-3.6405,-3.6405,-3.6405,-3.6405,-3.6405,-3.6405,-3.6405,-3.6405,-3.6405,-3.6405,-3.6405,-3.6405,-3.6405,-3.2218,-3.2218,-3.2218,-3.2218,-3.2336,-3.248,-3.2241,-3.2561,-3.2941,-3.3077,-3.3771,-3.4794,-3.6382,-3.7248,-3.7738,0.0,-3.8598,-3.8833,0.0,0.0,0.0,0.0,0.0,0.0,0.0,0.0,0.0,0.0,0.0,0.0,0.0,0.0,0.0,0.0,-4.4302,-4.4409,-4.461,-4.461,-4.461,-4.461,-4.461,-4.461,-4.461,-4.461,-4.461,-4.461,-4.461,-4.461,-4.461,-4.461,-4.461,-4.4587,-4.4396,-4.4104,-4.3808,-4.3729,-4.3518,-4.329,-4.329,-4.329,-4.329,-4.329,-4.329,-4.329,-4.329,-4.329,-4.329,-4.329,-4.329,-4.329,-4.329,-4.329,-4.329,-4.329,-4.329,-4.329,-4.329,-4.329,-4.325,-4.3036,-4.2981,-4.2875,-4.2474,-4.2392,-4.231,-4.2133,-4.2092,-4.2092,-4.2092,-4.0674,-3.9417,-3.881,-3.7348,-3.6405,-3.6405,-3.6405,-3.6405,-3.6405,-3.6405,-3.6405,-3.6405,-3.6405,-3.6405,-3.6405,-3.6405,-3.6405,-3.6405,-3.6405,-3.6405,-3.6405,-3.6405,-3.6405,-3.2218,-3.2218,-3.2218,-3.2218,-3.2704,-3.303,-3.2336,-3.2218,-3.2395,-3.2993,-3.4014,-3.5018,-3.5601,-3.6362,-3.6922,-3.6922,-3.8264,0.0,0.0,0.0,0.0,0.0,0.0,0.0,0.0,0.0,0.0,0.0,0.0,0.0,0.0,0.0,0.0,0.0,0.0,0.0,-4.4594,-4.461,-4.461,-4.461,-4.461,-4.461,-4.461,-4.461,-4.461,-4.461,-4.461,-4.461,-4.461,-4.461,-4.461,-4.4587,-4.4396,-4.4166,-4.3988,-4.3754,-4.3518,-4.329,-4.329,-4.329,-4.329,-4.329,-4.329,-4.329,-4.329,-4.329,-4.329,-4.329,-4.329,-4.329,-4.329,-4.329,-4.329,-4.329,-4.329,-4.329,-4.329,-4.329,-4.325,-4.3036,-4.2981,-4.2875,-4.2459,-4.2392,-4.231,-4.2133,-4.2092,-4.2092,-4.2092,-4.1212,-3.9899,-3.8024,-3.6989,-3.6405,-3.6405,-3.6405,-3.6405,-3.6405,-3.6405,-3.6405,-3.6405,-3.6405,-3.6405,-3.6405,-3.6405,-3.6405,-3.6405,-3.6405,-3.6405,-3.6405,-3.6405,-3.6405,-3.2218,-3.2218,-3.2218,-3.2218,-3.2336,-3.2408,-3.2059,-3.2782,-3.3688,-3.4197,-3.5788,-3.6991,-3.6635,-3.7663,-3.8613,-3.8613,-3.8979,0.0,0.0,0.0,0.0,0.0,0.0,0.0,0.0,0.0,0.0,0.0,0.0,0.0,0.0,0.0,0.0,0.0,0.0,0.0,-4.3901,-4.3917,-4.4148,-4.461,-4.461,-4.461,-4.461,-4.461,-4.461,-4.461,-4.461,-4.461,-4.461,-4.461,-4.461,-4.4587,-4.4396,-4.4166,-4.3988,-4.3754,-4.3518,-4.329,-4.329,-4.329,-4.329,-4.329,-4.329,-4.329,-4.329,-4.329,-4.329,-4.329,-4.329,-4.329,-4.329,-4.329,-4.329,-4.329,-4.329,-4.329,-4.329,-4.329,-4.329,-4.321,-4.321,-4.309,-4.2688,-4.2622,-4.25,-4.2133,-4.2092,-4.1856,-4.1156,-4.0774,-4.0116,-3.8899,-3.8541,-3.8102,-3.7441,-3.7361,-3.7083,-3.6452,-3.6405,-3.6405,-3.6405,-3.6405,-3.6405,-3.6405,-3.6405,-3.6405,-3.6405,-3.6405,-3.6405,-3.6405,-3.6405,-3.6405,-3.2218,-3.2146,-3.2073,-3.2073,-3.2036,-3.1981,-3.2112,-3.2979,-3.4028,-3.4951,-3.6356,-3.7357,-3.7208,-3.8032,0.0,-3.9169,0.0,0.0,0.0,0.0,0.0,0.0,0.0,0.0,0.0,0.0,0.0,0.0,0.0,0.0,0.0,0.0,0.0,0.0,0.0,0.0,-4.3187,-4.3187,-4.3387,-4.3802,-4.3802,-4.3925,-4.4225,-4.4486,-4.461,-4.461,-4.461,-4.461,-4.461,-4.461,-4.461,-4.4587,-4.4473,-4.4243,-4.3988,-4.3871,-4.3596,-4.329,-4.329,-4.329,-4.329,-4.329,-4.329,-4.329,-4.329,-4.329,-4.329,-4.329,-4.329,-4.329,-4.329,-4.329,-4.329,-4.329,-4.329,-4.329,-4.329,-4.329,-4.329,-4.321,-4.317,-4.309,-4.2769,-4.2607,-4.2514,-4.2242,-4.2133,-4.1856,-4.1254,-4.0831,-4.0375,-3.9812,-3.9417,-3.8988,-3.8419,-3.8373,-3.8109,-3.7549,-3.7492,-3.7333,-3.6963,-3.6587,-3.6405,-3.6405,-3.6405,-3.6405,-3.6405,-3.6405,-3.6405,-3.6405,-3.6405,-3.6405,-3.2182,-3.2036,-3.1853,-3.1853,-3.1706,-3.1742,-3.235,-3.2899,-3.3727,-3.5328,-3.6083,-3.6702,-3.7567,-3.7924,-3.8337,0.0,0.0,0.0,0.0,0.0,0.0,0.0,0.0,0.0,0.0,0.0,0.0,0.0,0.0,0.0,0.0,0.0,0.0,0.0,0.0,0.0,-4.2509,-4.2525,-4.254,0.0,-4.2602,-4.291,-4.3531,-4.4209,-4.4548,-4.461,-4.461,-4.461,-4.461,-4.461,-4.461,-4.461,-4.4587,-4.4358,-4.4026,-4.3988,-4.3699,-4.3329,-4.329,-4.329,-4.329,-4.329,-4.329,-4.329,-4.329,-4.329,-4.329,-4.329,-4.329,-4.329,-4.329,-4.329,-4.329,-4.329,-4.329,-4.329,-4.329,-4.329,-4.325,-4.3076,-4.3036,-4.2955,-4.2729,-4.2541,-4.2392,-4.2392,-4.2201,-4.2092,-4.2092,-4.1296,-4.0731,-4.0731,-3.9942,-3.9431,-3.9343,-3.9343,-3.9288,-3.9199,-3.9199,-3.8841,-3.7974,-3.7049,-3.6487,-3.6405,-3.6405,-3.6405,-3.6405,-3.6405,-3.6405,-3.6405,-3.6405,-3.6405,-3.1963,-3.1817,-3.1646,-3.1646,-3.1522,-3.1572,-3.2268,-3.2631,-3.3356,-3.5186,-3.6455,-3.7525,-3.8397,-3.909,-3.9625,0.0,0.0,0.0,0.0,0.0,0.0,0.0,0.0,0.0,0.0,0.0,0.0,0.0,0.0,0.0,0.0,0.0,0.0,0.0,0.0,-4.1093,-4.1817,-4.1817,-4.2078,0.0,-4.2602,-4.2679,-4.2833,-4.3531,-4.4117,-4.461,-4.461,-4.461,-4.461,-4.461,-4.461,-4.4572,-4.4435,-4.432,-4.4205,-4.3871,-4.369,-4.3596,-4.3384,-4.329,-4.329,-4.329,-4.329,-4.329,-4.329,-4.329,-4.329,-4.329,-4.329,-4.329,-4.329,-4.329,-4.329,-4.329,-4.329,-4.329,-4.329,-4.329,-4.329,-4.325,-4.325,-4.313,-4.2769,-4.2648,-4.2541,-4.2201,-4.2133,-4.2092,-4.2092,-4.1912,-4.1773,-4.1773,-4.1591,-4.1184,-4.0389,-4.0284,-3.9977,-3.9261,-3.9196,-3.9116,-3.8916,-3.8025,-3.714,-3.6405,-3.6405,-3.6405,-3.6405,-3.6405,-3.6405,-3.6405,-3.6405,-3.6405,-3.189,-3.1656,-3.1434,-3.1336,-3.1248,-3.1334,-3.2078,-3.2559,-3.3419,-3.5447,-3.658,-3.7601,-3.887,-3.9517,0.0,0.0,0.0,0.0,0.0,0.0,0.0,0.0,0.0,0.0,0.0,0.0,0.0,0.0,0.0,0.0,0.0,-4.0489,0.0,0.0,-4.0489,-4.0674,-4.1078,-4.1078,-4.1263,-4.1601,-4.1601,-4.1786,-4.2155,-4.3162,-4.3793,-4.4148,-4.4471,-4.461,-4.461,-4.461,-4.461,-4.4587,-4.4396,-4.4243,-4.4127,-4.3793,-4.3596,-4.3503,-4.3344,-4.329,-4.329,-4.329,-4.329,-4.329,-4.329,-4.329,-4.329,-4.329,-4.329,-4.329,-4.329,-4.329,-4.329,-4.329,-4.329,-4.329,-4.329,-4.329,-4.329,-4.329,-4.329,-4.321,-4.301,-4.2809,-4.2581,-4.2175,-4.2092,-4.2092,-4.2092,-4.2092,-4.2092,-4.2092,-4.2092,-4.1912,-4.1339,-4.134,-4.1086,-4.0603,-4.0576,-4.0178,-3.9231,-3.8745,-3.8042,-3.7071,-3.662,-3.6405,-3.6405,-3.6405,-3.6405,-3.6405,-3.6405,-3.6405,-3.1817,-3.1545,-3.1198,-3.1061,-3.0986,-3.1161,-3.1773,-3.2465,-3.3555,-3.554,-3.6482,-3.7458,-3.909,0.0,0.0,0.0,0.0,0.0,0.0,0.0,0.0,0.0,0.0,0.0,0.0,0.0,0.0,0.0,0.0,0.0,-4.0489,-4.0489,-4.0489,-4.0489,-4.0489,-4.0489,-4.0489,-4.0489,-4.0489,-4.0489,-4.0489,-4.0797,-4.1447,-4.2679,-4.3331,-4.347,-4.4148,-4.444,-4.4456,-4.4564,-4.461,-4.4572,-4.4435,-4.4243,-4.4026,-4.3847,-4.3596,-4.3384,-4.3329,-4.329,-4.329,-4.329,-4.329,-4.329,-4.329,-4.329,-4.329,-4.329,-4.329,-4.329,-4.329,-4.329,-4.329,-4.329,-4.329,-4.329,-4.329,-4.329,-4.329,-4.329,-4.325,-4.325,-4.325,-4.293,-4.2581,-4.2216,-4.2133,-4.2133,-4.2092,-4.2092,-4.2092,-4.2092,-4.2092,-4.2092,-4.2092,-4.2092,-4.2092,-4.2092,-4.2092,-4.1369,-3.9746,-3.9369,-3.883,-3.8082,-3.6937,-3.6405,-3.6405,-3.6405,-3.6405,-3.6405,-3.6405,-3.6405,-3.1434,-3.1198,-3.1024,-3.1024,-3.0986,-3.1024,-3.1123,-3.2121,-3.3283,-3.4289,-3.5912,-3.7616,0.0,0.0,0.0,0.0,0.0,0.0,0.0,0.0,0.0,0.0,0.0,0.0,0.0,0.0,0.0,0.0,0.0,0.0,-4.0489,-4.0489,-4.0489,-4.0489,-4.0489,-4.0489,-4.0489,-4.0489,-4.0489,-4.0489,-4.0489,-4.0551,-4.0659,-4.1494,-4.2171,-4.2771,-4.3454,-4.3747,-4.3793,-4.4379,-4.461,-4.461,-4.4572,-4.4435,-4.4243,-4.4011,-4.3832,-4.3596,-4.3384,-4.329,-4.329,-4.329,-4.329,-4.329,-4.329,-4.329,-4.329,-4.329,-4.329,-4.329,-4.329,-4.329,-4.329,-4.329,-4.329,-4.329,-4.329,-4.329,-4.329,-4.329,-4.3155,-4.3036,-4.3036,-4.2835,-4.2607,-4.2392,-4.2351,-4.2284,-4.2133,-4.2092,-4.2092,-4.2092,-4.2092,-4.2092,-4.2092,-4.2092,-4.2092,-4.2092,-4.2092,-4.197,-4.1736,-4.0085,-3.9132,-3.9027,-3.7309,-3.6405,-3.6405,-3.6405,-3.6405,-3.6405,-3.6405,-3.6405,-3.1823,-3.1371,-3.0986,-3.0986,-3.1296,-3.1713,-3.2137,-3.3012,-3.4072,-3.5241,-3.6197,-3.7232,0.0,0.0,0.0,0.0,0.0,0.0,0.0,0.0,0.0,0.0,0.0,0.0,0.0,0.0,0.0,0.0,0.0,-4.0489,-4.0489,-4.0489,-4.0489,-4.0489,-4.0489,-4.0489,-4.0489,-4.0489,-4.0489,-4.0489,-4.0489,-4.0489,-4.0505,-4.0863,-4.1386,-4.2078,-4.274,-4.3033,-4.3048,-4.3356,-4.3479,-4.351,-4.3767,-4.3754,-4.3571,-4.3773,-4.3675,-4.3463,-4.3329,-4.329,-4.329,-4.329,-4.329,-4.329,-4.329,-4.329,-4.329,-4.329,-4.329,-4.329,-4.329,-4.329,-4.329,-4.329,-4.329,-4.329,-4.329,-4.329,-4.329,-4.329,-4.325,-4.3115,-4.3036,-4.2915,-4.2809,-4.2581,-4.2459,-4.2351,-4.2284,-4.2175,-4.2092,-4.2092,-4.2092,-4.2092,-4.2092,-4.2092,-4.2092,-4.2092,-4.2092,-4.1838,-4.1272,-4.0432,-3.9724,-3.9231,-3.7379,-3.6405,-3.6405,-3.6405,-3.6405,-3.6405,-3.6405,-3.6405,-3.1955,-3.1566,-3.1222,-3.1061,-3.1529,-3.2218,-3.2791,-3.365,-3.4593,0.0,-3.6257,0.0,0.0,0.0,0.0,0.0,0.0,0.0,0.0,0.0,0.0,0.0,0.0,0.0,0.0,0.0,0.0,0.0,0.0,-4.0489,-4.0489,-4.0489,-4.0489,-4.0489,-4.0489,-4.0489,-4.0489,-4.0489,-4.0582,-4.0766,-4.0766,-4.0858,-4.1028,-4.1028,-4.1247,-4.1632,-4.2125,-4.2355,-4.2371,-4.254,-4.2602,-4.2627,-4.2919,-4.2916,-4.2804,-4.3074,-4.3151,-4.309,-4.309,-4.3155,-4.329,-4.329,-4.329,-4.329,-4.329,-4.329,-4.329,-4.329,-4.329,-4.329,-4.329,-4.329,-4.329,-4.329,-4.329,-4.329,-4.329,-4.329,-4.329,-4.329,-4.329,-4.325,-4.3115,-4.3036,-4.2915,-4.2729,-4.2541,-4.2392,-4.231,-4.2216,-4.2092,-4.2092,-4.2092,-4.2092,-4.2092,-4.2092,-4.2092,-4.2092,-4.2092,-4.1738,-4.1004,-4.0732,-4.0257,-3.9595,-3.7939,-3.701,-3.6745,-3.6745,-3.6647,-3.6405,-3.6405,-3.6405,-3.131,-3.1529,-3.1882,-3.1161,-3.1529,-3.211,-3.2146,-3.3269,-3.4312,-3.439,0.0,0.0,0.0,0.0,0.0,0.0,0.0,0.0,0.0,0.0,0.0,0.0,0.0,0.0,0.0,0.0,0.0,0.0,0.0,-4.0489,-4.0489,-4.0489,-4.0489,-4.0489,-4.0489,-4.0489,-4.0489,-4.0489,-4.0843,-4.154,-4.154,-4.1878,-4.2494,-4.2494,-4.2171,-4.1601,-4.1632,-4.1648,-4.1694,-4.234,-4.2602,-4.2565,-4.2435,-4.223,-4.2045,-4.1874,-4.2092,-4.2455,-4.2455,-4.2821,-4.329,-4.329,-4.329,-4.329,-4.329,-4.329,-4.329,-4.329,-4.329,-4.329,-4.329,-4.329,-4.329,-4.329,-4.329,-4.329,-4.329,-4.329,-4.329,-4.329,-4.329,-4.329,-4.329,-4.3115,-4.2915,-4.2729,-4.2541,-4.231,-4.2133,-4.2092,-4.2092,-4.2092,-4.2092,-4.2092,-4.2092,-4.2092,-4.2092,-4.2092,-4.2092,-4.2092,-4.2007,-4.1128,-4.0575,-4.0516,-3.9544,-3.8595,-3.7732,-3.7732,-3.7291,-3.6405,-3.6405,-3.6405,-3.2426,-3.2577,-3.2755,-3.2484,-3.2627,-3.2932,-3.3408,-3.3925,-3.4461,-3.4938,0.0,0.0,0.0,0.0,0.0,0.0,0.0,0.0,0.0,0.0,0.0,0.0,0.0,0.0,0.0,0.0,0.0,0.0,0.0,0.0,-4.0489,-4.0489,-4.0489,-4.0489,-4.0489,-4.0489,-4.0489,-4.0489,-4.0628,-4.0874,-4.0874,-4.1012,-4.1228,-4.1228,-4.1401,-4.1601,-4.1601,-4.134,-4.0889,-4.1135,-4.1208,-4.1148,-4.1505,-4.1456,-4.1261,-4.197,-4.2168,-4.2219,-4.2793,-4.3124,-4.3326,-4.3309,-4.329,-4.329,-4.329,-4.329,-4.329,-4.329,-4.329,-4.329,-4.329,-4.329,-4.329,-4.329,-4.329,-4.329,-4.329,-4.329,-4.329,-4.329,-4.329,-4.329,-4.329,-4.325,-4.3115,-4.2915,-4.2729,-4.25,-4.2325,-4.2175,-4.2092,-4.2092,-4.2092,-4.2092,-4.2092,-4.2092,-4.2092,-4.2092,-4.2092,-4.2092,-4.2092,-4.1747,-4.1563,-4.1555,-4.1251,-4.028,-3.8717,-3.8092,-3.7635,-3.7291,-3.666,-3.6405,-3.284,-3.3178,-3.3526,-3.3248,-3.3388,-3.3699,-3.4211,-3.4495,-3.4857,-3.5392,0.0,0.0,0.0,0.0,0.0,0.0,0.0,0.0,0.0,0.0,0.0,0.0,0.0,0.0,0.0,0.0,0.0,0.0,0.0,0.0,-4.0489,-4.0489,-4.0489,-4.0489,-4.0489,-4.0489,-4.0489,-4.0489,-4.0612,-4.0858,-4.0858,-4.1001,-4.1197,-4.1197,-4.1355,-4.1601,-4.1601,-4.1463,-4.1166,-4.0951,-4.0824,-4.0749,-4.0822,-4.0735,-4.061,-4.1245,-4.1317,-4.1265,-4.2107,-4.2809,-4.3316,-4.3317,-4.3294,-4.329,-4.329,-4.329,-4.329,-4.329,-4.329,-4.329,-4.329,-4.329,-4.329,-4.329,-4.329,-4.329,-4.329,-4.329,-4.329,-4.329,-4.329,-4.329,-4.329,-4.325,-4.3155,-4.3036,-4.285,-4.2648,-4.25,-4.2325,-4.2216,-4.2216,-4.2133,-4.2092,-4.2092,-4.2092,-4.2092,-4.2092,-4.2092,-4.2092,-4.2092,-4.2092,-4.2092,-4.2092,-4.2092,-4.1456,-4.019,-3.9231,-3.859,-3.8264,-3.7609,-3.733,0.0,0.0,0.0,-3.3457,-3.3802,-3.4312,-3.4346,0.0,-3.5472,-3.5504,0.0,0.0,0.0,0.0,0.0,0.0,0.0,0.0,0.0,0.0,0.0,0.0,0.0,0.0,0.0,0.0,0.0,0.0,0.0,-4.0474,-4.0489,-4.0489,-4.0489,-4.0489,-4.0489,-4.0489,-4.0489,-4.0489,-4.0843,-4.1571,-4.1571,-4.1909,-4.254,-4.254,-4.2202,-4.1601,-4.1601,-4.1986,-4.2556,-4.1848,-4.1586,-4.1489,-4.0426,-4.0122,-4.0147,-3.9613,-3.9407,-3.9506,-4.0382,-4.1776,-4.321,-4.3255,-4.3286,-4.329,-4.329,-4.329,-4.329,-4.329,-4.329,-4.329,-4.329,-4.329,-4.329,-4.329,-4.329,-4.329,-4.329,-4.329,-4.329,-4.329,-4.329,-4.329,-4.329,-4.3155,-4.3036,-4.2996,-4.285,-4.2688,-4.2688,-4.2541,-4.2392,-4.2392,-4.2216,-4.2107,-4.2092,-4.2092,-4.2092,-4.2092,-4.2092,-4.2092,-4.2092,-4.2092,-4.2092,-4.2092,-4.2092,-4.2092,-4.2092,-4.1103,-4.0152,-3.9258,-3.9216,-3.9196,-3.2967,0.0,0.0,0.0,0.0,0.0,0.0,0.0,0.0,0.0,0.0,0.0,0.0,0.0,0.0,0.0,0.0,0.0,0.0,0.0,0.0,0.0,0.0,0.0,0.0,0.0,0.0,0.0,-3.9538,-3.9879,-4.0474,-4.0489,-4.0489,-4.0489,-4.0489,-4.0489,-4.0489,-4.0489,-4.0597,-4.0782,-4.0782,-4.0889,-4.1074,-4.1074,-4.1278,-4.1601,-4.1601,-4.1986,-4.2525,-4.1309,-4.1019,-4.1311,-4.047,-4.0408,-4.0737,-3.9748,-3.9415,-3.9429,-3.9698,-4.0069,-4.0795,-4.2694,-4.3286,-4.329,-4.329,-4.329,-4.329,-4.329,-4.329,-4.329,-4.329,-4.329,-4.329,-4.329,-4.329,-4.329,-4.329,-4.329,-4.329,-4.329,-4.329,-4.329,-4.329,-4.325,-4.3225,-4.322,-4.304,-4.2875,-4.2729,-4.2648,-4.2581,-4.2433,-4.2357,-4.2262,-4.2107,-4.2092,-4.2092,-4.2092,-4.2092,-4.2092,-4.2092,-4.2092,-4.2092,-4.2092,-4.2092,-4.2092,-4.2092,-4.107,-4.0492,-4.0196,-3.9508,-3.9197,-3.3178,-3.4322,-3.5504,-3.5504,0.0,0.0,-3.5392,-3.5133,0.0,0.0,0.0,0.0,0.0,0.0,0.0,0.0,0.0,0.0,0.0,0.0,0.0,0.0,0.0,0.0,0.0,0.0,0.0,0.0,-3.8687,-3.9232,-4.0043,-4.0336,-4.0489,-4.0489,-4.0489,-4.0489,-4.0489,-4.0489,-4.0489,-4.0489,-4.0489,-4.0489,-4.0489,-4.0489,-4.072,-4.1155,-4.1155,-4.137,-4.1678,-4.0828,-4.087,-4.1347,-4.0527,-4.0694,-4.1264,-3.9898,-3.9393,-3.9382,-3.9394,-3.9402,-3.9815,-4.2454,-4.3133,-4.297,-4.32,-4.329,-4.329,-4.329,-4.329,-4.329,-4.329,-4.329,-4.329,-4.329,-4.329,-4.329,-4.329,-4.329,-4.329,-4.329,-4.329,-4.329,-4.329,-4.329,-4.3319,-4.33,-4.312,-4.2955,-4.2835,-4.2688,-4.2541,-4.2392,-4.2301,-4.2206,-4.2107,-4.2092,-4.2092,-4.2092,-4.2092,-4.2092,-4.2092,-4.2092,-4.2092,-4.2092,-4.2092,-4.2092,-4.2092,-4.1535,-4.1252,-4.1202,-4.0653,-4.0419,-3.3178,-3.4322,-3.5504,-3.5504,-3.5504,0.0,-3.5504,-3.5504,-3.5504,0.0,0.0,0.0,0.0,0.0,0.0,0.0,0.0,0.0,0.0,0.0,0.0,0.0,0.0,0.0,0.0,-3.623,-3.6673,-3.696,-3.7796,-3.8619,-3.9351,-3.9951,-4.0305,-4.0382,-4.0382,-4.0413,-4.0489,-4.0489,-4.0489,-4.0489,-4.0489,-4.0489,-4.0489,-4.0489,-4.0489,-4.0489,-4.0489,-4.0489,-4.0489,-4.0489,-4.092,-4.1504,-4.0568,-4.0908,-4.1709,-4.0008,-3.9571,-3.9787,-3.9498,-3.9395,-3.9817,-4.2342,-4.2795,-4.2462,-4.3095,-4.329,-4.329,-4.329,-4.329,-4.329,-4.329,-4.329,-4.329,-4.329,-4.329,-4.329,-4.329,-4.329,-4.329,-4.329,-4.329,-4.329,-4.329,-4.329,-4.329,-4.329,-4.3155,-4.3036,-4.3036,-4.2729,-4.2474,-4.2474,-4.2284,-4.2175,-4.2175,-4.2133,-4.2092,-4.2133,-4.2092,-4.2092,-4.2092,-4.2092,-4.2092,-4.2092,-4.2092,-4.2092,-4.2092,-4.2092,-4.2092,-4.2092,-4.2092,-4.2092,-3.3178,-3.4322,-3.5504,-3.5504,-3.5504,0.0,-3.5504,-3.5504,-3.5504,0.0,0.0,0.0,0.0,0.0,0.0,0.0,0.0,0.0,0.0,0.0,0.0,0.0,0.0,0.0,0.0,-3.5674,-3.6009,-3.6718,-3.773,-3.8353,-3.8524,-3.8765,-3.9154,-3.9659,-3.969,-3.9936,-4.0489,-4.0489,-4.0489,-4.0489,-4.0489,-4.0489,-4.0489,-4.0489,-4.0489,-4.0489,-4.0489,-4.0489,-4.0489,-4.0489,-4.092,-4.152,-4.0552,-4.0912,-4.1786,-4.0046,-4.0721,-4.2258,-4.0121,-3.9379,-3.9721,-4.1618,-4.2166,-4.2234,-4.3065,-4.329,-4.329,-4.329,-4.329,-4.329,-4.329,-4.329,-4.329,-4.329,-4.329,-4.329,-4.329,-4.329,-4.329,-4.329,-4.329,-4.329,-4.329,-4.329,-4.329,-4.329,-4.325,-4.325,-4.325,-4.317,-4.305,-4.2915,-4.2688,-4.2581,-4.2581,-4.2284,-4.2175,-4.231,-4.2216,-4.2092,-4.2092,-4.2092,-4.2092,-4.2092,-4.2092,-4.2092,-4.2092,-4.2092,-4.2092,-4.2092,-4.2092,-4.2092,-3.3178,-3.4322,-3.5504,-3.5504,0.0,0.0,0.0,-3.5504,-3.5504,-3.5504,-3.5504,-3.5504,0.0,0.0,0.0,0.0,0.0,0.0,0.0,0.0,0.0,0.0,0.0,0.0,0.0,-3.5504,-3.5689,-3.6155,-3.7016,-3.7575,-3.7739,-3.8159,-3.8578,-3.8982,-3.9339,-3.9644,-3.9982,-4.032,-4.0489,-4.0489,-4.0489,-4.0489,-4.0489,-4.0489,-4.0489,-4.0489,-4.0489,-4.0489,-4.0489,-4.0489,-4.0705,-4.0977,-4.0431,-4.0496,-4.0781,-3.9793,-4.0237,-4.1182,-3.9843,-3.94,-3.9601,-4.083,-4.1422,-4.1855,-4.2626,-4.3075,-4.329,-4.329,-4.329,-4.329,-4.329,-4.329,-4.329,-4.329,-4.329,-4.329,-4.329,-4.329,-4.329,-4.329,-4.329,-4.329,-4.329,-4.329,-4.329,-4.329,-4.321,-4.3155,-4.3155,-4.305,-4.293,-4.2729,-4.2622,-4.25,-4.2392,-4.2216,-4.2133,-4.2242,-4.2175,-4.2092,-4.2092,-4.2092,-4.2092,-4.2092,-4.2092,-4.2092,-4.2092,-4.2092,-4.2092,-4.2092,-4.2092,-4.2092,-3.3178,0.0,0.0,0.0,0.0,-3.5504,0.0,0.0,0.0,0.0,0.0,-3.5504,-3.5504,0.0,0.0,0.0,0.0,0.0,0.0,0.0,0.0,0.0,0.0,0.0,0.0,-3.5504,-3.5554,-3.5638,-3.6185,-3.6617,-3.6909,-3.7523,-3.7988,-3.8242,-3.8813,-3.92,-3.9323,-3.9967,-4.0305,-4.0305,-4.0428,-4.0489,-4.0489,-4.0489,-4.0489,-4.0489,-4.0489,-4.0489,-4.0489,-4.0455,-4.047,-4.0436,-4.0248,-4.0011,-3.9778,-3.9488,-3.9385,-3.9418,-3.9408,-3.9422,-3.9493,-4.0187,-4.0935,-4.1707,-4.2246,-4.2821,-4.329,-4.329,-4.329,-4.329,-4.329,-4.329,-4.329,-4.329,-4.329,-4.329,-4.329,-4.329,-4.329,-4.329,-4.329,-4.329,-4.329,-4.329,-4.329,-4.329,-4.3155,-4.3036,-4.2981,-4.2835,-4.2688,-4.2459,-4.2433,-4.2366,-4.2242,-4.2133,-4.2133,-4.2175,-4.2133,-4.2092,-4.2092,-4.2092,-4.2092,-4.2092,-4.2092,-4.2092,-4.2092,-4.2092,-4.2092,-4.2092,-4.2092,-4.2092,0.0,0.0,0.0,0.0,-3.5504,0.0,0.0,0.0,-3.5504,-3.5504,0.0,-3.5504,-3.5504,0.0,0.0,0.0,0.0,0.0,0.0,0.0,0.0,0.0,0.0,0.0,0.0,0.0,-3.5504,-3.5537,-3.5714,-3.5825,-3.5872,-3.6236,-3.6715,-3.7344,-3.758,-3.8015,-3.8616,-3.9293,-3.9598,-3.9613,-4.0213,-4.0489,-4.0489,-4.0489,-4.0489,-4.0489,-4.0489,-4.0489,-4.0489,-4.0366,-4.0312,-4.0296,-4.0117,-3.993,-3.9748,-3.9496,-3.9403,-3.9388,-3.9418,-3.9403,-3.9493,-4.0187,-4.1272,-4.2306,-4.2381,-4.2821,-4.329,-4.329,-4.329,-4.329,-4.329,-4.329,-4.329,-4.329,-4.329,-4.329,-4.329,-4.329,-4.329,-4.329,-4.329,-4.329,-4.329,-4.329,-4.329,-4.329,-4.329,-4.321,-4.3036,-4.2996,-4.2875,-4.2688,-4.2514,-4.2474,-4.2622,-4.2325,-4.2175,-4.2351,-4.2216,-4.2092,-4.2092,-4.2092,-4.2092,-4.2092,-4.2092,-4.2092,-4.2092,-4.2092,-4.2092,-4.2092,-4.2092,-4.2092,0.0,0.0,0.0,0.0,0.0,0.0,-3.5504,0.0,-3.5504,0.0,0.0,0.0,0.0,0.0,0.0,0.0,-3.531,0.0,0.0,0.0,0.0,0.0,0.0,0.0,0.0,0.0,0.0,0.0,0.0,-3.5621,-3.5688,-3.5958,-3.6238,-3.6608,-3.7181,-3.7646,-3.7923,-3.86,-3.9139,-3.949,-3.9782,-4.0105,-4.0489,-4.0489,-4.0489,-4.0489,-4.0489,-4.047,-4.0366,-4.0312,-4.0242,-4.0101,-3.991,-3.9788,-3.9722,-3.9481,-3.9388,-3.9388,-3.9388,-3.9388,-3.9493,-4.0187,-4.0771,-4.1294,-4.1707,-4.2252,-4.2776,-4.2776,-4.3045,-4.329,-4.329,-4.329,-4.329,-4.329,-4.329,-4.329,-4.329,-4.329,-4.329,-4.329,-4.329,-4.329,-4.329,-4.329,-4.329,-4.329,-4.329,-4.325,-4.317,-4.3155,-4.3076,-4.2915,-4.2809,-4.2729,-4.2688,-4.2541,-4.2433,-4.2392,-4.2201,-4.2092,-4.2092,-4.2092,-4.2092,-4.2092,-4.2092,-4.2092,-4.2092,-4.2092,-4.2092,-4.2092,-4.2092,-4.2092,-3.3492,0.0,0.0,0.0,0.0,0.0,0.0,0.0,0.0,0.0,0.0,0.0,0.0,0.0,-3.5444,-3.525,0.0,-3.5444,0.0,0.0,0.0,0.0,0.0,0.0,0.0,0.0,0.0,0.0,0.0,0.0,-3.5638,-3.5878,-3.6022,-3.6148,-3.6859,-3.723,-3.723,-3.7892,-3.8477,-3.897,-3.9305,-3.9736,-4.0228,-4.0413,-4.0489,-4.0489,-4.0489,-4.0436,-4.0312,-4.0242,-4.0101,-3.9889,-3.9696,-3.9625,-3.9589,-3.9445,-3.9388,-3.9388,-3.9388,-3.9388,-3.9499,-3.9978,-4.0247,-4.0487,-4.0965,-4.1564,-4.2126,-4.2126,-4.2566,-4.306,-4.306,-4.317,-4.329,-4.329,-4.329,-4.329,-4.329,-4.329,-4.329,-4.329,-4.329,-4.329,-4.329,-4.329,-4.329,-4.329,-4.329,-4.329,-4.321,-4.321,-4.313,-4.2955,-4.2915,-4.285,-4.2607,-4.2622,-4.2541,-4.231,-4.2175,-4.2092,-4.2092,-4.2092,-4.2092,-4.2092,-4.2092,-4.2092,-4.2092,-4.2092,-4.2092,-4.2092,-4.2092,-4.2092,0.0,0.0,0.0,-3.5504,0.0,0.0,0.0,0.0,-3.5504,0.0,0.0,0.0,-3.5504,-3.5504,-3.5295,-3.4653,-3.507,0.0,0.0,0.0,0.0,0.0,0.0,0.0,0.0,0.0,0.0,0.0,0.0,0.0,-3.5504,-3.5829,-3.6005,-3.6005,-3.6351,-3.6522,-3.6522,-3.72,-3.7538,-3.7584,-3.8893,-3.949,-3.9536,-4.0197,-4.0489,-4.0489,-4.0489,-4.0436,-4.0277,-4.0101,-3.9889,-3.9696,-3.9481,-3.9424,-3.9424,-3.9388,-3.9388,-3.9388,-3.9388,-3.9388,-3.9388,-3.9454,-3.9888,-4.0397,-4.0427,-4.0891,-4.1414,-4.1414,-4.1916,-4.2425,-4.2425,-4.2865,-4.329,-4.329,-4.329,-4.329,-4.329,-4.329,-4.329,-4.329,-4.329,-4.329,-4.329,-4.329,-4.329,-4.329,-4.329,-4.325,-4.3036,-4.3036,-4.2915,-4.2729,-4.2688,-4.2622,-4.2433,-4.2392,-4.231,-4.2133,-4.2092,-4.2092,-4.2092,-4.2092,-4.2092,-4.2092,-4.2092,-4.2092,-4.2092,-4.2092,-4.2092,-4.2092,-4.2092,-4.2092,0.0,0.0,-3.5504,-3.5504,0.0,0.0,0.0,0.0,0.0,0.0,0.0,0.0,0.0,-3.5504,-3.5429,-3.519,-3.5355,-3.5429,0.0,0.0,0.0,0.0,0.0,0.0,0.0,0.0,0.0,0.0,0.0,0.0,0.0,-3.5686,-3.5863,-3.6005,-3.6195,-3.6383,-3.6492,-3.6722,-3.7061,-3.7507,-3.7969,-3.8646,-3.949,-3.9721,-4.0074,-4.0505,-4.0401,-4.0277,-4.0101,-3.9874,-3.9696,-3.9481,-3.9424,-3.9388,-3.9388,-3.9388,-3.9388,-3.9388,-3.9388,-3.9388,-3.9388,-3.9388,-3.9574,-3.9753,-3.9753,-4.0217,-4.0726,-4.0726,-4.1205,-4.1752,-4.1752,-4.1878,-4.2043,-4.2043,-4.2043,-4.2043,-4.2043,-4.2043,-4.2162,-4.2611,-4.2686,-4.2821,-4.3215,-4.329,-4.329,-4.329,-4.329,-4.329,-4.321,-4.321,-4.317,-4.309,-4.309,-4.301,-4.2795,-4.2541,-4.2351,-4.2325,-4.2175,-4.2092,-4.2092,-4.2092,-4.2092,-4.2092,-4.2092,-4.2092,-4.2092,-4.2092,-4.2092,-4.2092,-4.2092,-4.2092,-3.4725,-3.51,0.0,-3.5504,-3.5504,0.0,-3.5504,0.0,0.0,0.0,0.0,0.0,0.0,-3.5504,-3.5504,-3.5504,-3.5504,-3.5504,0.0,-3.5504,0.0,0.0,0.0,0.0,0.0,0.0,0.0,0.0,-3.5504,0.0,0.0,0.0,-3.5752,-3.5894,-3.6085,-3.6242,-3.632,-3.6429,-3.6676,-3.7027,-3.7352,-3.7954,-3.8816,-3.9259,-3.9687,-4.0033,-4.0224,-4.0137,-3.9889,-3.9768,-3.9589,-3.9388,-3.9388,-3.9388,-3.9388,-3.9388,-3.9388,-3.9388,-3.9388,-3.9388,-3.9388,-3.9388,-3.9388,-3.9388,-3.9388,-3.9709,-4.0053,-4.0053,-4.0531,-4.1025,-4.1025,-4.1205,-4.1422,-4.1422,-4.1422,-4.1422,-4.1422,-4.1422,-4.1542,-4.1976,-4.2051,-4.2186,-4.2566,-4.2836,-4.306,-4.326,-4.329,-4.329,-4.329,-4.329,-4.329,-4.329,-4.329,-4.321,-4.2915,-4.2581,-4.2392,-4.2392,-4.2284,-4.2216,-4.2216,-4.2284,-4.2181,-4.1881,-4.2167,-4.2208,-4.1934,-4.214,-4.2216,-4.2201,-4.2133,-4.2092]},{"header":{"parameterUnit":"m.s-1","parameterCategory":1,"la1":30.6,"la2":29.2853,"lo1":-89.7004,"lo2":-87.6739,"dy":0.0162,"dx":0.0183,"nx":112,"ny":82,"refTime":"2023-06-03T06:00:00:Z","depth":0,"parameterNumber":3,"parameterNumberName":"V-component_of_WINDS"},"data":[0.0,0.0,0.0,0.0,0.0,0.0,0.0,0.0,0.0,0.0,0.0,0.0,0.0,0.0,0.0,0.0,0.0,0.0,0.0,0.0,0.0,0.0,0.0,0.0,0.0,0.0,0.0,0.0,0.0,0.0,0.0,0.0,0.0,0.0,0.0,0.0,0.0,0.0,0.0,0.0,0.0,0.0,0.0,0.0,0.0,0.0,0.0,0.0,0.0,0.0,0.0,0.0,0.0,0.0,0.0,0.0,0.0,0.0,0.0,0.0,0.0,0.0,0.0,0.0,0.0,0.0,0.0,0.0,0.0,0.0,0.0,0.0,0.0,0.0,0.0,0.0,0.0,0.0,0.0,0.0,0.0,0.0,0.0,0.0,0.0,0.0,0.0,0.0,0.0,0.0,-2.9213,-3.0031,-3.085,-3.138,-3.1511,-3.1511,-3.1795,-3.2452,0.0,0.0,0.0,0.0,0.0,0.0,0.0,0.0,0.0,0.0,0.0,0.0,0.0,0.0,0.0,0.0,0.0,0.0,0.0,0.0,0.0,0.0,0.0,0.0,0.0,0.0,0.0,0.0,0.0,0.0,0.0,0.0,0.0,0.0,0.0,0.0,0.0,0.0,0.0,0.0,0.0,0.0,0.0,0.0,0.0,0.0,0.0,0.0,0.0,0.0,0.0,0.0,0.0,0.0,0.0,0.0,0.0,0.0,0.0,0.0,0.0,0.0,0.0,0.0,0.0,0.0,0.0,0.0,0.0,0.0,0.0,0.0,0.0,0.0,0.0,0.0,0.0,0.0,0.0,0.0,0.0,0.0,0.0,0.0,0.0,0.0,0.0,0.0,0.0,0.0,0.0,0.0,0.0,0.0,0.0,0.0,0.0,0.0,0.0,0.0,0.0,0.0,0.0,0.0,-3.019,-3.0983,-3.132,-3.1467,-3.1511,-3.1511,-3.1795,-3.2452,0.0,0.0,0.0,0.0,0.0,0.0,0.0,0.0,0.0,0.0,0.0,0.0,0.0,0.0,0.0,0.0,0.0,0.0,0.0,0.0,0.0,0.0,0.0,0.0,0.0,0.0,0.0,0.0,0.0,0.0,0.0,0.0,0.0,0.0,0.0,0.0,0.0,0.0,0.0,0.0,0.0,0.0,0.0,0.0,0.0,0.0,0.0,0.0,0.0,0.0,0.0,0.0,0.0,0.0,0.0,0.0,0.0,0.0,0.0,0.0,0.0,0.0,0.0,0.0,0.0,0.0,0.0,0.0,0.0,0.0,0.0,0.0,0.0,0.0,0.0,0.0,0.0,0.0,0.0,0.0,0.0,0.0,0.0,0.0,0.0,0.0,0.0,0.0,0.0,0.0,0.0,0.0,0.0,0.0,0.0,0.0,0.0,0.0,0.0,0.0,0.0,0.0,0.0,-3.0674,-3.0893,-3.1248,-3.1409,-3.1511,-3.1511,-3.1511,-3.2003,-3.3111,-3.3216,0.0,0.0,0.0,0.0,0.0,0.0,0.0,0.0,0.0,0.0,0.0,0.0,0.0,0.0,0.0,0.0,0.0,0.0,0.0,0.0,0.0,0.0,0.0,0.0,0.0,0.0,0.0,0.0,0.0,0.0,0.0,0.0,0.0,0.0,0.0,0.0,0.0,0.0,0.0,0.0,0.0,0.0,0.0,0.0,0.0,0.0,0.0,0.0,0.0,0.0,0.0,0.0,0.0,0.0,0.0,0.0,0.0,0.0,0.0,0.0,0.0,0.0,0.0,0.0,0.0,0.0,0.0,0.0,0.0,0.0,0.0,0.0,0.0,0.0,0.0,0.0,0.0,0.0,0.0,0.0,0.0,0.0,0.0,0.0,0.0,0.0,0.0,0.0,0.0,0.0,0.0,0.0,0.0,0.0,0.0,0.0,0.0,0.0,0.0,0.0,0.0,0.0,-3.1263,-3.1351,-3.1351,-3.1438,-3.1511,-3.1511,-3.1645,-3.2332,-3.3728,-3.394,0.0,0.0,0.0,0.0,0.0,0.0,0.0,0.0,0.0,0.0,0.0,0.0,0.0,0.0,0.0,0.0,0.0,0.0,0.0,0.0,0.0,0.0,0.0,0.0,0.0,0.0,0.0,0.0,0.0,0.0,0.0,0.0,0.0,0.0,0.0,0.0,0.0,0.0,0.0,0.0,0.0,0.0,0.0,0.0,0.0,0.0,0.0,0.0,0.0,0.0,0.0,0.0,0.0,0.0,0.0,0.0,0.0,0.0,0.0,0.0,0.0,0.0,0.0,0.0,0.0,0.0,0.0,0.0,0.0,0.0,0.0,0.0,0.0,0.0,0.0,0.0,0.0,0.0,0.0,0.0,0.0,0.0,0.0,0.0,0.0,0.0,0.0,0.0,0.0,0.0,0.0,0.0,0.0,0.0,0.0,0.0,0.0,0.0,0.0,0.0,0.0,0.0,-3.1467,-3.1511,-3.1511,-3.1511,-3.1511,-3.1511,-3.2064,-3.2811,-3.3759,-3.4316,0.0,0.0,0.0,0.0,0.0,0.0,0.0,0.0,0.0,0.0,0.0,0.0,0.0,0.0,0.0,0.0,0.0,0.0,0.0,0.0,0.0,0.0,0.0,0.0,0.0,0.0,0.0,0.0,0.0,0.0,0.0,0.0,0.0,0.0,0.0,0.0,0.0,0.0,0.0,0.0,0.0,0.0,0.0,0.0,0.0,0.0,0.0,0.0,0.0,0.0,0.0,0.0,0.0,0.0,0.0,0.0,0.0,0.0,0.0,0.0,0.0,0.0,0.0,0.0,0.0,0.0,0.0,0.0,0.0,0.0,0.0,0.0,0.0,0.0,0.0,0.0,0.0,0.0,0.0,0.0,0.0,0.0,0.0,0.0,0.0,0.0,0.0,0.0,0.0,0.0,0.0,0.0,0.0,0.0,0.0,0.0,0.0,0.0,0.0,0.0,0.0,0.0,-3.2108,-3.2273,0.0,-3.2766,-3.2766,-3.2766,-3.2976,-3.3532,-3.4485,0.0,0.0,0.0,0.0,0.0,0.0,0.0,0.0,0.0,0.0,0.0,0.0,0.0,0.0,0.0,0.0,0.0,0.0,0.0,0.0,0.0,0.0,0.0,0.0,0.0,0.0,0.0,0.0,0.0,0.0,0.0,0.0,0.0,0.0,0.0,0.0,0.0,0.0,0.0,0.0,0.0,0.0,0.0,0.0,0.0,0.0,0.0,0.0,0.0,0.0,0.0,0.0,0.0,0.0,0.0,0.0,0.0,0.0,0.0,0.0,0.0,0.0,0.0,0.0,0.0,0.0,0.0,0.0,0.0,0.0,0.0,0.0,0.0,0.0,0.0,0.0,0.0,0.0,0.0,0.0,0.0,0.0,0.0,0.0,0.0,0.0,0.0,0.0,0.0,0.0,0.0,0.0,0.0,0.0,0.0,0.0,0.0,0.0,0.0,0.0,0.0,0.0,-3.2736,-3.2826,-3.2991,0.0,-3.3499,-3.3499,-3.3499,-3.3741,-3.421,-3.4956,0.0,0.0,0.0,0.0,0.0,0.0,0.0,0.0,0.0,0.0,0.0,0.0,0.0,0.0,0.0,0.0,0.0,0.0,0.0,0.0,0.0,0.0,0.0,0.0,0.0,0.0,0.0,0.0,0.0,0.0,0.0,0.0,0.0,0.0,0.0,0.0,0.0,0.0,0.0,0.0,0.0,0.0,0.0,0.0,0.0,0.0,0.0,0.0,0.0,0.0,0.0,0.0,0.0,0.0,0.0,0.0,0.0,0.0,0.0,0.0,0.0,0.0,0.0,0.0,0.0,0.0,0.0,0.0,0.0,0.0,0.0,0.0,0.0,0.0,0.0,0.0,0.0,0.0,0.0,0.0,0.0,0.0,0.0,0.0,0.0,0.0,0.0,0.0,0.0,0.0,0.0,0.0,0.0,0.0,0.0,0.0,0.0,0.0,0.0,0.0,0.0,0.0,-3.3499,-3.3499,-3.3499,-3.3514,-3.3514,-3.3514,-3.3514,-3.4253,-3.4817,0.0,0.0,0.0,0.0,0.0,0.0,0.0,0.0,0.0,0.0,0.0,0.0,0.0,0.0,0.0,0.0,0.0,0.0,0.0,0.0,0.0,0.0,0.0,0.0,0.0,0.0,0.0,0.0,0.0,0.0,0.0,0.0,0.0,0.0,0.0,0.0,0.0,0.0,0.0,0.0,0.0,0.0,0.0,0.0,0.0,0.0,0.0,0.0,0.0,0.0,0.0,0.0,0.0,0.0,0.0,0.0,0.0,0.0,0.0,0.0,0.0,0.0,0.0,0.0,0.0,0.0,0.0,0.0,0.0,0.0,0.0,0.0,0.0,0.0,0.0,0.0,0.0,0.0,0.0,0.0,0.0,0.0,0.0,0.0,0.0,0.0,0.0,0.0,0.0,0.0,0.0,0.0,0.0,0.0,0.0,0.0,0.0,0.0,0.0,0.0,0.0,0.0,0.0,-3.4128,-3.4219,-3.4382,-3.4861,-3.4921,-3.4955,-3.5052,-3.5249,-3.5528,-3.5811,0.0,0.0,0.0,0.0,0.0,0.0,0.0,0.0,0.0,0.0,0.0,0.0,0.0,0.0,0.0,0.0,0.0,0.0,0.0,0.0,0.0,0.0,0.0,0.0,0.0,0.0,0.0,0.0,0.0,0.0,0.0,0.0,0.0,0.0,0.0,0.0,0.0,0.0,0.0,0.0,0.0,0.0,0.0,0.0,0.0,0.0,0.0,0.0,0.0,0.0,0.0,0.0,0.0,0.0,0.0,0.0,0.0,0.0,0.0,0.0,0.0,0.0,0.0,0.0,0.0,0.0,0.0,0.0,0.0,0.0,0.0,0.0,0.0,0.0,0.0,0.0,0.0,0.0,0.0,0.0,0.0,0.0,0.0,0.0,0.0,0.0,0.0,0.0,0.0,0.0,0.0,0.0,0.0,0.0,0.0,0.0,0.0,0.0,0.0,0.0,0.0,0.0,-3.4846,-3.4891,-3.504,-3.5459,-3.5554,-3.5621,-3.5688,-3.5816,-3.5975,-3.6179,0.0,0.0,0.0,0.0,0.0,0.0,0.0,0.0,0.0,0.0,0.0,0.0,0.0,0.0,0.0,0.0,0.0,0.0,0.0,0.0,0.0,0.0,0.0,0.0,0.0,0.0,0.0,0.0,0.0,0.0,0.0,0.0,0.0,0.0,0.0,0.0,0.0,0.0,0.0,0.0,0.0,0.0,0.0,0.0,0.0,0.0,0.0,0.0,0.0,0.0,0.0,0.0,0.0,0.0,0.0,0.0,0.0,0.0,0.0,0.0,0.0,0.0,0.0,0.0,0.0,0.0,0.0,0.0,0.0,0.0,0.0,0.0,0.0,0.0,0.0,0.0,0.0,0.0,0.0,0.0,0.0,0.0,0.0,0.0,0.0,0.0,0.0,0.0,0.0,0.0,0.0,0.0,0.0,0.0,0.0,0.0,0.0,0.0,0.0,0.0,0.0,0.0,-3.5504,-3.5504,-3.5504,-3.5504,-3.5621,-3.572,-3.572,-3.6006,-3.6211,-3.6242,0.0,0.0,0.0,0.0,0.0,0.0,0.0,0.0,0.0,0.0,0.0,0.0,0.0,0.0,0.0,0.0,0.0,0.0,0.0,0.0,0.0,0.0,0.0,0.0,0.0,0.0,0.0,0.0,0.0,0.0,0.0,0.0,0.0,0.0,0.0,0.0,0.0,0.0,0.0,0.0,0.0,0.0,0.0,0.0,0.0,0.0,0.0,0.0,0.0,0.0,0.0,0.0,0.0,0.0,0.0,0.0,0.0,0.0,0.0,0.0,-2.6499,0.0,0.0,0.0,0.0,0.0,0.0,0.0,0.0,0.0,0.0,0.0,0.0,0.0,0.0,0.0,0.0,0.0,0.0,0.0,0.0,0.0,0.0,0.0,0.0,0.0,0.0,0.0,0.0,0.0,0.0,0.0,0.0,0.0,0.0,0.0,0.0,0.0,0.0,0.0,0.0,0.0,-3.5504,-3.5504,-3.5504,-3.5504,-3.5621,-3.5752,-3.5926,-3.6116,-3.6274,-3.6414,-3.6492,0.0,0.0,0.0,0.0,0.0,0.0,0.0,0.0,0.0,0.0,0.0,0.0,0.0,0.0,0.0,0.0,0.0,0.0,0.0,0.0,0.0,0.0,0.0,0.0,0.0,0.0,0.0,0.0,0.0,0.0,0.0,0.0,0.0,0.0,0.0,0.0,0.0,0.0,0.0,0.0,0.0,0.0,0.0,0.0,0.0,0.0,0.0,0.0,0.0,0.0,0.0,0.0,0.0,0.0,0.0,0.0,0.0,0.0,0.0,0.0,-2.7309,0.0,0.0,0.0,0.0,0.0,0.0,0.0,0.0,0.0,0.0,0.0,0.0,0.0,0.0,0.0,0.0,0.0,0.0,0.0,0.0,0.0,0.0,0.0,0.0,0.0,0.0,0.0,0.0,0.0,0.0,0.0,0.0,0.0,0.0,0.0,0.0,0.0,0.0,0.0,0.0,-3.5504,-3.5504,-3.5504,-3.5504,-3.5621,-3.5752,-3.5863,-3.6085,-3.6242,-3.6352,-3.646,0.0,0.0,0.0,0.0,0.0,0.0,0.0,0.0,0.0,0.0,0.0,0.0,0.0,0.0,0.0,0.0,0.0,0.0,0.0,0.0,0.0,0.0,0.0,0.0,0.0,0.0,0.0,0.0,0.0,0.0,0.0,0.0,0.0,0.0,0.0,0.0,0.0,0.0,0.0,0.0,0.0,0.0,0.0,0.0,0.0,0.0,0.0,0.0,0.0,0.0,0.0,0.0,0.0,-2.936,-3.0107,-3.0555,-2.9953,-3.0358,-3.1402,-2.9822,-2.921,-2.9366,0.0,0.0,0.0,0.0,0.0,0.0,0.0,0.0,0.0,0.0,0.0,0.0,0.0,0.0,0.0,0.0,0.0,0.0,0.0,0.0,0.0,0.0,0.0,0.0,0.0,-3.4414,-3.4269,0.0,0.0,0.0,0.0,0.0,0.0,0.0,0.0,0.0,0.0,0.0,0.0,-3.5504,-3.5504,-3.5504,-3.5504,-3.5621,-3.5688,-3.5688,-3.6006,-3.6196,-3.6196,-3.6383,-3.6492,0.0,0.0,0.0,0.0,0.0,0.0,0.0,0.0,0.0,0.0,0.0,0.0,0.0,0.0,0.0,0.0,0.0,0.0,0.0,0.0,0.0,0.0,0.0,0.0,0.0,0.0,0.0,0.0,0.0,0.0,0.0,0.0,-2.3288,-2.3912,0.0,0.0,0.0,0.0,0.0,0.0,0.0,0.0,0.0,0.0,0.0,0.0,0.0,-2.8614,-3.0624,-3.0339,-3.0463,-3.1001,-3.1151,-3.1273,-3.1349,-3.124,-3.1334,-3.1463,-3.0699,0.0,-3.0658,-3.0582,0.0,0.0,0.0,0.0,0.0,0.0,0.0,0.0,0.0,0.0,0.0,0.0,0.0,0.0,0.0,0.0,0.0,0.0,0.0,0.0,0.0,0.0,-3.4414,-3.4414,-3.4414,-3.4433,0.0,-3.4457,-3.4448,-3.4683,0.0,0.0,0.0,0.0,0.0,0.0,0.0,0.0,-3.5504,-3.5504,-3.5504,-3.5504,-3.5621,-3.5688,-3.5688,-3.6006,-3.6196,-3.6196,-3.6383,-3.6492,-3.6492,-3.6492,0.0,0.0,0.0,0.0,0.0,0.0,0.0,0.0,0.0,0.0,0.0,0.0,0.0,0.0,0.0,0.0,0.0,0.0,0.0,0.0,0.0,0.0,0.0,0.0,0.0,0.0,0.0,0.0,0.0,-2.4216,-2.4866,-2.5093,-2.5186,-2.5368,0.0,0.0,0.0,0.0,0.0,0.0,0.0,0.0,0.0,-3.0642,-3.0107,-3.0336,-3.1485,-3.1191,-3.1358,-3.2005,-3.2016,-3.2199,-3.2511,-3.2511,-3.2263,-3.1852,-3.2037,-3.2025,-3.1852,-3.1176,-3.0427,-2.9745,0.0,0.0,0.0,0.0,0.0,-3.0677,-3.155,-3.2214,0.0,0.0,0.0,0.0,0.0,0.0,0.0,0.0,0.0,0.0,0.0,0.0,0.0,-3.4414,-3.4414,-3.4414,-3.4515,-3.4563,-3.4664,0.0,-3.5016,-3.5115,-3.5326,0.0,0.0,0.0,0.0,-3.5504,-3.5504,-3.5504,-3.5504,-3.5504,-3.5539,-3.5604,-3.5604,-3.5799,-3.5911,-3.5911,-3.61,-3.6241,-3.6241,-3.6241,-3.6241,0.0,0.0,0.0,0.0,0.0,0.0,0.0,0.0,0.0,0.0,0.0,0.0,0.0,0.0,0.0,0.0,0.0,0.0,0.0,0.0,0.0,0.0,0.0,0.0,0.0,0.0,0.0,0.0,-2.5755,-2.6188,-2.6357,-2.6778,-2.7116,0.0,0.0,0.0,0.0,0.0,0.0,-3.0052,-3.053,-3.1064,-3.171,-3.1724,-3.1794,-3.1963,-3.1963,-3.2188,-3.2637,-3.2788,-3.3105,-3.3522,-3.3453,-3.311,-3.2577,-3.2995,-3.3051,-3.275,-3.1784,-3.1043,-3.0553,-3.0813,-3.0545,-3.0139,-3.0683,-3.1044,-3.1365,-3.2528,-3.3038,-3.3178,-3.3178,0.0,-3.3108,-3.2541,0.0,0.0,0.0,0.0,-3.3624,-3.423,0.0,-3.4414,-3.4448,-3.4448,-3.4448,-3.4582,-3.4683,-3.4817,0.0,-3.5148,-3.5261,-3.5392,0.0,0.0,0.0,0.0,-3.5504,-3.5504,-3.5504,-3.5504,-3.5504,-3.5504,-3.5504,-3.5504,-3.5621,-3.5688,-3.5688,-3.5894,-3.6005,-3.6005,-3.6005,-3.6005,-3.6005,0.0,0.0,0.0,0.0,0.0,0.0,0.0,0.0,0.0,0.0,0.0,0.0,0.0,0.0,0.0,0.0,0.0,0.0,0.0,0.0,0.0,0.0,0.0,0.0,0.0,0.0,0.0,0.0,0.0,-2.7636,-2.7735,0.0,0.0,0.0,0.0,-3.0273,-3.0385,-3.0712,-3.1359,-3.1429,-3.1724,-3.2342,-3.2356,-3.2637,-3.3178,-3.3192,-3.3206,-3.3269,-3.386,-3.4121,-3.4157,-3.39,-3.3767,-3.3661,-3.3157,-3.3027,-3.315,-3.2755,-3.2384,-3.1924,-3.118,-3.0895,-3.0857,-3.0895,-3.1378,-3.2037,-3.211,-3.2613,-3.3178,-3.3178,-3.3178,-3.3178,-3.3143,-3.3143,0.0,0.0,-3.3742,-3.4346,-3.438,-3.4414,-3.4448,-3.4631,-3.4549,-3.4549,-3.5049,-3.5016,-3.4883,0.0,-3.4983,-3.518,-3.5213,0.0,-3.5504,-3.5504,-3.5504,-3.5504,-3.5504,-3.5504,-3.5504,-3.5504,-3.5504,-3.5504,-3.5504,-3.5621,-3.5688,-3.5688,-3.5894,-3.6005,-3.6005,-3.6005,-3.6005,-3.6005,-3.6005,0.0,0.0,0.0,0.0,0.0,0.0,0.0,0.0,0.0,0.0,0.0,0.0,0.0,0.0,0.0,0.0,0.0,0.0,0.0,0.0,0.0,0.0,0.0,0.0,0.0,0.0,0.0,0.0,-2.8338,-2.9055,0.0,-2.9855,-3.0249,-3.067,-3.112,-3.1513,-3.1836,-3.2075,-3.2455,-3.2946,-3.3529,-3.3557,-3.3888,-3.4528,-3.4528,-3.4528,-3.4542,-3.4723,-3.4852,-3.4812,-3.4125,-3.3527,-3.3043,-3.3498,-3.3186,-3.2423,-3.3051,-3.2952,-3.2443,-3.2135,-3.1461,-3.0777,-3.1228,-3.1397,-3.1415,-3.1928,-3.2577,-3.3297,-3.3811,-3.3962,-3.3962,-3.3962,-3.3962,-3.4048,-3.4485,-3.4837,-3.5111,-3.5517,-3.5703,-3.5822,-3.5892,-3.5946,-3.607,-3.6241,-3.6325,-3.6359,-3.6305,-3.5807,-3.5392,-3.5392,-3.5439,-3.5504,-3.5504,-3.5504,-3.5504,-3.5504,-3.5504,-3.5504,-3.5504,-3.5504,-3.5504,-3.5504,-3.5554,-3.5572,-3.5572,-3.5651,-3.5683,-3.5683,-3.5683,-3.5683,-3.5683,-3.5683,-3.5733,0.0,0.0,0.0,0.0,0.0,0.0,0.0,0.0,0.0,0.0,0.0,0.0,0.0,0.0,0.0,0.0,0.0,0.0,0.0,0.0,0.0,0.0,0.0,0.0,0.0,0.0,-2.9392,-2.9617,-3.0361,-3.0937,-3.1101,-3.1541,-3.1963,-3.2384,-3.2792,-3.3115,-3.3326,-3.3719,-3.4126,-3.4534,-3.4548,-3.4745,-3.5189,-3.5189,-3.5189,-3.5189,-3.561,-3.561,-3.5287,-3.4775,-3.4121,-3.3318,-3.3782,-3.3543,-3.2829,-3.3393,-3.3475,-3.3195,-3.2484,-3.1803,-3.1337,-3.1824,-3.1771,-3.1559,-3.2088,-3.2795,-3.3573,-3.4348,-3.4782,-3.5053,-3.5053,-3.5053,-3.514,-3.5595,-3.5712,-3.5778,-3.6199,-3.6458,-3.6614,-3.6684,-3.681,-3.6936,-3.7025,-3.7159,-3.7193,-3.7262,-3.6664,-3.6148,-3.6148,-3.6148,-3.6148,-3.6148,-3.6148,-3.6148,-3.6148,-3.6148,-3.6148,-3.6148,-3.6148,-3.6148,-3.6148,-3.6148,-3.6058,-3.5848,-3.5833,-3.5744,-3.5519,-3.5504,-3.5504,-3.5504,-3.5504,-3.5554,-3.5638,0.0,0.0,0.0,0.0,0.0,0.0,0.0,0.0,0.0,0.0,0.0,0.0,0.0,0.0,0.0,0.0,0.0,0.0,0.0,0.0,0.0,0.0,0.0,-2.8843,-2.9813,-3.0811,-3.1443,-3.1527,-3.178,-3.2412,-3.2469,-3.296,-3.4147,-3.4231,-3.452,-3.5161,-3.5217,-3.5231,-3.5245,-3.5259,-3.5287,-3.5339,-3.5302,-3.5302,-3.5316,-3.6473,-3.6511,-3.5569,-3.5887,-3.5545,-3.4595,-3.4063,-3.4079,-3.4451,-3.3982,-3.403,-3.4207,-3.2247,-3.1898,-3.2593,-3.2593,-3.258,-3.2567,-3.2607,-3.3157,-3.4006,-3.4757,-3.5609,-3.6301,-3.6301,-3.6301,-3.6301,-3.633,-3.6344,-3.6344,-3.6359,-3.6516,-3.6708,-3.6899,-3.6939,-3.7064,-3.7411,-3.7357,-3.7322,-3.7445,-3.7464,-3.7464,-3.7419,-3.7404,-3.7404,-3.7404,-3.7404,0.0,-3.7404,-3.7404,-3.7404,-3.7404,-3.7404,-3.7404,-3.7404,-3.7404,-3.715,-3.6552,-3.6492,-3.6207,-3.5564,-3.5519,-3.5504,-3.5504,-3.5504,-3.5504,-3.5504,0.0,0.0,0.0,0.0,0.0,0.0,0.0,0.0,0.0,0.0,0.0,0.0,0.0,0.0,0.0,0.0,0.0,0.0,0.0,0.0,0.0,-3.0976,-3.1386,-3.0806,-3.1399,-3.1963,-3.2131,-3.2553,-3.3059,-3.3641,-3.3697,-3.4056,-3.4843,-3.4936,-3.5006,-3.5175,-3.5611,-3.6061,-3.6511,-3.6908,-3.738,-3.7862,-3.7884,-3.7884,-3.7876,-3.7495,-3.7152,-3.6847,-3.5574,-3.4861,-3.4617,-3.459,-3.4424,-3.4192,-3.4837,-3.4917,-3.4502,-3.3129,-3.2521,-3.2307,-3.2307,-3.2041,-3.182,-3.2408,-3.3157,-3.4006,-3.4757,-3.5609,-3.6301,-3.6301,-3.6301,-3.6402,-3.6896,-3.7041,-3.7128,-3.7564,-3.7842,-3.8026,-3.823,-3.8375,-3.857,-3.8799,-3.8835,-3.8799,-3.8835,-3.8871,-3.8556,-3.7584,-3.7404,-3.7404,-3.7404,-3.7404,0.0,-3.7404,-3.7404,-3.7404,-3.7404,-3.7404,-3.7404,-3.7404,-3.7404,-3.7345,-3.7165,-3.6731,-3.6402,-3.6222,-3.5759,-3.5504,-3.5504,-3.5504,-3.5504,0.0,0.0,0.0,0.0,0.0,0.0,0.0,0.0,0.0,0.0,0.0,0.0,0.0,0.0,0.0,0.0,0.0,0.0,0.0,0.0,0.0,0.0,-3.1907,-3.2455,-3.2623,-3.2736,-3.289,-3.3108,-3.3445,-3.3944,-3.4562,-3.4618,-3.4983,-3.5892,-3.5949,-3.6197,-3.6711,-3.7078,-3.7433,-3.7791,-3.8157,-3.8506,-3.8896,-3.8887,-3.8711,-3.8256,-3.7915,-3.7364,-3.6523,-3.5702,-3.5136,0.0,-3.4746,-3.4615,-3.4514,-3.4911,-3.4958,0.0,0.0,0.0,0.0,0.0,-3.3056,-3.2865,-3.3317,-3.4042,-3.4888,-3.5452,-3.621,-3.6966,-3.7076,-3.7099,-3.7186,-3.7578,-3.768,-3.7767,-3.8115,-3.8366,-3.8553,-3.8745,-3.8943,-3.9141,-3.9337,-3.9388,-3.9388,-3.9388,0.0,0.0,-3.8392,-3.8257,-3.8257,-3.8257,-3.8257,-3.8257,-3.8257,-3.8257,-3.8257,-3.8257,-3.8257,-3.8257,-3.8257,-3.8257,0.0,0.0,0.0,-3.7045,-3.6507,-3.6118,0.0,0.0,0.0,-3.5504,0.0,0.0,0.0,0.0,-3.5651,-3.5651,0.0,0.0,0.0,0.0,0.0,0.0,0.0,0.0,0.0,0.0,0.0,0.0,0.0,0.0,0.0,0.0,-3.2567,-3.3002,-3.4048,-3.3796,-3.3697,-3.4245,-3.4301,-3.4604,-3.533,-3.54,-3.5906,-3.7105,-3.7214,-3.7701,-3.8847,0.0,0.0,0.0,0.0,-3.9113,-3.9113,-3.9003,-3.8489,-3.7597,-3.793,-3.7156,-3.5507,-3.5947,-3.5798,-3.515,-3.4712,-3.4801,-3.5258,-3.4773,-3.4686,-3.4901,-3.4731,-3.468,-3.468,-3.468,-3.468,0.0,0.0,0.0,0.0,-3.6362,-3.703,-3.7812,-3.803,-3.8178,-3.8254,-3.8254,-3.833,-3.8405,-3.8405,-3.8533,-3.872,-3.8929,-3.9129,-3.9364,-3.9561,-3.9597,-3.9649,-3.9649,-3.9649,-3.9619,-3.9544,-3.9433,-3.9388,-3.9388,-3.9388,0.0,-3.9388,-3.9388,-3.9388,-3.9388,0.0,0.0,-3.9388,-3.9388,-3.9155,-3.8542,-3.8437,-3.7853,-3.6641,-3.6596,-3.6312,-3.5729,-3.5714,-3.5714,-3.5714,-3.5714,-3.5714,-3.5714,-3.5579,-3.5504,0.0,0.0,0.0,0.0,0.0,0.0,0.0,0.0,0.0,0.0,0.0,0.0,0.0,0.0,0.0,-3.2891,-3.3515,-3.3922,-3.4175,-3.4562,-3.488,-3.4992,-3.502,-3.5456,-3.6515,-3.6666,-3.7186,-3.8452,-3.8517,-3.8637,-3.8875,-3.9368,0.0,-3.9611,-4.0083,-4.0336,-4.0336,-3.9559,-3.9046,-3.8815,0.0,0.0,-3.6094,-3.5414,-3.5114,-3.5199,-3.5114,-3.5365,-3.5854,-3.5742,-3.5821,-3.6003,-3.5064,-3.468,-3.468,-3.468,-3.468,-3.468,-3.468,-3.5258,-3.6,-3.6057,-3.6706,-3.7424,-3.7455,-3.7991,0.0,-3.8613,-3.9161,-3.9726,-3.9726,-3.9765,-3.9858,-4.0051,-4.0297,-4.0541,-4.0723,-4.0897,-4.0995,-4.0995,-4.0995,-4.0831,-4.0307,-3.9768,-3.9388,-3.9388,-3.9388,-3.9388,-3.9388,-3.9388,-3.9388,-3.9388,-3.9388,-3.9388,-3.9388,-3.9388,-3.9328,-3.923,-3.8691,-3.8048,-3.727,-3.724,-3.7165,-3.7045,-3.7045,-3.7045,-3.7045,-3.7045,-3.7045,-3.7015,-3.5983,-3.5504,0.0,0.0,0.0,0.0,0.0,0.0,0.0,0.0,0.0,0.0,0.0,-3.0724,-3.2053,0.0,-3.2957,-3.3648,-3.4295,-3.4801,-3.511,-3.5686,-3.6103,-3.6103,-3.6103,-3.6595,-3.7847,-3.7955,-3.8347,-3.9294,-3.9359,-3.947,-3.9772,-4.0082,-4.0265,-4.0265,-4.0548,-4.0702,-4.0702,-3.9715,-3.8966,-3.848,-3.7013,-3.6056,-3.5523,-3.5017,-3.503,-3.5416,-3.5416,-3.5704,-3.6193,-3.6193,-3.6275,-3.6355,-3.5755,-3.5542,-3.5542,-3.5542,-3.5542,-3.5542,-3.5542,-3.5851,-3.6309,-3.6933,-3.745,-3.7898,-3.8532,-3.9021,-3.9384,-3.9384,-3.9718,-4.0104,-4.0104,-4.0104,-4.0143,-4.0354,-4.051,-4.068,-4.1018,-4.1171,-4.127,-4.1384,-4.1422,-4.1265,-4.095,-4.0621,-4.0172,-3.9514,-3.9388,-3.9388,-3.9388,-3.9388,-3.9388,-3.9388,-3.9388,-3.9388,-3.9388,-3.9388,-3.9388,-3.9388,-3.9095,-3.8601,-3.7928,-3.7898,-3.7749,-3.7419,-3.7404,-3.7404,-3.7404,-3.7404,-3.7404,-3.7389,-3.6761,-3.632,0.0,0.0,0.0,0.0,0.0,0.0,0.0,-2.9518,-2.9779,-3.1935,-3.2007,-3.2046,-3.3262,-3.3866,-3.4231,-3.4357,-3.4941,-3.5583,-3.6202,-3.6768,-3.7259,-3.7498,-3.7428,-3.7833,-3.8944,-3.9065,-3.9318,-3.9914,-3.9982,-4.0166,-4.0659,-4.0702,-4.0702,-4.0702,-4.0513,-4.0425,-4.0425,-3.9213,-3.8266,-3.7498,-3.6503,-3.5564,-3.4775,-3.4775,-3.5078,-3.562,-3.5704,-3.5991,-3.6405,-3.6405,-3.6405,-3.6405,-3.6405,-3.6405,-3.6405,-3.6405,-3.6405,-3.6405,-3.6405,-3.6405,-3.6552,-3.7593,-3.7922,-3.8091,-3.9089,-3.9497,-3.9715,-3.9877,-4.0052,-4.0253,-4.0441,-4.0481,-4.0535,-4.0694,-4.0773,-4.0891,-4.1311,-4.1427,-4.1543,-4.172,-4.1758,-4.1713,-4.1594,-4.1564,-4.1175,-3.9978,-3.9798,-3.9753,-3.9634,-3.9568,-3.9523,-3.9388,-3.9388,-3.9388,-3.9388,-3.9388,-3.9388,-3.9388,-3.9388,-3.917,-3.8616,-3.8586,-3.8332,-3.7808,-3.7793,-3.7793,-3.7793,-3.7793,-3.7793,-3.7793,-3.7793,-3.7485,-2.6035,-2.6148,-2.6854,-2.8772,-2.9465,-2.9986,0.0,-3.1626,-3.2059,-3.2336,-3.2765,-3.329,-3.3978,-3.4147,-3.4385,-3.4992,-3.5597,-3.6216,-3.6796,-3.7414,-3.8215,-3.9339,-3.9029,-3.8971,-3.9618,-3.9688,-3.9942,-4.0562,-4.0604,-4.0632,-4.0688,-4.0702,-4.0702,-4.0702,-3.9823,-3.9382,-3.9382,-3.7557,-3.6596,-3.6442,-3.5466,-3.492,-3.4775,-3.4775,-3.5078,-3.562,-3.6086,-3.6358,-3.6405,-3.6405,-3.6405,-3.6405,-3.6405,-3.6405,-3.6405,-3.6405,-3.6405,-3.6405,-3.6405,-3.6405,-3.6392,-3.6564,-3.6633,-3.6667,-3.6764,-3.7371,-3.8233,-3.9051,-3.9922,-4.0746,-4.1639,-4.1874,-4.1874,-4.1915,-4.2065,-4.2254,-4.2482,-4.2668,-4.2867,-4.3041,-4.308,-4.2925,-4.2396,-4.2291,-4.2051,-4.1265,-4.116,-4.095,-4.0367,-4.0292,-4.0068,-3.9448,-3.9388,-3.9388,-3.9388,-3.9388,-3.9388,-3.9388,-3.9388,-3.9394,-3.9305,-3.9305,-3.9275,-3.92,-3.92,-3.92,-3.92,-3.92,-3.92,-3.92,-3.92,-3.8506,-2.7391,-2.7845,-2.8598,-3.027,-3.0782,-3.1081,-3.1845,-3.2216,-3.2511,-3.2862,-3.3389,-3.3894,-3.4147,-3.4829,-3.5391,-3.5681,-3.6539,-3.7231,-3.7484,-3.8369,-3.9184,-3.9718,-3.9873,-4.0055,-4.0323,-4.0337,-4.0421,-4.0674,-4.0702,-4.0702,-4.0702,-4.0702,-4.0414,-3.9873,-3.9415,-3.8962,-3.8398,-3.6984,-3.6287,-3.6283,-3.5308,-3.4775,-3.4775,-3.4775,-3.5078,-3.562,-3.6181,-3.6405,-3.6405,-3.6405,-3.6405,-3.6405,-3.6405,-3.6405,-3.6405,-3.6405,-3.6405,-3.6405,-3.6405,-3.6405,-3.6499,-3.7049,-3.7222,-3.7441,-3.8527,-3.9108,-3.9637,-4.0603,-4.1184,-4.1577,-4.1995,-4.2092,-4.2092,-4.2092,-4.2242,-4.2474,-4.2662,-4.2835,-4.3076,-4.325,-4.329,-4.32,-4.297,-4.2925,-4.2836,-4.2551,-4.1863,-4.128,-4.101,-4.0965,-4.0726,-4.0053,-3.9993,-3.9828,-3.9418,-3.9388,-3.9388,-3.9388,-3.9388,-3.9388,-3.9388,-3.9388,-3.9388,-3.9388,-3.9388,-3.9388,-3.9388,-3.9388,-3.9388,-3.9388,-3.9388,-3.911,-2.8358,-2.9174,-2.9997,-3.1403,-3.1738,-3.1907,-3.2511,-3.2665,-3.2834,-3.3403,-3.3894,-3.4301,-3.4638,-3.5475,-3.6159,-3.6328,-3.7203,-3.7962,-3.8145,-3.91,-3.9845,-4.0013,-4.0421,-4.0702,-4.0702,-4.0702,-4.0702,-4.0702,-4.0702,-4.0702,-4.0702,-4.0428,-3.9963,-3.9208,-3.8669,-3.807,-3.7399,-3.6389,-3.5895,-3.588,-3.515,-3.4775,-3.4775,-3.4884,-3.5126,-3.5524,-3.6038,-3.6275,-3.6323,-3.6358,-3.6405,-3.6405,-3.6405,-3.6405,-3.6405,-3.6405,-3.6405,-3.6405,-3.6405,-3.6405,-3.6499,-3.7176,-3.7407,-3.7658,-3.9019,-3.9448,-3.9637,-4.0659,-4.093,-4.0972,-4.1241,-4.1283,-4.1367,-4.1633,-4.1785,-4.202,-4.2526,-4.2769,-4.2955,-4.317,-4.325,-4.329,-4.329,-4.329,-4.329,-4.329,-4.2521,-4.1848,-4.1707,-4.1527,-4.119,-4.0726,-4.0666,-4.0397,-3.9753,-3.9694,-3.9619,-3.9388,-3.9388,-3.9388,-3.9388,-3.9388,-3.9388,-3.9388,-3.9388,-3.9388,-3.9388,-3.9388,-3.9388,-3.9388,-3.9388,-3.9388,-2.8449,-2.9386,-3.0446,-3.1997,-3.237,-3.2539,-3.3122,-3.3262,-3.3431,-3.4048,-3.4189,-3.4568,-3.5822,-3.6075,-3.63,-3.6866,-3.7484,-3.8116,-3.879,-3.9422,-4.0013,-4.0603,-4.0688,-4.0702,0.0,-4.0702,-4.0702,-4.0702,-4.0702,-4.0702,-4.0702,-3.9785,-3.9239,-3.921,-3.7368,-3.6367,-3.6332,-3.5343,-3.4823,-3.4847,-3.4835,-3.4775,-3.4823,-3.5078,-3.5223,-3.5223,-3.5764,-3.6015,-3.6015,-3.6275,-3.6405,-3.6405,-3.6405,-3.6405,-3.6405,-3.6405,-3.6405,-3.6405,-3.6405,-3.6405,-3.6405,-3.6452,-3.6452,-3.6452,-3.6499,-3.6546,-3.6722,-3.7671,-3.7946,-3.8115,-3.9033,-3.9299,-3.9519,-4.0432,-4.0646,-4.1,-4.2172,-4.2581,-4.2769,-4.2996,-4.3155,-4.329,-4.329,-4.329,-4.329,-4.329,-4.326,-4.3045,-4.2455,-4.1811,-4.1407,-4.1354,-4.1354,-4.1085,-4.0427,-4.0367,-4.0098,-3.9454,-3.9388,-3.9388,-3.9388,-3.9388,-3.9388,-3.9388,-3.9388,-3.9388,-3.9388,-3.9388,-3.9388,-3.9388,-3.9388,-3.9388,-2.9693,-3.0758,-3.1564,-3.2709,-3.3016,-3.3073,-3.3234,-3.3599,-3.395,-3.4161,-3.4885,-3.5574,-3.6033,-3.6441,-3.6778,-3.695,-3.7903,-3.8663,-3.8874,-3.9746,-4.0463,-4.0674,-4.0702,-4.0702,0.0,0.0,0.0,-4.0702,-4.0702,-4.0702,-4.0702,-3.9733,-3.8908,-3.8283,-3.701,-3.5988,-3.5295,-3.4969,-3.4775,-3.4775,-3.4775,-3.4775,-3.4823,-3.5078,-3.5223,-3.5223,-3.5764,-3.6015,-3.6015,-3.6275,-3.6405,-3.6405,-3.6405,-3.6405,-3.6405,-3.6405,-3.6405,-3.6405,-3.6405,-3.6405,-3.6405,-3.6405,-3.6405,-3.6499,-3.7129,-3.7315,-3.7533,-3.8464,-3.872,-3.881,-3.9121,-3.9637,-4.0202,-4.0504,-4.1226,-4.1895,-4.2295,-4.2541,-4.2769,-4.2955,-4.3036,-4.3155,-4.329,-4.329,-4.329,-4.329,-4.329,-4.3215,-4.303,-4.2806,-4.2506,-4.2111,-4.2066,-4.1796,-4.1115,-4.1055,-4.095,-4.0726,-4.0307,-4.0068,-4.0068,-3.9649,-3.9388,-3.9388,-3.9388,-3.9388,-3.9388,-3.9388,-3.9388,-3.9388,-3.9388,-3.9388,-3.0583,-3.1685,-3.2542,-3.3157,-3.329,-3.329,-3.329,-3.3768,-3.4259,-3.452,-3.5363,-3.6059,-3.5986,-3.6518,-3.69,-3.6573,-3.7872,-3.8902,-3.8902,-3.9929,-4.0702,-4.0702,-4.0702,-4.0702,-4.0702,0.0,0.0,-4.0702,-4.0702,-4.0702,-4.0702,-3.9414,-3.8419,-3.7808,-3.6461,-3.5427,-3.4823,-3.4775,-3.4775,-3.4775,-3.4775,-3.4775,-3.4835,-3.4981,-3.5078,-3.5078,-3.562,-3.5872,-3.5908,-3.6275,-3.6405,-3.6405,-3.6405,-3.6405,-3.6405,-3.6405,-3.6405,-3.6405,-3.6405,-3.6405,-3.6405,-3.6405,-3.6405,-3.6499,-3.7129,-3.7315,-3.7441,-3.8056,-3.8179,-3.8179,-3.8179,-3.8899,-3.9681,-4.0029,-4.0958,-4.1854,-4.2228,-4.2474,-4.2648,-4.2835,-4.2955,-4.3076,-4.325,-4.329,-4.329,-4.329,-4.329,-4.329,-4.329,-4.329,-4.3125,-4.2746,-4.2701,-4.2447,-4.1826,-4.1767,-4.1677,-4.1437,-4.0995,-4.0756,-4.0756,-4.0337,-4.0113,-4.0113,-3.9888,-3.9768,-3.9768,-3.9529,-3.9508,-3.9768,-3.9768,-3.9903,-3.1086,-3.2177,-3.329,-3.329,-3.329,-3.329,-3.329,-3.3782,-3.4399,-3.5034,-3.5644,-3.5994,-3.576,-3.6387,-3.6691,-3.591,-3.7507,-3.8874,-3.8902,-3.9901,-4.0674,-4.0702,-4.0702,-4.0702,-4.0702,-4.0702,0.0,-4.0702,0.0,-4.0702,-4.0645,-3.885,-3.7763,-3.7717,-3.5798,-3.4775,-3.4775,-3.4775,-3.4775,-3.4775,-3.4775,-3.4775,-3.4775,-3.4775,-3.4823,-3.4823,-3.5368,-3.562,-3.5668,-3.6168,-3.6405,-3.6405,-3.6405,-3.6405,-3.6405,-3.6405,-3.6405,-3.6405,-3.6405,-3.6405,-3.6405,-3.6405,-3.6405,-3.6405,-3.6405,-3.6405,-3.6405,-3.6405,-3.6405,-3.6405,-3.6405,-3.7083,-3.8024,-3.8988,-3.9899,-4.0873,-4.1856,-4.2242,-4.2474,-4.2648,-4.2875,-4.3076,-4.325,-4.329,-4.329,-4.329,-4.329,-4.329,-4.329,-4.329,-4.329,-4.329,-4.329,-4.309,-4.25,-4.2455,-4.2186,-4.1519,-4.1444,-4.1467,-4.1467,-4.1437,-4.1422,-4.1422,-4.0771,-4.0442,-4.0442,-3.9828,-3.9843,-4.0442,-4.0442,-4.0786,-3.2415,-3.301,-3.329,-3.329,-3.329,-3.329,-3.329,-3.4155,-3.4829,-3.4534,-3.5166,-3.5833,-3.5986,-3.6018,-3.6163,-3.6612,-3.7506,-3.8313,-3.8846,-3.9563,-4.0196,-4.0645,-4.0702,-4.0702,-4.0702,-4.0702,0.0,0.0,-4.0702,-4.0372,-3.9621,-3.8432,-3.7441,-3.6696,-3.5488,-3.4775,-3.4775,-3.4775,-3.4775,-3.4775,-3.4775,-3.4775,-3.4775,-3.4775,-3.4932,-3.5126,-3.5464,-3.5716,-3.5908,-3.6275,-3.6405,-3.6405,-3.6405,-3.6405,-3.6405,-3.6405,-3.6405,-3.6405,-3.6405,-3.6405,-3.6405,-3.6405,-3.6405,-3.6405,-3.6405,-3.6405,-3.6405,-3.6405,-3.6405,-3.6405,-3.6405,-3.7083,-3.8024,-3.8988,-3.9899,-4.0873,-4.1856,-4.2242,-4.2474,-4.2648,-4.297,-4.325,-4.329,-4.329,-4.329,-4.329,-4.329,-4.329,-4.329,-4.329,-4.329,-4.329,-4.329,-4.323,-4.309,-4.309,-4.3015,-4.2811,-4.2372,-4.2156,-4.2156,-4.1677,-4.1422,-4.1422,-4.122,-4.113,-4.113,-4.0965,-4.0965,-4.113,-4.113,-4.122,-3.3073,-3.329,-3.329,-3.329,-3.329,-3.3361,-3.3627,-3.3971,-3.421,-3.4141,-3.4267,-3.4419,-3.4365,-3.4912,-3.5437,-3.5762,-3.6993,-3.8131,-3.8818,-3.9436,-4.0013,-4.0631,-4.0702,-4.0702,-4.0702,-4.0702,-4.0702,0.0,-4.0272,-3.9809,-3.9241,-3.7906,-3.6871,-3.632,-3.5343,-3.4775,-3.4775,-3.4775,-3.4775,-3.4775,-3.4775,-3.4775,-3.4775,-3.4775,-3.4884,-3.503,0.0,-3.5668,-3.586,-3.6228,-3.6405,-3.6405,-3.6405,-3.6405,-3.6405,-3.6405,-3.6405,-3.6405,-3.6405,-3.6405,-3.6405,-3.6405,-3.6405,-3.6405,-3.6405,-3.6405,-3.6405,-3.6405,-3.6405,-3.6405,-3.6405,-3.7083,-3.8024,-3.8988,-3.9899,-4.0873,-4.1856,-4.2242,-4.2474,-4.2769,-4.309,-4.329,-4.329,-4.329,-4.329,-4.329,-4.329,-4.329,-4.329,-4.329,-4.329,-4.329,-4.329,-4.329,-4.329,-4.329,-4.329,-4.329,-4.2985,-4.2776,-4.2776,-4.2432,-4.2237,-4.2237,-4.1953,-4.1856,-4.1856,-4.1557,-4.1572,-4.1856,-4.1856,-4.1968,-3.329,-3.329,-3.329,-3.329,-3.329,-3.3417,-3.3842,-3.3422,-3.3091,-3.3528,-3.3076,-3.2512,-3.2193,-3.3567,-3.4646,-3.4411,-3.6279,-3.8032,-3.8804,-3.9366,-3.9915,-4.0617,-4.0702,-4.0702,-4.0702,-4.0702,-4.0702,-4.0702,-3.9766,-3.9166,-3.9033,-3.7402,-3.6367,-3.6083,-3.5247,-3.4775,-3.4775,-3.4775,-3.4775,-3.4775,-3.4775,-3.4775,-3.4775,-3.4775,-3.4823,-3.492,0.0,0.0,-3.5764,-3.6228,-3.6405,-3.6405,-3.6405,-3.6405,-3.6405,-3.6405,-3.6405,-3.6405,-3.6405,-3.6405,-3.6405,-3.6405,-3.6405,-3.6405,-3.6405,-3.6405,-3.6405,-3.6405,-3.6405,-3.6405,-3.6405,-3.6989,-3.7841,-3.881,-3.9724,-4.0703,-4.1675,-4.2187,-4.2541,-4.2915,-4.3155,-4.329,-4.329,-4.329,-4.329,-4.329,-4.329,-4.329,-4.329,-4.329,-4.329,-4.329,-4.329,-4.329,-4.329,-4.329,-4.329,-4.329,-4.329,-4.329,-4.329,-4.329,-4.329,-4.329,-4.2776,-4.253,-4.253,-4.1961,-4.1961,-4.253,-4.253,-4.2791,-3.329,-3.329,-3.329,-3.329,-3.329,-3.315,-3.2599,-3.2727,-3.2698,-3.1651,-3.1565,-3.1707,-3.1837,-3.2896,-3.398,-3.4658,-3.6113,-3.754,-3.8747,-3.9,-3.9493,-4.0561,-4.0702,-4.0702,-4.0702,-4.0702,0.0,0.0,0.0,-3.8854,-3.8069,-3.7704,-3.679,-3.5102,-3.4872,-3.4775,-3.4775,-3.4775,-3.4775,-3.4775,-3.4775,-3.4775,-3.4775,-3.4775,-3.503,-3.5476,0.0,0.0,-3.6275,-3.6358,-3.6405,-3.6405,-3.6405,-3.6405,-3.6405,-3.6405,-3.6405,-3.6405,-3.6405,-3.6405,-3.6405,-3.6405,-3.6405,-3.6405,-3.6405,-3.6405,-3.6405,-3.6405,-3.6405,-3.6405,-3.6405,-3.6499,-3.6862,-3.7808,-3.8765,-3.9681,-4.0646,-4.1784,-4.2729,-4.2941,-4.3155,-4.329,-4.329,-4.329,-4.329,-4.329,-4.329,-4.329,-4.329,-4.329,-4.329,-4.329,-4.329,-4.329,-4.329,-4.329,-4.329,-4.329,-4.329,-4.329,-4.329,-4.329,-4.329,-4.329,-4.3185,-4.3125,-4.3125,-4.3006,-4.3006,-4.3125,-4.3125,-4.3185,-3.329,-3.329,-3.329,-3.329,-3.329,-3.317,-3.2664,-3.2226,-3.1677,-3.0907,-3.0279,-3.0041,-3.0401,-3.1295,-3.2485,-3.3927,-3.5162,-3.6492,-3.8146,-3.8691,-3.9227,-4.0123,-4.0518,-4.0702,-4.0702,-4.0702,-4.0702,-4.0702,0.0,-3.8988,-3.8554,-3.7553,-3.632,-3.4823,-3.4775,-3.4775,-3.4775,-3.4775,-3.4775,-3.4775,-3.4775,-3.4775,-3.4775,-3.4775,-3.492,-3.5223,-3.5476,0.0,-3.5991,-3.6263,-3.6405,-3.6405,-3.6405,-3.6405,-3.6405,-3.6405,-3.6405,-3.6405,-3.6405,-3.6405,-3.6405,-3.6405,-3.6405,-3.6405,-3.6405,-3.6405,-3.6405,-3.6405,-3.6405,-3.6405,-3.6405,-3.6405,-3.664,-3.7592,-3.8899,-4.0073,-4.066,-4.1784,-4.2769,-4.2955,-4.3155,-4.329,-4.329,-4.329,-4.329,-4.329,-4.329,-4.329,-4.329,-4.329,-4.329,-4.329,-4.329,-4.329,-4.329,-4.329,-4.329,-4.329,-4.329,-4.329,-4.329,-4.329,-4.329,-4.329,-4.329,-4.329,-4.329,-4.329,-4.329,-4.329,-4.329,-4.329,-3.329,-3.329,-3.329,-3.329,-3.329,-3.3176,-3.2671,-3.1697,-3.0762,-3.0256,-2.9255,-2.8643,-2.9051,-2.9952,-3.1193,-3.3063,-3.4232,-3.559,-3.7604,-3.8454,-3.913,-3.9743,-4.0334,-4.0702,-4.0702,-4.0702,0.0,-4.0702,0.0,0.0,-3.8617,-3.6938,-3.5619,-3.4823,-3.4775,-3.4775,-3.4775,-3.4775,-3.4775,-3.4775,-3.4775,-3.4775,-3.4775,-3.4775,-3.4835,-3.4932,-3.532,0.0,0.0,-3.6133,-3.637,-3.6405,-3.6405,-3.6405,-3.6405,-3.6405,-3.6405,-3.6405,-3.6405,-3.6405,-3.6405,-3.6405,-3.6405,-3.6405,-3.6405,-3.6405,-3.6405,-3.6405,-3.6405,-3.6405,-3.6405,-3.6405,-3.664,-3.7592,-3.9108,-4.0461,-4.0901,-4.1922,-4.2795,-4.2996,-4.3155,-4.329,-4.329,-4.329,-4.329,-4.329,-4.329,-4.329,-4.329,-4.329,-4.329,-4.329,-4.329,-4.329,-4.329,-4.329,-4.329,-4.329,-4.329,-4.329,-4.329,-4.329,-4.329,-4.329,-4.329,-4.329,-4.329,-4.329,-4.329,-4.329,-4.329,-4.329,-3.329,-3.329,-3.329,-3.329,-3.329,-3.2923,-3.1445,-3.0996,-3.0494,-2.8983,-2.8574,-2.8522,-2.857,-2.9692,-3.1118,-3.2607,-3.403,-3.559,-3.7604,-3.8454,-3.913,-3.9743,-4.0334,-4.0702,-4.0702,-4.0702,-4.0702,-4.0702,0.0,0.0,-3.6684,-3.5523,-3.4872,-3.4775,-3.4775,-3.4775,-3.4775,-3.4775,-3.4775,-3.4775,-3.4775,-3.4775,-3.4775,-3.4775,-3.492,-3.5175,0.0,0.0,0.0,-3.6015,-3.6193,-3.6405,-3.6405,-3.6405,-3.6405,-3.6405,-3.6405,-3.6405,-3.6405,-3.6405,-3.6405,-3.6405,-3.6405,-3.6405,-3.6405,-3.6405,-3.6405,-3.6405,-3.6405,-3.6405,-3.6405,-3.6405,-3.664,-3.7592,-3.8693,-3.9871,-4.0802,-4.2032,-4.2996,-4.2981,-4.3155,-4.329,-4.329,-4.329,-4.329,-4.329,-4.329,-4.329,-4.329,-4.329,-4.329,-4.329,-4.329,-4.329,-4.329,-4.329,-4.329,-4.329,-4.329,-4.329,-4.329,-4.329,-4.329,-4.329,-4.329,-4.329,-4.329,-4.329,-4.329,-4.329,-4.329,-4.329,-3.3178,-3.329,-3.329,-3.329,-3.329,-3.2874,-3.1267,-3.0895,-3.0443,-2.8843,-2.851,-2.851,-2.851,-2.8946,-3.0094,-3.2398,-3.2816,-3.3674,-3.6222,-3.7442,-3.8145,-3.8394,-3.9788,-4.0702,-4.0702,0.0,-4.0459,0.0,0.0,0.0,-3.6402,-3.5906,-3.544,-3.4823,-3.4775,-3.4775,-3.4775,-3.4775,-3.4775,-3.4775,-3.4775,-3.4775,-3.4775,-3.4775,-3.4884,-3.4981,0.0,0.0,0.0,-3.5872,-3.6051,-3.6193,-3.6323,-3.6405,-3.6405,-3.6405,-3.6405,-3.6405,-3.6405,-3.6405,-3.6405,-3.6405,-3.6405,-3.6405,-3.6405,-3.6405,-3.6405,-3.6405,-3.6405,-3.6405,-3.6405,-3.6405,-3.6499,-3.6862,-3.8175,-3.9414,-3.9823,-4.0986,-4.214,-4.2714,-4.2673,-4.2699,-4.321,-4.329,-4.329,-4.329,-4.329,-4.329,-4.329,-4.329,-4.329,-4.329,-4.329,-4.329,-4.329,-4.329,-4.329,-4.329,-4.329,-4.329,-4.329,-4.329,-4.329,-4.329,-4.329,-4.329,-4.329,-4.329,-4.329,-4.329,-4.329,-4.329,-3.3122,-3.329,-3.329,-3.329,-3.3122,-3.2596,-3.123,-3.0707,-3.0152,-2.8764,-2.851,-2.851,-2.851,-2.851,-2.9355,-3.1963,-3.2063,-3.2731,-3.5332,-3.6989,-3.7896,-3.7909,-3.9578,-4.0702,-4.0702,-4.0702,-4.0416,0.0,0.0,0.0,0.0,-3.6461,-3.5858,-3.4823,-3.4775,-3.4775,-3.4775,-3.4775,-3.4775,-3.4775,-3.4775,-3.4775,-3.4775,-3.4775,-3.4775,-3.4823,0.0,0.0,0.0,-3.5716,-3.5968,-3.6146,-3.6323,-3.6405,-3.6405,-3.6405,-3.6405,-3.6405,-3.6405,-3.6405,-3.6405,-3.6405,-3.6405,-3.6405,-3.6405,-3.6405,-3.6405,-3.6405,-3.6405,-3.6405,-3.6405,-3.6405,-3.6405,-3.6405,-3.7675,-3.8871,-3.8881,-3.9929,-4.1197,-4.2196,-4.1893,-4.1838,-4.3076,-4.309,-4.2996,-4.325,-4.329,-4.329,-4.329,-4.329,-4.329,-4.329,-4.329,-4.329,-4.329,-4.329,-4.329,-4.329,-4.329,-4.329,-4.329,-4.329,-4.329,-4.329,-4.329,-4.329,-4.329,-4.329,-4.329,-4.329,-4.329,-4.329,-3.3122,-3.329,-3.329,-3.329,-3.2704,-3.1892,-3.1082,-3.0291,-2.9484,-2.8657,-2.851,-2.851,-2.851,-2.851,-2.9156,-3.1091,-3.2196,-3.3476,-3.5426,-3.7562,-3.8902,-3.8902,-3.9957,-4.0702,-4.0702,-4.0702,0.0,0.0,0.0,0.0,0.0,-3.6837,-3.5858,-3.4823,-3.4775,-3.4775,-3.4775,-3.4775,-3.4775,-3.4775,-3.4775,-3.4775,-3.4775,-3.4775,-3.4775,0.0,0.0,0.0,0.0,-3.562,-3.5943,-3.6405,-3.6405,-3.6405,-3.6405,-3.6405,-3.6405,-3.6405,-3.6405,-3.6405,-3.6405,-3.6405,-3.6405,-3.6405,-3.6405,-3.6405,-3.6405,-3.6405,-3.6405,-3.6405,-3.6405,-3.6405,-3.6405,-3.6405,-3.7289,-3.8121,-3.8107,-3.905,-4.0232,-4.1378,-4.0845,-4.0845,-4.2941,-4.2578,-4.2333,-4.317,-4.329,-4.329,-4.329,-4.329,-4.329,-4.329,-4.329,-4.329,-4.329,-4.329,-4.329,-4.329,-4.329,-4.329,-4.329,-4.329,-4.329,-4.329,-4.329,-4.329,-4.329,-4.329,-4.329,-4.329,-4.329,-4.329,-3.3122,-3.329,-3.3171,-3.2618,-3.2268,-3.1746,-3.0367,-2.9884,-2.9484,-2.8657,-2.851,-2.851,-2.851,-2.851,-2.9128,-3.1079,-3.1661,-3.2529,-3.4479,-3.6604,-3.7935,-3.7954,-3.9573,-4.0702,0.0,0.0,0.0,0.0,0.0,0.0,0.0,-3.7487,-3.6555,-3.4872,-3.4775,-3.4775,-3.4775,-3.4775,-3.4775,-3.4775,-3.4775,-3.4775,-3.4775,-3.4775,0.0,0.0,0.0,0.0,0.0,-3.5464,-3.5704,-3.5895,-3.6275,-3.6405,-3.6405,-3.6405,-3.6405,-3.6405,-3.6405,-3.6405,-3.6405,-3.6405,-3.6405,-3.6405,-3.6405,-3.6405,-3.6405,-3.6405,-3.6405,-3.6405,-3.6405,-3.6405,-3.6405,-3.6405,-3.7178,-3.7879,-3.7893,-3.8342,-3.9104,-4.0232,-4.0304,-4.0675,-4.214,-4.2659,-4.2996,-4.325,-4.329,-4.329,-4.329,-4.329,-4.329,-4.329,-4.329,-4.329,-4.329,-4.329,-4.329,-4.329,-4.329,-4.329,-4.329,-4.329,-4.329,-4.329,-4.329,-4.329,-4.329,-4.329,-4.329,-4.329,-4.329,-4.329,-3.2834,-3.286,-3.2654,-3.1856,-3.1415,-3.0932,-2.9922,-2.9484,-2.9106,-2.859,-2.851,-2.851,-2.851,-2.851,-2.9048,-3.0655,-3.1185,-3.2082,-3.4012,-3.6159,-3.7789,-3.8596,-3.988,0.0,0.0,0.0,0.0,0.0,0.0,0.0,0.0,-3.7441,-3.6508,-3.4823,-3.4775,-3.4775,-3.4775,-3.4775,-3.4775,-3.4775,-3.4775,-3.4775,-3.4775,-3.4775,0.0,0.0,0.0,0.0,0.0,-3.532,-3.5572,-3.5764,-3.6146,-3.6323,-3.6405,-3.6405,-3.6405,-3.6405,-3.6405,-3.6405,-3.6405,-3.6405,-3.6405,-3.6405,-3.6405,-3.6405,-3.6405,-3.6405,-3.6405,-3.6405,-3.6405,-3.6405,-3.6405,-3.6405,-3.6832,-3.7278,-3.7289,-3.7453,-3.7991,-3.9166,-3.9285,-3.9754,-4.1686,-4.2155,-4.2522,-4.321,-4.329,-4.329,-4.329,-4.329,-4.329,-4.329,-4.329,-4.329,-4.329,-4.329,-4.329,-4.329,-4.329,-4.329,-4.329,-4.329,-4.329,-4.329,-4.329,-4.329,-4.329,-4.329,-4.329,-4.329,-4.329,-4.329,0.0,-3.216,-3.1978,-3.1119,-3.0342,-2.9742,-2.9626,-2.904,0.0,-2.851,-2.851,-2.851,-2.851,-2.851,-2.8859,-2.9917,-3.0881,-3.2164,-3.4025,-3.6201,-3.8376,-4.0462,-4.0702,0.0,-4.0702,0.0,0.0,0.0,0.0,0.0,0.0,-3.6837,-3.5858,-3.4823,-3.4775,-3.4775,-3.4775,-3.4775,-3.4775,-3.4775,-3.4775,-3.4775,-3.4775,-3.4775,0.0,0.0,0.0,0.0,0.0,-3.5223,-3.5524,-3.5968,-3.6003,-3.6193,-3.6405,-3.6405,-3.6405,-3.6405,-3.6405,-3.6405,-3.6405,-3.6405,-3.6405,-3.6405,-3.6405,-3.6405,-3.6405,-3.6405,-3.6405,-3.6405,-3.6405,-3.6405,-3.6405,-3.6405,-3.6405,-3.6405,-3.6405,-3.6534,-3.7023,-3.8192,-3.7972,-3.8504,-4.138,-4.1282,-4.1366,-4.3036,-4.329,-4.329,-4.329,-4.329,-4.329,-4.329,-4.329,-4.329,-4.329,-4.329,-4.329,-4.329,-4.329,-4.329,-4.329,-4.329,-4.329,-4.329,-4.329,-4.329,-4.329,-4.329,-4.329,-4.329,-4.329,-4.329,-3.2318,0.0,-3.2668,-3.1267,-3.0745,-3.0291,0.0,-2.863,-2.851,-2.851,-2.851,-2.851,-2.851,-2.851,-2.8859,-2.9917,-3.1442,-3.2905,-3.4149,-3.6769,-3.9089,-4.0547,-4.0702,-4.0702,0.0,0.0,0.0,0.0,0.0,0.0,0.0,-3.6837,-3.5858,-3.4823,-3.4775,-3.4775,-3.4775,-3.4775,-3.4775,-3.4775,-3.4775,-3.4775,-3.4775,-3.4775,0.0,0.0,0.0,0.0,-3.4932,-3.532,-3.5572,-3.5716,-3.6133,-3.6323,-3.6405,-3.6405,-3.6405,-3.6405,-3.6405,-3.6405,-3.6405,-3.6405,-3.6405,-3.6405,-3.6405,-3.6405,-3.6405,-3.6405,-3.6405,-3.6405,-3.6405,-3.6405,-3.6405,-3.6405,-3.6405,-3.6405,-3.6405,-3.6534,-3.6849,-3.7315,-3.805,-3.9073,-4.0646,-4.1891,-4.2825,-4.323,-4.329,-4.329,-4.329,-4.329,-4.329,-4.329,-4.329,-4.329,-4.329,-4.329,-4.329,-4.329,-4.329,-4.329,-4.329,-4.329,-4.329,-4.329,-4.329,-4.329,-4.329,-4.329,-4.329,-4.329,-4.329,-4.329,-3.2775,-3.2704,-3.2354,-3.0745,-3.0632,-3.0481,-2.8882,-2.8776,-2.8961,-2.859,-2.851,-2.851,-2.851,-2.905,-2.9745,-3.0581,-3.1726,-3.3129,-3.4907,-3.7345,-3.9366,-4.0561,-4.0702,0.0,0.0,0.0,0.0,0.0,0.0,0.0,0.0,-3.6837,-3.5858,-3.4823,-3.4775,-3.4775,-3.4775,-3.4775,-3.4775,-3.4775,-3.4775,-3.4775,-3.4775,-3.4775,0.0,0.0,0.0,0.0,-3.4835,-3.5223,-3.5464,-3.562,-3.6051,-3.6275,-3.6405,-3.6405,-3.6405,-3.6405,-3.6405,-3.6405,-3.6405,-3.6405,-3.6405,-3.6405,-3.6405,-3.6405,-3.6405,-3.6405,-3.6405,-3.6405,-3.6405,-3.6405,-3.6405,-3.6405,-3.6405,-3.6405,-3.6405,-3.6534,-3.6722,-3.6909,-3.7651,-3.8715,-4.0189,-4.1312,-4.2349,-4.316,-4.329,-4.329,-4.329,-4.329,-4.329,-4.329,-4.329,-4.329,-4.329,-4.329,-4.329,-4.329,-4.329,-4.329,-4.329,-4.329,-4.329,-4.329,-4.329,-4.329,-4.329,-4.329,-4.329,-4.329,-4.329,-4.329,-3.329,-3.281,-3.1942,-3.0456,-3.0481,-3.0557,-2.9184,-2.9211,-2.9367,-2.8816,-2.859,-2.8574,-2.8766,-2.9797,-3.084,-3.1605,-3.2298,-3.3592,-3.6025,-3.7838,-3.927,-4.0376,-4.0487,0.0,0.0,0.0,0.0,0.0,0.0,0.0,0.0,-3.6837,-3.5858,-3.4823,-3.4775,-3.4775,-3.4775,-3.4775,-3.4775,-3.4775,-3.4775,-3.4775,-3.4775,-3.4775,-3.4775,0.0,0.0,0.0,-3.4823,-3.5078,-3.5368,-3.562,-3.592,-3.6146,-3.6405,-3.6405,-3.6405,-3.6405,-3.6405,-3.6405,-3.6405,-3.6405,-3.6405,-3.6405,-3.6405,-3.6405,-3.6405,-3.6405,-3.6405,-3.6405,-3.6405,-3.6405,-3.6405,-3.6405,-3.6405,-3.6405,-3.6405,-3.6534,-3.6709,-3.6769,-3.7155,-3.805,-3.9741,-4.0232,-4.1014,-4.2835,-4.3076,-4.317,-4.329,-4.329,-4.329,-4.329,-4.329,-4.329,-4.329,-4.329,-4.329,-4.329,-4.329,-4.329,-4.329,-4.329,-4.329,-4.329,-4.329,-4.329,-4.329,-4.329,-4.329,-4.329,-4.329,-4.329,-3.329,-3.3206,-3.2895,-3.1978,-3.1291,-3.0857,-3.0594,-2.9549,-2.8843,-2.9406,-2.8961,-2.887,-3.0042,-3.0457,-3.1166,-3.2914,-3.4298,-3.5682,0.0,0.0,-3.9033,-3.941,0.0,0.0,0.0,0.0,0.0,0.0,0.0,0.0,0.0,0.0,-3.5858,-3.4823,-3.4775,-3.4775,-3.4775,-3.4775,-3.4775,-3.4775,-3.4775,-3.4775,-3.4775,-3.4775,-3.4775,0.0,0.0,-3.4775,-3.4823,-3.5078,-3.5368,-3.562,-3.592,-3.6146,-3.6405,-3.6405,-3.6405,-3.6405,-3.6405,-3.6405,-3.6405,-3.6405,-3.6405,-3.6405,-3.6405,-3.6405,-3.6405,-3.6405,-3.6405,-3.6405,-3.6405,-3.6405,-3.6405,-3.6405,-3.6405,-3.6405,-3.6405,-3.6534,-3.6769,-3.7015,-3.7307,-3.788,-3.9166,-3.9373,-4.0029,-4.1893,-4.2211,-4.2456,-4.321,-4.329,-4.329,-4.329,-4.329,-4.329,-4.329,-4.329,-4.329,-4.329,-4.329,-4.329,-4.329,-4.329,-4.329,-4.329,-4.329,-4.329,-4.329,-4.329,-4.329,-4.329,-4.329,-4.329,-3.329,-3.329,-3.3206,-3.2846,-3.2475,-3.1955,-3.1082,-3.067,-3.0443,-3.0367,-2.9704,-2.9568,-3.0996,-3.1117,-3.1676,-3.3608,-3.4507,-3.545,-3.6836,-3.7226,-3.7725,0.0,0.0,0.0,0.0,0.0,0.0,0.0,0.0,0.0,0.0,0.0,-3.5858,-3.4823,-3.4775,-3.4775,-3.4775,-3.4775,-3.4775,-3.4775,-3.4775,-3.4775,-3.4775,-3.4775,-3.4775,-3.4775,0.0,-3.4775,-3.4823,-3.5078,-3.5271,-3.5416,-3.5812,-3.6098,-3.6193,-3.637,-3.6405,-3.6405,-3.6405,-3.6405,-3.6405,-3.6405,-3.6405,-3.6405,-3.6405,-3.6405,-3.6405,-3.6405,-3.6405,-3.6405,-3.6405,-3.6405,-3.6405,-3.6405,-3.6405,-3.6405,-3.6405,-3.6452,-3.6628,-3.6815,-3.7108,-3.7664,-3.8836,-3.9135,-3.9681,-4.1029,-4.1254,-4.138,-4.1796,-4.2278,-4.2578,-4.2578,-4.3036,-4.329,-4.329,-4.329,-4.329,-4.329,-4.329,-4.329,-4.329,-4.329,-4.329,-4.329,-4.329,-4.329,-4.329,-4.329,-4.329,-4.329,-4.329,-4.329,-3.329,-3.329,-3.329,-3.329,-3.3171,-3.2753,-3.1686,-3.1636,-3.1709,-3.1267,-3.066,-3.0625,-3.2041,-3.2371,-3.2894,-3.4382,-3.443,-3.4848,-3.6373,-3.6189,-3.6379,0.0,0.0,0.0,0.0,0.0,0.0,0.0,0.0,0.0,0.0,0.0,-3.5858,-3.4823,-3.4775,-3.4775,-3.4775,-3.4775,-3.4775,-3.4775,-3.4775,-3.4775,-3.4775,-3.4775,-3.4775,-3.4775,-3.4775,-3.4775,-3.4835,-3.503,-3.5126,-3.5223,-3.5668,-3.5908,-3.6015,-3.6323,-3.6405,-3.6405,-3.6405,-3.6405,-3.6405,-3.6405,-3.6405,-3.6405,-3.6405,-3.6405,-3.6405,-3.6405,-3.6405,-3.6405,-3.6405,-3.6405,-3.6405,-3.6405,-3.6405,-3.6405,-3.6405,-3.6405,-3.6452,-3.6675,-3.6862,-3.7328,-3.8368,-3.8715,-3.9121,-4.0116,-4.0289,-4.0332,-4.0546,-4.1421,-4.199,-4.199,-4.2795,-4.329,-4.329,-4.329,-4.329,-4.329,-4.329,-4.329,-4.329,-4.329,-4.329,-4.329,-4.329,-4.329,-4.329,-4.329,-4.329,-4.329,-4.329,-4.329,-3.329,-3.329,-3.329,-3.329,-3.2739,-3.2354,-3.298,-3.2028,-3.118,-3.1856,-3.1803,-3.2093,-3.3563,-3.4681,-3.544,-3.5561,-3.4856,-3.4848,-3.6373,0.0,0.0,0.0,0.0,0.0,0.0,0.0,0.0,0.0,0.0,0.0,0.0,0.0,0.0,-3.4823,-3.4775,-3.4775,-3.4775,-3.4775,-3.4775,-3.4775,-3.4775,-3.4775,-3.4775,-3.4775,-3.4775,-3.4775,-3.4775,-3.4775,-3.4775,-3.4823,-3.4981,-3.5223,-3.5223,-3.5572,-3.6015,-3.6323,-3.6405,-3.6405,-3.6405,-3.6405,-3.6405,-3.6405,-3.6405,-3.6405,-3.6405,-3.6405,-3.6405,-3.6405,-3.6405,-3.6405,-3.6405,-3.6405,-3.6405,-3.6405,-3.6405,-3.6405,-3.6405,-3.6405,-3.6452,-3.6675,-3.6722,-3.6909,-3.7492,-3.7585,-3.8018,-3.9121,-3.9285,-3.9637,-4.0504,-4.1421,-4.199,-4.199,-4.2795,-4.329,-4.329,-4.329,-4.329,-4.329,-4.329,-4.329,-4.329,-4.329,-4.329,-4.329,-4.329,-4.329,-4.329,-4.329,-4.329,-4.329,-4.329,-4.329,-3.329,-3.329,-3.329,-3.329,-3.3086,-3.2931,-3.3241,-3.2439,-3.1963,-3.3137,-3.2931,-3.28,-3.3568,-3.4312,-3.4815,-3.4815,-3.4069,-3.4105,0.0,0.0,0.0,0.0,0.0,0.0,0.0,0.0,0.0,0.0,0.0,0.0,0.0,0.0,0.0,-3.4823,-3.4775,-3.4775,-3.4775,-3.4775,-3.4775,-3.4775,-3.4775,-3.4775,-3.4775,-3.4775,-3.4775,-3.4775,-3.4775,-3.4775,-3.4775,-3.4775,-3.4884,-3.4981,-3.5126,-3.5524,-3.6015,-3.6098,-3.6275,-3.6405,-3.6405,-3.6405,-3.6405,-3.6405,-3.6405,-3.6405,-3.6405,-3.6405,-3.6405,-3.6405,-3.6405,-3.6405,-3.6405,-3.6405,-3.6405,-3.6405,-3.6405,-3.6405,-3.6405,-3.6405,-3.6452,-3.6675,-3.6709,-3.6862,-3.7413,-3.7505,-3.7677,-3.8304,-3.8395,-3.8517,-3.8877,-4.023,-4.1113,-4.1113,-4.2441,-4.329,-4.329,-4.329,-4.329,-4.329,-4.329,-4.329,-4.329,-4.329,-4.329,-4.329,-4.329,-4.329,-4.329,-4.329,-4.329,-4.329,-4.329,-4.329,-3.329,-3.329,-3.329,-3.329,-3.3122,-3.298,-3.3241,-3.2846,-3.2798,-3.3954,-3.4067,-3.4118,-3.4525,-3.4659,-3.4733,0.0,-3.3775,-3.3534,0.0,0.0,0.0,0.0,0.0,0.0,0.0,0.0,0.0,0.0,0.0,0.0,0.0,0.0,0.0,0.0,-3.4534,-3.4619,-3.4775,-3.4775,-3.4775,-3.4775,-3.4775,-3.4775,-3.4775,-3.4775,-3.4775,-3.4775,-3.4775,-3.4775,-3.4775,-3.4775,-3.4775,-3.4835,-3.5078,-3.5476,-3.5872,-3.5968,-3.6193,-3.6405,-3.6405,-3.6405,-3.6405,-3.6405,-3.6405,-3.6405,-3.6405,-3.6405,-3.6405,-3.6405,-3.6405,-3.6405,-3.6405,-3.6405,-3.6405,-3.6405,-3.6405,-3.6405,-3.6405,-3.6405,-3.6452,-3.6675,-3.6709,-3.6862,-3.7413,-3.7505,-3.7598,-3.7854,-3.79,-3.79,-3.79,-3.9193,-4.0375,-4.0986,-4.24,-4.329,-4.329,-4.329,-4.329,-4.329,-4.329,-4.329,-4.329,-4.329,-4.329,-4.329,-4.329,-4.329,-4.329,-4.329,-4.329,-4.329,-4.329,-4.329,-3.329,-3.329,-3.329,-3.329,-3.2704,-3.2318,-3.3122,-3.329,-3.3473,-3.409,-3.5222,-3.6262,-3.6866,-3.6282,-3.5655,-3.5655,-3.4152,0.0,0.0,0.0,0.0,0.0,0.0,0.0,0.0,0.0,0.0,0.0,0.0,0.0,0.0,0.0,0.0,0.0,0.0,0.0,-3.4763,-3.4775,-3.4775,-3.4775,-3.4775,-3.4775,-3.4775,-3.4775,-3.4775,-3.4775,-3.4775,-3.4775,-3.4775,-3.4775,-3.4775,-3.4835,-3.5078,-3.5368,-3.562,-3.5908,-3.6193,-3.6405,-3.6405,-3.6405,-3.6405,-3.6405,-3.6405,-3.6405,-3.6405,-3.6405,-3.6405,-3.6405,-3.6405,-3.6405,-3.6405,-3.6405,-3.6405,-3.6405,-3.6405,-3.6405,-3.6405,-3.6405,-3.6452,-3.6675,-3.6709,-3.6862,-3.74,-3.7505,-3.7598,-3.7854,-3.79,-3.79,-3.79,-3.8684,-3.9899,-4.1769,-4.2739,-4.329,-4.329,-4.329,-4.329,-4.329,-4.329,-4.329,-4.329,-4.329,-4.329,-4.329,-4.329,-4.329,-4.329,-4.329,-4.329,-4.329,-4.329,-4.329,-3.329,-3.329,-3.329,-3.329,-3.3122,-3.3051,-3.3417,-3.3286,-3.3542,-3.5181,-3.5169,-3.5103,-3.5923,-3.4815,-3.3788,-3.3788,-3.3365,0.0,0.0,0.0,0.0,0.0,0.0,0.0,0.0,0.0,0.0,0.0,0.0,0.0,0.0,0.0,0.0,0.0,0.0,0.0,-3.4222,-3.4234,-3.4414,-3.4775,-3.4775,-3.4775,-3.4775,-3.4775,-3.4775,-3.4775,-3.4775,-3.4775,-3.4775,-3.4775,-3.4775,-3.4835,-3.5078,-3.5368,-3.562,-3.5908,-3.6193,-3.6405,-3.6405,-3.6405,-3.6405,-3.6405,-3.6405,-3.6405,-3.6405,-3.6405,-3.6405,-3.6405,-3.6405,-3.6405,-3.6405,-3.6405,-3.6405,-3.6405,-3.6405,-3.6405,-3.6405,-3.6405,-3.6405,-3.6499,-3.6499,-3.664,-3.7108,-3.7214,-3.7353,-3.7854,-3.79,-3.8103,-3.8715,-3.9033,-3.9681,-4.0901,-4.1239,-4.1672,-4.2319,-4.2415,-4.2659,-4.325,-4.329,-4.329,-4.329,-4.329,-4.329,-4.329,-4.329,-4.329,-4.329,-4.329,-4.329,-4.329,-4.329,-4.329,-3.329,-3.3361,-3.3431,-3.3431,-3.3466,-3.3627,-3.3987,-3.4076,-3.4251,-3.4875,-3.5032,-3.5142,-3.5386,-3.447,0.0,-3.3232,0.0,0.0,0.0,0.0,0.0,0.0,0.0,0.0,0.0,0.0,0.0,0.0,0.0,0.0,0.0,0.0,0.0,0.0,0.0,0.0,-3.3741,-3.3741,-3.3897,-3.4222,-3.4222,-3.4318,-3.4474,-3.4679,-3.4775,-3.4775,-3.4775,-3.4775,-3.4775,-3.4775,-3.4775,-3.4835,-3.4981,-3.5271,-3.562,-3.5764,-3.6098,-3.6405,-3.6405,-3.6405,-3.6405,-3.6405,-3.6405,-3.6405,-3.6405,-3.6405,-3.6405,-3.6405,-3.6405,-3.6405,-3.6405,-3.6405,-3.6405,-3.6405,-3.6405,-3.6405,-3.6405,-3.6405,-3.6405,-3.6499,-3.6546,-3.664,-3.7015,-3.7201,-3.7366,-3.7703,-3.7854,-3.8103,-3.8639,-3.9002,-3.9417,-3.9986,-4.0375,-4.0817,-4.138,-4.1421,-4.1771,-4.2535,-4.2377,-4.257,-4.3278,-4.3315,-4.329,-4.329,-4.329,-4.329,-4.329,-4.329,-4.329,-4.329,-4.329,-4.329,-3.3326,-3.3466,-3.364,-3.364,-3.3779,-3.4039,-3.454,-3.5203,-3.5308,-3.3819,-3.4921,-3.591,-3.5032,-3.4675,-3.4217,0.0,0.0,0.0,0.0,0.0,0.0,0.0,0.0,0.0,0.0,0.0,0.0,0.0,0.0,0.0,0.0,0.0,0.0,0.0,0.0,0.0,-3.3212,-3.3224,-3.3236,0.0,-3.3284,-3.3525,-3.3934,-3.4462,-3.4727,-3.4775,-3.4775,-3.4775,-3.4775,-3.4775,-3.4775,-3.4775,-3.4835,-3.5126,-3.5572,-3.562,-3.5943,-3.6358,-3.6405,-3.6405,-3.6405,-3.6405,-3.6405,-3.6405,-3.6405,-3.6405,-3.6405,-3.6405,-3.6405,-3.6405,-3.6405,-3.6405,-3.6405,-3.6405,-3.6405,-3.6405,-3.6405,-3.6405,-3.6452,-3.6628,-3.6675,-3.6769,-3.7062,-3.7307,-3.7505,-3.7505,-3.7749,-3.79,-3.79,-3.8594,-3.9077,-3.9077,-3.9855,-4.0389,-4.0475,-4.0475,-4.0773,-4.1398,-4.0858,-4.1199,-4.2733,-4.2998,-4.3195,-4.329,-4.329,-4.329,-4.329,-4.329,-4.329,-4.329,-4.329,-4.329,-3.3536,-3.3675,-3.3862,-3.3862,-3.3951,-3.3931,-3.3487,-3.484,-3.5926,-3.511,-3.5127,-3.4992,-3.4121,-3.3386,-3.281,0.0,0.0,0.0,0.0,0.0,0.0,0.0,0.0,0.0,0.0,0.0,0.0,0.0,0.0,0.0,0.0,0.0,0.0,0.0,0.0,-3.2106,-3.2671,-3.2671,-3.2875,0.0,-3.3284,-3.3344,-3.3464,-3.3934,-3.439,-3.4775,-3.4775,-3.4775,-3.4775,-3.4775,-3.4775,-3.4823,-3.503,-3.5175,-3.532,-3.5764,-3.6015,-3.6098,-3.6323,-3.6405,-3.6405,-3.6405,-3.6405,-3.6405,-3.6405,-3.6405,-3.6405,-3.6405,-3.6405,-3.6405,-3.6405,-3.6405,-3.6405,-3.6405,-3.6405,-3.6405,-3.6405,-3.6405,-3.6405,-3.6452,-3.6452,-3.6593,-3.7015,-3.7155,-3.7307,-3.7749,-3.7854,-3.79,-3.79,-3.807,-3.8194,-3.8194,-3.8362,-3.8742,-3.9431,-3.976,-4.0152,-4.0744,-4.0236,-3.9631,-3.9086,-4.0866,-4.235,-4.329,-4.329,-4.329,-4.329,-4.329,-4.329,-4.329,-4.329,-4.329,-3.3605,-3.3799,-3.4005,-3.4122,-3.4176,-3.4045,-3.329,-3.4236,-3.5062,-3.4231,-3.4713,-3.491,-3.3641,-3.2939,0.0,0.0,0.0,0.0,0.0,0.0,0.0,0.0,0.0,0.0,0.0,0.0,0.0,0.0,0.0,0.0,0.0,-3.1705,0.0,0.0,-3.1705,-3.1849,-3.2094,-3.2094,-3.2238,-3.2503,-3.2503,-3.2647,-3.2935,-3.3646,-3.4138,-3.4414,-3.4667,-3.4775,-3.4775,-3.4775,-3.4775,-3.4835,-3.5078,-3.5271,-3.5416,-3.586,-3.6098,-3.6181,-3.637,-3.6405,-3.6405,-3.6405,-3.6405,-3.6405,-3.6405,-3.6405,-3.6405,-3.6405,-3.6405,-3.6405,-3.6405,-3.6405,-3.6405,-3.6405,-3.6405,-3.6405,-3.6405,-3.6405,-3.6405,-3.6405,-3.6405,-3.6499,-3.6734,-3.6968,-3.7261,-3.7808,-3.79,-3.79,-3.79,-3.79,-3.79,-3.79,-3.79,-3.807,-3.8549,-3.8719,-3.8989,-3.9295,-3.9013,-3.9311,-4.0448,-4.0562,-4.1063,-4.1994,-4.2877,-4.329,-4.329,-4.329,-4.329,-4.329,-4.329,-4.329,-3.3675,-3.3902,-3.4196,-3.4346,-3.4414,-3.423,-3.3555,-3.3839,-3.3923,-3.2853,-3.402,-3.4777,-3.3386,0.0,0.0,0.0,0.0,0.0,0.0,0.0,0.0,0.0,0.0,0.0,0.0,0.0,0.0,0.0,0.0,0.0,-3.1705,-3.1705,-3.1705,-3.1705,-3.1705,-3.1705,-3.1705,-3.1705,-3.1705,-3.1705,-3.1705,-3.1946,-3.2382,-3.3344,-3.3778,-3.3886,-3.4414,-3.4643,-3.4655,-3.4739,-3.4775,-3.4823,-3.503,-3.5271,-3.5572,-3.5824,-3.6098,-3.6323,-3.6358,-3.6405,-3.6405,-3.6405,-3.6405,-3.6405,-3.6405,-3.6405,-3.6405,-3.6405,-3.6405,-3.6405,-3.6405,-3.6405,-3.6405,-3.6405,-3.6405,-3.6405,-3.6405,-3.6405,-3.6405,-3.6405,-3.6452,-3.6452,-3.6452,-3.6828,-3.7261,-3.7762,-3.7854,-3.7854,-3.79,-3.79,-3.79,-3.79,-3.79,-3.79,-3.79,-3.79,-3.79,-3.79,-3.79,-3.9258,-4.2251,-4.0857,-4.021,-4.0571,-4.2397,-4.329,-4.329,-4.329,-4.329,-4.329,-4.329,-4.329,-3.4005,-3.4196,-3.438,-3.438,-3.4414,-3.438,-3.4264,-3.422,-3.3944,-3.304,-3.3342,-3.3647,0.0,0.0,0.0,0.0,0.0,0.0,0.0,0.0,0.0,0.0,0.0,0.0,0.0,0.0,0.0,0.0,0.0,0.0,-3.1705,-3.1705,-3.1705,-3.1705,-3.1705,-3.1705,-3.1705,-3.1705,-3.1705,-3.1705,-3.1705,-3.1753,-3.1837,-3.2418,-3.2947,-3.3416,-3.3874,-3.4102,-3.4138,-3.4595,-3.4775,-3.4775,-3.4823,-3.503,-3.5271,-3.556,-3.5812,-3.6098,-3.6323,-3.6405,-3.6405,-3.6405,-3.6405,-3.6405,-3.6405,-3.6405,-3.6405,-3.6405,-3.6405,-3.6405,-3.6405,-3.6405,-3.6405,-3.6405,-3.6405,-3.6405,-3.6405,-3.6405,-3.6405,-3.6405,-3.6534,-3.6675,-3.6675,-3.6909,-3.7201,-3.7505,-3.7551,-3.7657,-3.7854,-3.79,-3.79,-3.79,-3.79,-3.79,-3.79,-3.79,-3.79,-3.79,-3.79,-3.8123,-3.858,-4.0348,-4.1057,-4.059,-4.2356,-4.329,-4.329,-4.329,-4.329,-4.329,-4.329,-4.329,-3.3534,-3.4011,-3.4414,-3.4414,-3.4079,-3.3638,-3.3206,-3.2726,-3.2192,-3.1731,-3.1744,-3.2011,0.0,0.0,0.0,0.0,0.0,0.0,0.0,0.0,0.0,0.0,0.0,0.0,0.0,0.0,0.0,0.0,0.0,-3.1705,-3.1705,-3.1705,-3.1705,-3.1705,-3.1705,-3.1705,-3.1705,-3.1705,-3.1705,-3.1705,-3.1705,-3.1705,-3.1717,-3.1925,-3.2334,-3.2875,-3.3392,-3.3621,-3.3633,-3.3873,-3.397,-3.3994,-3.4426,-3.4725,-3.5048,-3.5605,-3.6003,-3.6228,-3.6358,-3.6405,-3.6405,-3.6405,-3.6405,-3.6405,-3.6405,-3.6405,-3.6405,-3.6405,-3.6405,-3.6405,-3.6405,-3.6405,-3.6405,-3.6405,-3.6405,-3.6405,-3.6405,-3.6405,-3.6405,-3.6405,-3.6452,-3.6581,-3.6675,-3.6815,-3.6968,-3.7261,-3.74,-3.7551,-3.7657,-3.7808,-3.79,-3.79,-3.79,-3.79,-3.79,-3.79,-3.79,-3.79,-3.79,-3.7919,-3.7902,-3.9387,-4.0512,-4.1071,-4.2529,-4.329,-4.329,-4.329,-4.329,-4.329,-4.329,-4.329,-3.3381,-3.3776,-3.4147,-3.4346,-3.3811,-3.3073,-3.2506,-3.1586,-3.0875,0.0,-3.0626,0.0,0.0,0.0,0.0,0.0,0.0,0.0,0.0,0.0,0.0,0.0,0.0,0.0,0.0,0.0,0.0,0.0,0.0,-3.1705,-3.1705,-3.1705,-3.1705,-3.1705,-3.1705,-3.1705,-3.1705,-3.1705,-3.1777,-3.1922,-3.1922,-3.1994,-3.2126,-3.2126,-3.2226,-3.2527,-3.2911,-3.3092,-3.3104,-3.3236,-3.3284,-3.3379,-3.3987,-3.4367,-3.4662,-3.535,-3.5809,-3.6157,-3.6157,-3.6292,-3.6405,-3.6405,-3.6405,-3.6405,-3.6405,-3.6405,-3.6405,-3.6405,-3.6405,-3.6405,-3.6405,-3.6405,-3.6405,-3.6405,-3.6405,-3.6405,-3.6405,-3.6405,-3.6405,-3.6405,-3.6405,-3.6452,-3.6581,-3.6675,-3.6815,-3.7062,-3.7307,-3.7505,-3.7598,-3.7762,-3.79,-3.79,-3.79,-3.79,-3.79,-3.79,-3.79,-3.79,-3.79,-3.7912,-3.7904,-3.8822,-3.9733,-4.0557,-4.1767,-4.267,-4.3309,-4.3309,-4.3289,-4.329,-4.329,-4.329,-3.4094,-3.3811,-3.3451,-3.423,-3.3811,-3.3178,-3.3143,-3.1988,-3.0895,-3.0897,0.0,0.0,0.0,0.0,0.0,0.0,0.0,0.0,0.0,0.0,0.0,0.0,0.0,0.0,0.0,0.0,0.0,0.0,0.0,-3.1705,-3.1705,-3.1705,-3.1705,-3.1705,-3.1705,-3.1705,-3.1705,-3.1705,-3.1982,-3.2454,-3.2454,-3.2719,-3.32,-3.32,-3.2947,-3.2503,-3.2527,-3.2539,-3.2575,-3.308,-3.3284,-3.3331,-3.3528,-3.3817,-3.4047,-3.4288,-3.4853,-3.5545,-3.5545,-3.5931,-3.6405,-3.6405,-3.6405,-3.6405,-3.6405,-3.6405,-3.6405,-3.6405,-3.6405,-3.6405,-3.6405,-3.6405,-3.6405,-3.6405,-3.6405,-3.6405,-3.6405,-3.6405,-3.6405,-3.6405,-3.6405,-3.6405,-3.6405,-3.6581,-3.6815,-3.7062,-3.7307,-3.7598,-3.7854,-3.79,-3.79,-3.79,-3.79,-3.79,-3.79,-3.79,-3.79,-3.79,-3.79,-3.79,-3.7907,-3.9029,-3.9183,-3.8113,-3.9286,-4.1028,-4.331,-4.331,-4.3279,-4.329,-4.329,-4.329,-3.2925,-3.272,-3.2541,-3.284,-3.2698,-3.2362,-3.1842,-3.1291,-3.0758,-3.0305,0.0,0.0,0.0,0.0,0.0,0.0,0.0,0.0,0.0,0.0,0.0,0.0,0.0,0.0,0.0,0.0,0.0,0.0,0.0,0.0,-3.1705,-3.1705,-3.1705,-3.1705,-3.1705,-3.1705,-3.1705,-3.1705,-3.1813,-3.2006,-3.2006,-3.2114,-3.2283,-3.2283,-3.2346,-3.2503,-3.2503,-3.2298,-3.2018,-3.2211,-3.234,-3.2511,-3.2941,-3.3346,-3.3711,-3.4139,-3.4607,-3.5036,-3.5354,-3.5628,-3.5874,-3.626,-3.6405,-3.6405,-3.6405,-3.6405,-3.6405,-3.6405,-3.6405,-3.6405,-3.6405,-3.6405,-3.6405,-3.6405,-3.6405,-3.6405,-3.6405,-3.6405,-3.6405,-3.6405,-3.6405,-3.6405,-3.6405,-3.6452,-3.6581,-3.6815,-3.7062,-3.7353,-3.7611,-3.7808,-3.79,-3.79,-3.79,-3.79,-3.79,-3.79,-3.79,-3.79,-3.79,-3.79,-3.79,-3.8338,-3.8336,-3.7911,-3.8299,-3.8983,-3.983,-4.1389,-4.2538,-4.3279,-4.3304,-4.329,-3.2484,-3.211,-3.1746,-3.2037,-3.1892,-3.1563,-3.1007,-3.072,-3.0368,-2.9895,0.0,0.0,0.0,0.0,0.0,0.0,0.0,0.0,0.0,0.0,0.0,0.0,0.0,0.0,0.0,0.0,0.0,0.0,0.0,0.0,-3.1705,-3.1705,-3.1705,-3.1705,-3.1705,-3.1705,-3.1705,-3.1705,-3.1801,-3.1994,-3.1994,-3.2034,-3.2259,-3.2259,-3.231,-3.2503,-3.2503,-3.2394,-3.2235,-3.2066,-3.2039,-3.2196,-3.2544,-3.284,-3.318,-3.3699,-3.4135,-3.4472,-3.4865,-3.5211,-3.5548,-3.5946,-3.6248,-3.6405,-3.6405,-3.6405,-3.6405,-3.6405,-3.6405,-3.6405,-3.6405,-3.6405,-3.6405,-3.6405,-3.6405,-3.6405,-3.6405,-3.6405,-3.6405,-3.6405,-3.6405,-3.6405,-3.6405,-3.6452,-3.6534,-3.6675,-3.6922,-3.7155,-3.7353,-3.7611,-3.7762,-3.7762,-3.7854,-3.79,-3.79,-3.79,-3.79,-3.79,-3.79,-3.79,-3.79,-3.79,-3.79,-3.79,-3.79,-3.7904,-3.7889,-3.9489,-4.1112,-4.2684,-4.2509,-4.2286,0.0,0.0,0.0,-3.1819,-3.1452,-3.0895,-3.0857,0.0,-2.983,-2.9792,0.0,0.0,0.0,0.0,0.0,0.0,0.0,0.0,0.0,0.0,0.0,0.0,0.0,0.0,0.0,0.0,0.0,0.0,0.0,-3.1693,-3.1705,-3.1705,-3.1705,-3.1705,-3.1705,-3.1705,-3.1705,-3.1705,-3.1982,-3.2478,-3.2478,-3.2743,-3.3236,-3.3236,-3.2971,-3.2503,-3.2503,-3.2803,-3.3248,-3.2695,-3.2491,-3.2488,-3.2445,-3.2418,-3.2511,-3.2946,-3.3434,-3.389,-3.3884,-3.4591,-3.5462,-3.5499,-3.5921,-3.6405,-3.6405,-3.6405,-3.6405,-3.6405,-3.6405,-3.6405,-3.6405,-3.6405,-3.6405,-3.6405,-3.6405,-3.6405,-3.6405,-3.6405,-3.6405,-3.6405,-3.6405,-3.6405,-3.6405,-3.6534,-3.6675,-3.6722,-3.6922,-3.7108,-3.7108,-3.7307,-3.7505,-3.7505,-3.7762,-3.7913,-3.79,-3.79,-3.79,-3.79,-3.79,-3.79,-3.79,-3.79,-3.79,-3.79,-3.79,-3.79,-3.79,-3.7912,-3.9114,-4.1369,-4.0787,-4.0236,-3.2326,0.0,0.0,0.0,0.0,0.0,0.0,0.0,0.0,0.0,0.0,0.0,0.0,0.0,0.0,0.0,0.0,0.0,0.0,0.0,0.0,0.0,0.0,0.0,0.0,0.0,0.0,0.0,-3.124,-3.1438,-3.1693,-3.1705,-3.1705,-3.1705,-3.1705,-3.1705,-3.1705,-3.1705,-3.1789,-3.1934,-3.1934,-3.2018,-3.2163,-3.2163,-3.225,-3.2503,-3.2503,-3.2803,-3.3224,-3.2274,-3.2264,-3.2713,-3.2919,-3.3088,-3.321,-3.3575,-3.3515,-3.3379,-3.3756,-3.4374,-3.4997,-3.5351,-3.5921,-3.6405,-3.6405,-3.6405,-3.6405,-3.6405,-3.6405,-3.6405,-3.6405,-3.6405,-3.6405,-3.6405,-3.6405,-3.6405,-3.6405,-3.6405,-3.6405,-3.6405,-3.6405,-3.6405,-3.6405,-3.6452,-3.6512,-3.6669,-3.676,-3.6862,-3.7062,-3.7155,-3.7261,-3.7459,-3.7722,-3.7886,-3.7913,-3.79,-3.79,-3.79,-3.79,-3.79,-3.79,-3.79,-3.79,-3.79,-3.79,-3.79,-3.79,-3.855,-3.8847,-3.8901,-3.874,-3.9026,-3.211,-3.0972,-2.9792,-2.9792,0.0,0.0,-2.9895,-3.0139,0.0,0.0,0.0,0.0,0.0,0.0,0.0,0.0,0.0,0.0,0.0,0.0,0.0,0.0,0.0,0.0,0.0,0.0,0.0,0.0,-3.0773,-3.0997,-3.1356,-3.1585,-3.1705,-3.1705,-3.1705,-3.1705,-3.1705,-3.1705,-3.1705,-3.1705,-3.1705,-3.1705,-3.1705,-3.1705,-3.1886,-3.2154,-3.2154,-3.2322,-3.2563,-3.197,-3.2075,-3.2668,-3.2818,-3.2953,-3.3118,-3.3701,-3.3571,-3.3192,-3.372,-3.4101,-3.4459,-3.4997,-3.5556,-3.6056,-3.6329,-3.6405,-3.6405,-3.6405,-3.6405,-3.6405,-3.6405,-3.6405,-3.6405,-3.6405,-3.6405,-3.6405,-3.6405,-3.6405,-3.6405,-3.6405,-3.6405,-3.6405,-3.6405,-3.6405,-3.643,-3.6575,-3.6666,-3.6769,-3.6909,-3.7108,-3.7307,-3.7505,-3.7755,-3.7919,-3.7913,-3.79,-3.79,-3.79,-3.79,-3.79,-3.79,-3.79,-3.79,-3.79,-3.79,-3.79,-3.79,-3.8395,-3.8384,-3.792,-3.7909,-3.8272,-3.211,-3.0972,-2.9792,-2.9792,-2.9792,0.0,-2.9792,-2.9792,-2.9792,0.0,0.0,0.0,0.0,0.0,0.0,0.0,0.0,0.0,0.0,0.0,0.0,0.0,0.0,0.0,0.0,-2.9866,-3.0096,-2.993,-3.0199,-3.0513,-3.0814,-3.1284,-3.156,-3.1621,-3.1621,-3.1645,-3.1705,-3.1705,-3.1705,-3.1705,-3.1705,-3.1705,-3.1705,-3.1705,-3.1705,-3.1705,-3.1705,-3.1705,-3.1705,-3.1705,-3.2042,-3.25,-3.2487,-3.2467,-3.2587,-3.3571,-3.3573,-3.3164,-3.366,-3.387,-3.4007,-3.4518,-3.5043,-3.5629,-3.6241,-3.6405,-3.6405,-3.6405,-3.6405,-3.6405,-3.6405,-3.6405,-3.6405,-3.6405,-3.6405,-3.6405,-3.6405,-3.6405,-3.6405,-3.6405,-3.6405,-3.6405,-3.6405,-3.6405,-3.6405,-3.6405,-3.6534,-3.6675,-3.6675,-3.7062,-3.7413,-3.7413,-3.7657,-3.7808,-3.7808,-3.7854,-3.79,-3.7854,-3.79,-3.79,-3.79,-3.79,-3.79,-3.79,-3.79,-3.79,-3.79,-3.79,-3.79,-3.79,-3.79,-3.79,-3.211,-3.0972,-2.9792,-2.9792,-2.9792,0.0,-2.9792,-2.9792,-2.9792,0.0,0.0,0.0,0.0,0.0,0.0,0.0,0.0,0.0,0.0,0.0,0.0,0.0,0.0,0.0,0.0,-2.9802,-2.9949,-3.0134,-3.0281,-3.0439,-3.0507,-3.0423,-3.0591,-3.1055,-3.1079,-3.1271,-3.1705,-3.1705,-3.1705,-3.1705,-3.1705,-3.1705,-3.1705,-3.1705,-3.1705,-3.1705,-3.1705,-3.1705,-3.1705,-3.1705,-3.2042,-3.2512,-3.2911,-3.3056,-3.3089,-3.3677,-3.3568,-3.309,-3.3221,-3.3558,-3.4,-3.4537,-3.5069,-3.5596,-3.6216,-3.6405,-3.6405,-3.6405,-3.6405,-3.6405,-3.6405,-3.6405,-3.6405,-3.6405,-3.6405,-3.6405,-3.6405,-3.6405,-3.6405,-3.6405,-3.6405,-3.6405,-3.6405,-3.6405,-3.6405,-3.6405,-3.6452,-3.6452,-3.6452,-3.6546,-3.6687,-3.6815,-3.7108,-3.7261,-3.7261,-3.7657,-3.7808,-3.7598,-3.7762,-3.79,-3.79,-3.79,-3.79,-3.79,-3.79,-3.79,-3.79,-3.79,-3.79,-3.79,-3.79,-3.79,-3.211,-3.0972,-2.9792,-2.9792,0.0,0.0,0.0,-2.9792,-2.9792,-2.9792,-2.9792,-2.9792,0.0,0.0,0.0,0.0,0.0,0.0,0.0,0.0,0.0,0.0,0.0,0.0,0.0,-2.9792,-2.9814,-2.9804,-3.0109,-3.0225,-3.0019,-3.015,-3.0344,-3.0525,-3.0735,-3.1043,-3.1308,-3.1573,-3.1705,-3.1705,-3.1705,-3.1705,-3.1705,-3.1705,-3.1705,-3.1705,-3.1705,-3.1705,-3.1705,-3.1705,-3.1874,-3.2159,-3.2595,-3.2793,-3.2877,-3.3613,-3.3539,-3.3126,-3.3432,-3.3503,-3.3599,-3.4109,-3.468,-3.5198,-3.5768,-3.6144,-3.6405,-3.6405,-3.6405,-3.6405,-3.6405,-3.6405,-3.6405,-3.6405,-3.6405,-3.6405,-3.6405,-3.6405,-3.6405,-3.6405,-3.6405,-3.6405,-3.6405,-3.6405,-3.6405,-3.6405,-3.6499,-3.6534,-3.6534,-3.6687,-3.6828,-3.7062,-3.7214,-3.7353,-3.7505,-3.7762,-3.7854,-3.7703,-3.7808,-3.79,-3.79,-3.79,-3.79,-3.79,-3.79,-3.79,-3.79,-3.79,-3.79,-3.79,-3.79,-3.79,-3.211,0.0,0.0,0.0,0.0,-2.9792,0.0,0.0,0.0,0.0,0.0,-2.9792,-2.9792,0.0,0.0,0.0,0.0,0.0,0.0,0.0,0.0,0.0,0.0,0.0,0.0,-2.9792,-2.9702,-2.9509,-2.9829,-2.9918,-2.9557,-2.9914,-3.0082,-3.0013,-3.0392,-3.0627,-3.0723,-3.1296,-3.156,-3.156,-3.1657,-3.1705,-3.1705,-3.1705,-3.1705,-3.1705,-3.1705,-3.1705,-3.1705,-3.1749,-3.1761,-3.1805,-3.223,-3.24,-3.25,-3.3429,-3.349,-3.3149,-3.3584,-3.3447,-3.3212,-3.3721,-3.4349,-3.4919,-3.537,-3.5931,-3.6405,-3.6405,-3.6405,-3.6405,-3.6405,-3.6405,-3.6405,-3.6405,-3.6405,-3.6405,-3.6405,-3.6405,-3.6405,-3.6405,-3.6405,-3.6405,-3.6405,-3.6405,-3.6405,-3.6405,-3.6534,-3.6675,-3.6709,-3.6909,-3.7108,-3.74,-3.7459,-3.7564,-3.7703,-3.7854,-3.7854,-3.7808,-3.7854,-3.79,-3.79,-3.79,-3.79,-3.79,-3.79,-3.79,-3.79,-3.79,-3.79,-3.79,-3.79,-3.79,0.0,0.0,0.0,0.0,-2.9792,0.0,0.0,0.0,-2.9792,-2.9792,0.0,-2.9792,-2.9792,0.0,0.0,0.0,0.0,0.0,0.0,0.0,0.0,0.0,0.0,0.0,0.0,0.0,-2.9792,-2.9753,-2.9571,-2.9466,-2.944,-2.9147,-2.9205,-2.9638,-2.9559,-2.9701,-3.017,-3.0699,-3.1007,-3.1019,-3.1488,-3.1705,-3.1705,-3.1705,-3.1705,-3.1705,-3.1705,-3.1705,-3.1705,-3.1893,-3.1994,-3.1981,-3.2269,-3.2407,-3.2476,-3.2995,-3.3136,-3.3124,-3.3149,-3.3136,-3.3212,-3.3721,-3.4555,-3.542,-3.5483,-3.5931,-3.6405,-3.6405,-3.6405,-3.6405,-3.6405,-3.6405,-3.6405,-3.6405,-3.6405,-3.6405,-3.6405,-3.6405,-3.6405,-3.6405,-3.6405,-3.6405,-3.6405,-3.6405,-3.6405,-3.6405,-3.6405,-3.6499,-3.6675,-3.6722,-3.6862,-3.7108,-3.7366,-3.7413,-3.7214,-3.7611,-3.7808,-3.7551,-3.7762,-3.79,-3.79,-3.79,-3.79,-3.79,-3.79,-3.79,-3.79,-3.79,-3.79,-3.79,-3.79,-3.79,0.0,0.0,0.0,0.0,0.0,0.0,-2.9792,0.0,-2.9792,0.0,0.0,0.0,0.0,0.0,0.0,0.0,-2.9628,0.0,0.0,0.0,0.0,0.0,0.0,0.0,0.0,0.0,0.0,0.0,0.0,-2.956,-2.9419,-2.9118,-2.9019,-2.912,-2.9245,-2.9412,-2.9629,-3.0158,-3.0579,-3.0922,-3.1151,-3.1404,-3.1705,-3.1705,-3.1705,-3.1705,-3.1705,-3.1761,-3.1893,-3.1994,-3.2081,-3.2257,-3.2463,-3.2581,-3.2599,-3.2982,-3.3124,-3.3124,-3.3124,-3.3124,-3.3212,-3.3721,-3.4211,-3.465,-3.4919,-3.5454,-3.5893,-3.5893,-3.6119,-3.6405,-3.6405,-3.6405,-3.6405,-3.6405,-3.6405,-3.6405,-3.6405,-3.6405,-3.6405,-3.6405,-3.6405,-3.6405,-3.6405,-3.6405,-3.6405,-3.6405,-3.6405,-3.6452,-3.6546,-3.6534,-3.6628,-3.6815,-3.6968,-3.7062,-3.7108,-3.7307,-3.7459,-3.7505,-3.7749,-3.79,-3.79,-3.79,-3.79,-3.79,-3.79,-3.79,-3.79,-3.79,-3.79,-3.79,-3.79,-3.79,-3.1783,0.0,0.0,0.0,0.0,0.0,0.0,0.0,0.0,0.0,0.0,0.0,0.0,0.0,-2.9741,-2.9578,0.0,-2.9741,0.0,0.0,0.0,0.0,0.0,0.0,0.0,0.0,0.0,0.0,0.0,0.0,-2.9509,-2.9248,-2.904,-2.8882,-2.8992,-2.9088,-2.9088,-2.9605,-3.0062,-3.0446,-3.0778,-3.1115,-3.15,-3.1645,-3.1705,-3.1705,-3.1705,-3.1805,-3.1994,-3.2081,-3.2257,-3.2519,-3.2723,-3.281,-3.2853,-3.3025,-3.3124,-3.3124,-3.3124,-3.3124,-3.3144,-3.3545,-3.3771,-3.3972,-3.4374,-3.4876,-3.527,-3.527,-3.5717,-3.6132,-3.6132,-3.6304,-3.6405,-3.6405,-3.6405,-3.6405,-3.6405,-3.6405,-3.6405,-3.6405,-3.6405,-3.6405,-3.6405,-3.6405,-3.6405,-3.6405,-3.6405,-3.6405,-3.6499,-3.6499,-3.6593,-3.6769,-3.6815,-3.6922,-3.7201,-3.7214,-3.7307,-3.7598,-3.7808,-3.79,-3.79,-3.79,-3.79,-3.79,-3.79,-3.79,-3.79,-3.79,-3.79,-3.79,-3.79,-3.79,0.0,0.0,0.0,-2.9792,0.0,0.0,0.0,0.0,-2.9792,0.0,0.0,0.0,-2.9792,-2.9792,-2.9616,-2.9013,-2.9428,0.0,0.0,0.0,0.0,0.0,0.0,0.0,0.0,0.0,0.0,0.0,0.0,0.0,-2.9792,-2.9339,-2.9091,-2.9091,-2.8721,-2.8534,-2.8534,-2.9063,-2.9328,-2.9364,-3.0386,-3.0922,-3.0958,-3.1476,-3.1705,-3.1705,-3.1705,-3.1805,-3.2038,-3.2257,-3.2519,-3.2723,-3.2982,-3.3081,-3.3081,-3.3124,-3.3124,-3.3124,-3.3124,-3.3124,-3.3124,-3.3106,-3.347,-3.3897,-3.3922,-3.4311,-3.4751,-3.4751,-3.5094,-3.552,-3.552,-3.5968,-3.6405,-3.6405,-3.6405,-3.6405,-3.6405,-3.6405,-3.6405,-3.6405,-3.6405,-3.6405,-3.6405,-3.6405,-3.6405,-3.6405,-3.6405,-3.6452,-3.6675,-3.6675,-3.6815,-3.7062,-3.7108,-3.7214,-3.7459,-3.7505,-3.7598,-3.7854,-3.79,-3.79,-3.79,-3.79,-3.79,-3.79,-3.79,-3.79,-3.79,-3.79,-3.79,-3.79,-3.79,-3.79,0.0,0.0,-2.9792,-2.9792,0.0,0.0,0.0,0.0,0.0,0.0,0.0,0.0,0.0,-2.9792,-2.9729,-2.9528,-2.9666,-2.9729,0.0,0.0,0.0,0.0,0.0,0.0,0.0,0.0,0.0,0.0,0.0,0.0,0.0,-2.9482,-2.9236,-2.9091,-2.8855,-2.8618,-2.851,-2.8691,-2.8955,-2.9304,-2.9665,-3.0194,-3.0922,-3.1103,-3.138,-3.1717,-3.1849,-3.2038,-3.2257,-3.2506,-3.2723,-3.2982,-3.3081,-3.3124,-3.3124,-3.3124,-3.3124,-3.3124,-3.3124,-3.3124,-3.3124,-3.3124,-3.3206,-3.3357,-3.3357,-3.3746,-3.4173,-3.4173,-3.4575,-3.4956,-3.4956,-3.514,-3.5278,-3.5278,-3.5278,-3.5278,-3.5278,-3.5278,-3.5378,-3.5755,-3.5818,-3.5931,-3.6342,-3.6405,-3.6405,-3.6405,-3.6405,-3.6405,-3.6499,-3.6499,-3.6546,-3.664,-3.664,-3.6734,-3.6956,-3.7307,-3.7551,-3.7611,-3.7808,-3.79,-3.79,-3.79,-3.79,-3.79,-3.79,-3.79,-3.79,-3.79,-3.79,-3.79,-3.79,-3.79,-3.052,-3.0177,0.0,-2.9792,-2.9792,0.0,-2.9792,0.0,0.0,0.0,0.0,0.0,0.0,-2.9792,-2.9792,-2.9792,-2.9792,-2.9792,0.0,-2.9792,0.0,0.0,0.0,0.0,0.0,0.0,0.0,0.0,-2.9792,0.0,0.0,0.0,-2.9341,-2.9197,-2.8961,-2.8764,-2.8697,-2.859,-2.8719,-2.9125,-2.9249,-2.9653,-3.0326,-3.0742,-3.1146,-3.1559,-3.1853,-3.2213,-3.2519,-3.2636,-3.2853,-3.3124,-3.3124,-3.3124,-3.3124,-3.3124,-3.3124,-3.3124,-3.3124,-3.3124,-3.3124,-3.3124,-3.3124,-3.3124,-3.3124,-3.3319,-3.3608,-3.3608,-3.401,-3.4424,-3.4424,-3.4575,-3.468,-3.468,-3.468,-3.468,-3.468,-3.468,-3.4781,-3.5144,-3.5207,-3.532,-3.5717,-3.5943,-3.6132,-3.638,-3.6405,-3.6405,-3.6405,-3.6405,-3.6405,-3.6405,-3.6405,-3.6499,-3.6815,-3.7261,-3.7505,-3.7505,-3.7657,-3.7762,-3.7762,-3.7657,-3.7566,-3.7462,-3.7553,-3.7507,-3.7345,-3.7612,-3.7762,-3.7749,-3.7854,-3.79]}]]